Detalle de ayer:

13/8/20
Time         Wind Dir  Wind Gust   Humidity       Temp   Tot Rain Wind Chill Heat Index  Dew Point   Barom SL Temp Out H Temp Out L  DailyRain   HourRain   24HrRain   RainRate   Wind Run   Deg Heat   Deg Cool  MonthRain
                          km/hr          %         C         mm         C         C         C         mb         C         C         mm         mm         mm      mm/hr         km         C         C         mm
0:00              191        0.0         84       20.7      267.6       20.7       23.4       17.9     1014.2       20.7       20.7        0.0        0.0        0.0       0.00      401.6       0.02       2.30        0.0
0:02              191        0.0         84       20.7      267.6       20.7       23.4       17.9     1014.2       20.7       20.7        0.0        0.0        0.0       0.00        0.2       0.00       0.00        0.0
0:04              191        0.0         84       20.7      267.6       20.7       23.4       17.9     1014.1       20.7       20.7        0.0        0.0        0.0       0.00        0.4       0.00       0.00        0.0
0:06              191        0.0         84       20.7      267.6       20.7       23.4       17.9     1014.2       20.7       20.7        0.0        0.0        0.0       0.00        0.6       0.00       0.00        0.0
0:08              191        0.0         84       20.7      267.6       20.7       23.4       17.9     1014.2       20.7       20.7        0.0        0.0        0.0       0.00        0.9       0.00       0.00        0.0
0:10              191        0.0         84       20.7      267.6       20.7       23.4       17.9     1014.2       20.7       20.7        0.0        0.0        0.0       0.00        1.1       0.00       0.00        0.0
0:12              191        0.0         84       20.7      267.6       20.7       23.3       17.9     1014.1       20.7       20.7        0.0        0.0        0.0       0.00        1.5       0.00       0.00        0.0
0:14              191        0.0         85       20.7      267.6       20.7       23.5       18.1     1014.1       20.7       20.7        0.0        0.0        0.0       0.00        1.8       0.00       0.00        0.0
0:16              191        0.0         85       20.7      267.6       20.7       23.5       18.1     1014.1       20.7       20.7        0.0        0.0        0.0       0.00        2.1       0.00       0.00        0.0
0:18              191        0.0         85       20.7      267.6       20.7       23.4       18.1     1014.1       20.7       20.7        0.0        0.0        0.0       0.00        2.4       0.00       0.00        0.0
0:20              191        0.0         84       20.7      267.6       20.7       23.3       17.9     1014.1       20.7       20.7        0.0        0.0        0.0       0.00        2.8       0.00       0.00        0.0
0:22              191        0.0         84       20.7      267.6       20.7       23.3       17.9     1014.1       20.7       20.7        0.0        0.0        0.0       0.00        3.1       0.00       0.00        0.0
0:24              191        0.0         84       20.6      267.6       20.6       23.3       17.8     1014.1       20.7       20.6        0.0        0.0        0.0       0.00        3.5       0.00       0.00        0.0
0:26              191        0.0         84       20.6      267.6       20.6       23.3       17.8     1014.1       20.7       20.6        0.0        0.0        0.0       0.00        3.9       0.00       0.00        0.0
0:28              191        0.0         84       20.6      267.6       20.6       23.3       17.8     1014.0       20.7       20.6        0.0        0.0        0.0       0.00        4.3       0.00       0.00        0.0
0:30              190        0.0         84       20.6      267.6       20.6       23.2       17.8     1014.1       20.7       20.6        0.0        0.0        0.0       0.00        4.5       0.00       0.00        0.0
0:32              190        0.0         85       20.6      267.6       20.6       23.3       17.9     1014.0       20.7       20.6        0.0        0.0        0.0       0.00        4.7       0.00       0.00        0.0
0:34              190        0.0         85       20.6      267.6       20.6       23.3       17.9     1014.0       20.7       20.6        0.0        0.0        0.0       0.00        5.0       0.00       0.00        0.0
0:36              190        0.0         85       20.5      267.6       20.5       23.2       17.9     1014.0       20.7       20.5        0.0        0.0        0.0       0.00        5.3       0.00       0.00        0.0
0:38              190        0.0         85       20.5      267.6       20.5       23.2       17.9     1014.0       20.7       20.5        0.0        0.0        0.0       0.00        5.7       0.00       0.00        0.0
0:40              190        0.0         85       20.5      267.6       20.5       23.2       17.9     1014.0       20.7       20.5        0.0        0.0        0.0       0.00        5.9       0.00       0.00        0.0
0:42              190        0.0         85       20.5      267.6       20.5       23.2       17.9     1014.1       20.7       20.4        0.0        0.0        0.0       0.00        6.4       0.00       0.00        0.0
0:44              190        0.0         85       20.4      267.6       20.4       23.2       17.8     1014.1       20.7       20.4        0.0        0.0        0.0       0.00        6.7       0.00       0.00        0.0
0:46              190        0.0         85       20.4      267.6       20.4       23.1       17.8     1014.0       20.7       20.4        0.0        0.0        0.0       0.00        7.0       0.00       0.00        0.0
0:48              190        0.0         85       20.4      267.6       20.4       23.1       17.8     1014.1       20.7       20.4        0.0        0.0        0.0       0.00        7.4       0.00       0.00        0.0
0:50              190        0.0         85       20.4      267.6       20.4       23.1       17.8     1014.1       20.7       20.4        0.0        0.0        0.0       0.00        7.8       0.00       0.00        0.0
0:52              190        0.0         85       20.3      267.6       20.3       23.1       17.7     1014.1       20.7       20.3        0.0        0.0        0.0       0.00        8.1       0.00       0.00        0.0
0:54              190        0.0         85       20.3      267.6       20.3       23.1       17.7     1014.0       20.7       20.3        0.0        0.0        0.0       0.00        8.4       0.00       0.00        0.0
0:56              189        0.0         86       20.3      267.6       20.3       23.1       17.9     1014.1       20.7       20.3        0.0        0.0        0.0       0.00        8.6       0.00       0.00        0.0
0:58              186        0.0         86       20.3      267.6       20.3       23.1       17.9     1014.0       20.7       20.3        0.0        0.0        0.0       0.00        8.9       0.00       0.00        0.0
1:00              186        0.0         86       20.3      267.6       20.3       23.1       17.9     1014.0       20.7       20.3        0.0        0.0        0.0       0.00        9.1       0.00       0.00        0.0
1:02              186        0.0         86       20.3      267.6       20.3       23.1       17.9     1014.1       20.7       20.3        0.0        0.0        0.0       0.00        9.4       0.00       0.00        0.0
1:04              186        0.0         86       20.3      267.6       20.3       23.1       17.9     1014.1       20.7       20.3        0.0        0.0        0.0       0.00        9.6       0.00       0.00        0.0
1:06              186        0.0         86       20.3      267.6       20.3       23.1       17.9     1014.1       20.7       20.3        0.0        0.0        0.0       0.00        9.9       0.00       0.00        0.0
1:08              186        0.0         86       20.3      267.6       20.3       23.1       17.9     1014.0       20.7       20.3        0.0        0.0        0.0       0.00       10.1       0.00       0.00        0.0
1:10              186        0.0         86       20.3      267.6       20.3       23.1       17.9     1014.0       20.7       20.2        0.0        0.0        0.0       0.00       10.3       0.00       0.00        0.0
1:12              186        0.0         86       20.2      267.6       20.2       23.0       17.8     1014.1       20.7       20.2        0.0        0.0        0.0       0.00       10.6       0.00       0.00        0.0
1:13              186        0.0         86       20.2      267.6       20.2       23.0       17.8     1014.0       20.7       20.2        0.0        0.0        0.0       0.00       11.1       0.00       0.00        0.0
1:16              186        0.0         86       20.2      267.6       20.2       23.0       17.8     1014.0       20.7       20.2        0.0        0.0        0.0       0.00       11.3       0.00       0.00        0.0
1:18              186        0.0         86       20.2      267.6       20.2       23.0       17.8     1014.0       20.7       20.2        0.0        0.0        0.0       0.00       11.5       0.00       0.00        0.0
1:20              186        0.0         86       20.3      267.6       20.3       23.1       17.9     1014.0       20.7       20.2        0.0        0.0        0.0       0.00       11.7       0.00       0.00        0.0
1:22              186        0.0         86       20.2      267.6       20.2       23.0       17.8     1014.0       20.7       20.2        0.0        0.0        0.0       0.00       12.1       0.00       0.00        0.0
1:24              186        0.0         86       20.2      267.6       20.2       23.0       17.8     1014.0       20.7       20.2        0.0        0.0        0.0       0.00       12.4       0.00       0.00        0.0
1:26              186        0.0         86       20.2      267.6       20.2       23.0       17.8     1014.0       20.7       20.2        0.0        0.0        0.0       0.00       12.5       0.00       0.00        0.0
1:28              186        0.0         86       20.2      267.6       20.2       23.0       17.8     1013.9       20.7       20.2        0.0        0.0        0.0       0.00       12.7       0.00       0.00        0.0
1:30              186        0.0         86       20.2      267.6       20.2       23.0       17.8     1013.9       20.7       20.2        0.0        0.0        0.0       0.00       12.9       0.00       0.00        0.0
1:32              186        0.0         86       20.2      267.6       20.2       23.0       17.8     1013.8       20.7       20.2        0.0        0.0        0.0       0.00       13.1       0.00       0.00        0.0
1:34              186        0.0         86       20.2      267.6       20.2       23.0       17.8     1013.8       20.7       20.2        0.0        0.0        0.0       0.00       13.3       0.00       0.00        0.0
1:36              186        0.0         86       20.2      267.6       20.2       23.0       17.8     1013.7       20.7       20.2        0.0        0.0        0.0       0.00       13.6       0.00       0.00        0.0
1:37              186        0.0         86       20.2      267.6       20.2       23.0       17.8     1013.7       20.7       20.2        0.0        0.0        0.0       0.00       13.8       0.00       0.00        0.0
1:40              186        0.0         86       20.2      267.6       20.2       23.0       17.8     1013.6       20.7       20.2        0.0        0.0        0.0       0.00       14.0       0.00       0.00        0.0
1:42              186        0.0         86       20.2      267.6       20.2       23.0       17.8     1013.6       20.7       20.2        0.0        0.0        0.0       0.00       14.3       0.00       0.00        0.0
1:44              186        0.0         86       20.1      267.6       20.1       22.9       17.7     1013.6       20.7       20.1        0.0        0.0        0.0       0.00       14.4       0.00       0.00        0.0
1:46              186        0.0         86       20.1      267.6       20.1       22.9       17.7     1013.6       20.7       20.1        0.0        0.0        0.0       0.00       14.6       0.00       0.00        0.0
1:48              186        0.0         86       20.1      267.6       20.1       22.9       17.7     1013.6       20.7       20.1        0.0        0.0        0.0       0.00       14.8       0.00       0.00        0.0
1:50              186        0.0         86       20.1      267.6       20.1       22.9       17.7     1013.5       20.7       20.1        0.0        0.0        0.0       0.00       15.0       0.00       0.00        0.0
1:52              186        0.0         86       20.1      267.6       20.1       22.9       17.6     1013.5       20.7       20.1        0.0        0.0        0.0       0.00       15.0       0.00       0.00        0.0
1:54              186        0.0         86       20.1      267.6       20.1       22.9       17.6     1013.5       20.7       20.1        0.0        0.0        0.0       0.00       15.2       0.00       0.00        0.0
1:56              186        0.0         86       20.1      267.6       20.1       22.9       17.6     1013.5       20.7       20.1        0.0        0.0        0.0       0.00       15.3       0.00       0.00        0.0
1:58              186        0.0         86       20.0      267.6       20.0       22.8       17.6     1013.4       20.7       20.0        0.0        0.0        0.0       0.00       15.3       0.00       0.00        0.0
2:00              186        0.0         86       20.0      267.6       20.0       22.8       17.6     1013.5       20.7       20.0        0.0        0.0        0.0       0.00       15.3       0.00       0.00        0.0
2:02              186        0.0         86       20.0      267.6       20.0       22.8       17.6     1013.5       20.7       20.0        0.0        0.0        0.0       0.00       15.4       0.00       0.00        0.0
2:04              186        0.0         86       20.0      267.6       20.0       22.8       17.6     1013.4       20.7       19.9        0.0        0.0        0.0       0.00       15.4       0.00       0.00        0.0
2:06              186        0.0         86       19.9      267.6       19.9       22.8       17.5     1013.4       20.7       19.9        0.0        0.0        0.0       0.00       15.4       0.00       0.00        0.0
2:08              186        0.0         86       19.9      267.6       19.9       22.8       17.5     1013.4       20.7       19.9        0.0        0.0        0.0       0.00       15.4       0.00       0.00        0.0
2:10              186        0.0         87       19.9      267.6       19.9       22.8       17.7     1013.4       20.7       19.9        0.0        0.0        0.0       0.00       15.4       0.00       0.00        0.0
2:12              186        0.0         86       19.9      267.6       19.9       22.8       17.5     1013.3       20.7       19.9        0.0        0.0        0.0       0.00       15.4       0.00       0.00        0.0
2:14              186        0.0         86       19.9      267.6       19.9       22.7       17.5     1013.4       20.7       19.9        0.0        0.0        0.0       0.00       15.4       0.00       0.00        0.0
2:16              186        0.0         86       19.9      267.6       19.9       22.7       17.5     1013.4       20.7       19.9        0.0        0.0        0.0       0.00       15.4       0.00       0.00        0.0
2:18              186        0.0         86       19.9      267.6       19.9       22.7       17.5     1013.3       20.7       19.8        0.0        0.0        0.0       0.00       15.4       0.00       0.00        0.0
2:20              186        0.0         86       19.8      267.6       19.8       22.6       17.4     1013.3       20.7       19.8        0.0        0.0        0.0       0.00       15.4       0.00       0.00        0.0
2:22              186        0.0         86       19.8      267.6       19.8       22.6       17.4     1013.3       20.7       19.8        0.0        0.0        0.0       0.00       15.4       0.00       0.00        0.0
2:24              186        0.0         87       19.8      267.6       19.8       22.7       17.6     1013.3       20.7       19.8        0.0        0.0        0.0       0.00       15.4       0.00       0.00        0.0
2:26              186        0.0         87       19.8      267.6       19.8       22.7       17.6     1013.3       20.7       19.8        0.0        0.0        0.0       0.00       15.4       0.00       0.00        0.0
2:28              186        0.0         87       19.8      267.6       19.8       22.7       17.6     1013.3       20.7       19.8        0.0        0.0        0.0       0.00       15.4       0.00       0.00        0.0
2:30              186        0.0         87       19.8      267.6       19.8       22.7       17.6     1013.3       20.7       19.8        0.0        0.0        0.0       0.00       15.4       0.00       0.00        0.0
2:32              186        0.0         87       19.8      267.6       19.8       22.7       17.6     1013.3       20.7       19.8        0.0        0.0        0.0       0.00       15.4       0.00       0.00        0.0
2:34              186        0.0         87       19.8      267.6       19.8       22.7       17.6     1013.2       20.7       19.8        0.0        0.0        0.0       0.00       15.4       0.00       0.00        0.0
2:36              186        0.0         87       19.8      267.6       19.8       22.7       17.6     1013.2       20.7       19.8        0.0        0.0        0.0       0.00       15.4       0.00       0.00        0.0
2:38              186        0.0         87       19.8      267.6       19.8       22.7       17.6     1013.3       20.7       19.8        0.0        0.0        0.0       0.00       15.4       0.00       0.00        0.0
2:40              186        0.0         87       19.8      267.6       19.8       22.7       17.6     1013.3       20.7       19.8        0.0        0.0        0.0       0.00       15.4       0.00       0.00        0.0
2:42              186        0.0         87       19.8      267.6       19.8       22.7       17.6     1013.3       20.7       19.8        0.0        0.0        0.0       0.00       15.4       0.00       0.00        0.0
2:44              186        0.0         87       19.8      267.6       19.8       22.7       17.6     1013.4       20.7       19.8        0.0        0.0        0.0       0.00       15.4       0.00       0.00        0.0
2:46              186        0.0         87       19.8      267.6       19.8       22.7       17.6     1013.3       20.7       19.8        0.0        0.0        0.0       0.00       15.4       0.00       0.00        0.0
2:48              186        0.0         87       19.8      267.6       19.8       22.7       17.6     1013.3       20.7       19.8        0.0        0.0        0.0       0.00       15.4       0.00       0.00        0.0
2:50              186        0.0         87       19.8      267.6       19.8       22.7       17.6     1013.2       20.7       19.8        0.0        0.0        0.0       0.00       15.4       0.00       0.00        0.0
2:52              186        0.0         87       19.8      267.6       19.8       22.7       17.6     1013.2       20.7       19.8        0.0        0.0        0.0       0.00       15.4       0.00       0.00        0.0
2:54              186        0.0         87       19.7      267.6       19.7       22.6       17.5     1013.3       20.7       19.7        0.0        0.0        0.0       0.00       15.4       0.00       0.00        0.0
2:56              186        0.0         87       19.7      267.6       19.7       22.6       17.5     1013.3       20.7       19.7        0.0        0.0        0.0       0.00       15.4       0.00       0.00        0.0
2:58              186        0.0         87       19.7      267.6       19.7       22.6       17.5     1013.3       20.7       19.7        0.0        0.0        0.0       0.00       15.4       0.00       0.00        0.0
3:00              186        0.0         88       19.7      267.6       19.7       22.7       17.7     1013.1       20.7       19.7        0.0        0.0        0.0       0.00       15.4       0.00       0.00        0.0
3:02              186        0.0         88       19.7      267.6       19.7       22.7       17.7     1013.2       20.7       19.7        0.0        0.0        0.0       0.00       15.4       0.00       0.00        0.0
3:04              186        0.0         88       19.7      267.6       19.7       22.7       17.7     1013.1       20.7       19.7        0.0        0.0        0.0       0.00       15.4       0.00       0.00        0.0
3:06              186        0.0         88       19.7      267.6       19.7       22.7       17.7     1013.1       20.7       19.7        0.0        0.0        0.0       0.00       15.4       0.00       0.00        0.0
3:08              186        0.0         88       19.7      267.6       19.7       22.7       17.7     1013.2       20.7       19.7        0.0        0.0        0.0       0.00       15.4       0.00       0.00        0.0
3:10              186        0.0         88       19.7      267.6       19.7       22.7       17.7     1013.2       20.7       19.7        0.0        0.0        0.0       0.00       15.4       0.00       0.00        0.0
3:12              186        0.0         88       19.7      267.6       19.7       22.7       17.7     1013.2       20.7       19.7        0.0        0.0        0.0       0.00       15.5       0.00       0.00        0.0
3:14              186        0.0         88       19.7      267.6       19.7       22.6       17.6     1013.1       20.7       19.7        0.0        0.0        0.0       0.00       15.5       0.00       0.00        0.0
3:16              186        0.0         88       19.7      267.6       19.7       22.6       17.6     1013.1       20.7       19.7        0.0        0.0        0.0       0.00       15.6       0.00       0.00        0.0
3:18              186        0.0         88       19.7      267.6       19.7       22.6       17.6     1013.1       20.7       19.7        0.0        0.0        0.0       0.00       15.7       0.00       0.00        0.0
3:20              186        0.0         88       19.6      267.6       19.6       22.6       17.6     1013.2       20.7       19.6        0.0        0.0        0.0       0.00       15.7       0.00       0.00        0.0
3:22              186        0.0         88       19.6      267.6       19.6       22.6       17.6     1013.2       20.7       19.6        0.0        0.0        0.0       0.00       15.8       0.00       0.00        0.0
3:24              186        0.0         88       19.6      267.6       19.6       22.6       17.6     1013.3       20.7       19.6        0.0        0.0        0.0       0.00       15.8       0.00       0.00        0.0
3:26              186        0.0         88       19.6      267.6       19.6       22.6       17.6     1013.3       20.7       19.6        0.0        0.0        0.0       0.00       16.0       0.00       0.00        0.0
3:28              186        0.0         88       19.6      267.6       19.6       22.6       17.6     1013.3       20.7       19.6        0.0        0.0        0.0       0.00       16.0       0.00       0.00        0.0
3:30              186        0.0         88       19.6      267.6       19.6       22.6       17.6     1013.4       20.7       19.6        0.0        0.0        0.0       0.00       16.0       0.00       0.00        0.0
3:32              186        0.0         88       19.6      267.6       19.6       22.6       17.6     1013.3       20.7       19.6        0.0        0.0        0.0       0.00       16.1       0.00       0.00        0.0
3:34              186        0.0         88       19.7      267.6       19.7       22.6       17.6     1013.2       20.7       19.6        0.0        0.0        0.0       0.00       16.3       0.00       0.00        0.0
3:36              186        0.0         88       19.7      267.6       19.7       22.6       17.6     1013.2       20.7       19.6        0.0        0.0        0.0       0.00       16.5       0.00       0.00        0.0
3:38              186        0.0         88       19.7      267.6       19.7       22.6       17.6     1013.2       20.7       19.6        0.0        0.0        0.0       0.00       16.6       0.00       0.00        0.0
3:40              186        0.0         88       19.7      267.6       19.7       22.6       17.6     1013.2       20.7       19.6        0.0        0.0        0.0       0.00       16.7       0.00       0.00        0.0
3:42              186        0.0         88       19.7      267.6       19.7       22.6       17.6     1013.2       20.7       19.6        0.0        0.0        0.0       0.00       16.9       0.00       0.00        0.0
3:44              186        0.0         88       19.7      267.6       19.7       22.6       17.6     1013.2       20.7       19.6        0.0        0.0        0.0       0.00       17.1       0.00       0.00        0.0
3:46              186        0.0         88       19.7      267.6       19.7       22.6       17.6     1013.2       20.7       19.6        0.0        0.0        0.0       0.00       17.2       0.00       0.00        0.0
3:48              186        0.0         88       19.7      267.6       19.7       22.7       17.7     1013.3       20.7       19.6        0.0        0.0        0.0       0.00       17.4       0.00       0.00        0.0
3:50              186        0.0         88       19.7      267.6       19.7       22.7       17.7     1013.3       20.7       19.6        0.0        0.0        0.0       0.00       17.5       0.00       0.00        0.0
3:52              186        0.0         88       19.8      267.6       19.8       22.7       17.7     1013.3       20.7       19.6        0.0        0.0        0.0       0.00       17.7       0.00       0.00        0.0
3:54              186        0.0         88       19.8      267.6       19.8       22.7       17.7     1013.2       20.7       19.6        0.0        0.0        0.0       0.00       17.7       0.00       0.00        0.0
3:56              186        0.0         88       19.8      267.6       19.8       22.7       17.7     1013.2       20.7       19.6        0.0        0.0        0.0       0.00       17.9       0.00       0.00        0.0
3:58              186        0.0         88       19.8      267.6       19.8       22.7       17.7     1013.2       20.7       19.6        0.0        0.0        0.0       0.00       18.1       0.00       0.00        0.0
4:00              186        0.0         88       19.8      267.6       19.8       22.8       17.8     1013.2       20.7       19.6        0.0        0.0        0.0       0.00       18.2       0.00       0.00        0.0
4:02              186        0.0         88       19.8      267.6       19.8       22.8       17.8     1013.2       20.7       19.6        0.0        0.0        0.0       0.00       18.4       0.00       0.00        0.0
4:04              186        0.0         88       19.8      267.6       19.8       22.8       17.8     1013.2       20.7       19.6        0.0        0.0        0.0       0.00       18.6       0.00       0.00        0.0
4:06              186        0.0         88       19.9      267.6       19.9       22.9       17.8     1013.2       20.7       19.6        0.0        0.0        0.0       0.00       18.7       0.00       0.00        0.0
4:08              186        0.0         88       19.9      267.6       19.9       22.9       17.8     1013.1       20.7       19.6        0.0        0.0        0.0       0.00       18.8       0.00       0.00        0.0
4:10              186        0.0         88       19.9      267.6       19.9       22.9       17.8     1013.1       20.7       19.6        0.0        0.0        0.0       0.00       18.9       0.00       0.00        0.0
4:12              186        0.0         88       19.9      267.6       19.9       22.9       17.8     1013.2       20.7       19.6        0.0        0.0        0.0       0.00       19.0       0.00       0.00        0.0
4:14              186        0.0         88       19.9      267.6       19.9       22.9       17.8     1013.1       20.7       19.6        0.0        0.0        0.0       0.00       19.0       0.00       0.00        0.0
4:16              186        0.0         88       19.9      267.6       19.9       22.9       17.9     1013.2       20.7       19.6        0.0        0.0        0.0       0.00       19.1       0.00       0.00        0.0
4:18              186        0.0         88       19.9      267.6       19.9       22.9       17.9     1013.2       20.7       19.6        0.0        0.0        0.0       0.00       19.1       0.00       0.00        0.0
4:20              186        0.0         88       20.0      267.6       20.0       23.0       18.0     1013.2       20.7       19.6        0.0        0.0        0.0       0.00       19.3       0.00       0.00        0.0
4:22              186        0.0         88       20.0      267.6       20.0       23.0       18.0     1013.2       20.7       19.6        0.0        0.0        0.0       0.00       19.4       0.00       0.00        0.0
4:24              186        0.0         88       20.0      267.6       20.0       23.0       18.0     1013.2       20.7       19.6        0.0        0.0        0.0       0.00       19.4       0.00       0.00        0.0
4:26              186        0.0         88       20.1      267.6       20.1       23.0       18.0     1013.2       20.7       19.6        0.0        0.0        0.0       0.00       19.4       0.00       0.00        0.0
4:28              186        0.0         88       20.1      267.6       20.1       23.0       18.0     1013.2       20.7       19.6        0.0        0.0        0.0       0.00       19.6       0.00       0.00        0.0
4:30              186        0.0         88       20.1      267.6       20.1       23.1       18.1     1013.2       20.7       19.6        0.0        0.0        0.0       0.00       19.9       0.00       0.00        0.0
4:32              186        0.0         88       20.1      267.6       20.1       23.1       18.1     1013.2       20.7       19.6        0.0        0.0        0.0       0.00       19.9       0.00       0.00        0.0
4:34              186        0.0         88       20.1      267.6       20.1       23.1       18.1     1013.3       20.7       19.6        0.0        0.0        0.0       0.00       20.0       0.00       0.00        0.0
4:36              186        0.0         87       20.1      267.6       20.1       23.0       17.9     1013.3       20.7       19.6        0.0        0.0        0.0       0.00       20.1       0.00       0.00        0.0
4:38              186        0.0         87       20.1      267.6       20.1       23.0       17.9     1013.2       20.7       19.6        0.0        0.0        0.0       0.00       20.1       0.00       0.00        0.0
4:40              186        0.0         87       20.1      267.6       20.1       23.0       17.9     1013.3       20.7       19.6        0.0        0.0        0.0       0.00       20.1       0.00       0.00        0.0
4:42              186        0.0         87       20.1      267.6       20.1       23.0       17.9     1013.3       20.7       19.6        0.0        0.0        0.0       0.00       20.3       0.00       0.00        0.0
4:44              186        0.0         87       20.1      267.6       20.1       23.0       17.9     1013.4       20.7       19.6        0.0        0.0        0.0       0.00       20.3       0.00       0.00        0.0
4:46              186        0.0         87       20.1      267.6       20.1       23.0       17.9     1013.4       20.7       19.6        0.0        0.0        0.0       0.00       20.4       0.00       0.00        0.0
4:48              186        0.0         87       20.1      267.6       20.1       23.0       17.9     1013.4       20.7       19.6        0.0        0.0        0.0       0.00       20.4       0.00       0.00        0.0
4:50              186        0.0         87       20.1      267.6       20.1       23.0       17.9     1013.4       20.7       19.6        0.0        0.0        0.0       0.00       20.6       0.00       0.00        0.0
4:52              186        0.0         87       20.1      267.6       20.1       23.0       17.9     1013.4       20.7       19.6        0.0        0.0        0.0       0.00       20.7       0.00       0.00        0.0
4:54              186        0.0         87       20.2      267.6       20.2       23.1       17.9     1013.4       20.7       19.6        0.0        0.0        0.0       0.00       21.0       0.00       0.00        0.0
4:56              186        0.0         87       20.2      267.6       20.2       23.1       17.9     1013.4       20.7       19.6        0.0        0.0        0.0       0.00       21.1       0.00       0.00        0.0
4:58              186        0.0         87       20.2      267.6       20.2       23.1       17.9     1013.4       20.7       19.6        0.0        0.0        0.0       0.00       21.1       0.00       0.00        0.0
5:00              186        0.0         87       20.2      267.6       20.2       23.1       18.0     1013.4       20.7       19.6        0.0        0.0        0.0       0.00       21.1       0.00       0.00        0.0
5:02              186        0.0         87       20.2      267.6       20.2       23.1       18.0     1013.4       20.7       19.6        0.0        0.0        0.0       0.00       21.1       0.00       0.00        0.0
5:04              186        0.0         87       20.2      267.6       20.2       23.1       18.0     1013.4       20.7       19.6        0.0        0.0        0.0       0.00       21.4       0.00       0.00        0.0
5:06              186        0.0         87       20.3      267.6       20.3       23.2       18.0     1013.4       20.7       19.6        0.0        0.0        0.0       0.00       21.7       0.00       0.00        0.0
5:08              186        0.0         87       20.3      267.6       20.3       23.2       18.0     1013.4       20.7       19.6        0.0        0.0        0.0       0.00       22.0       0.00       0.00        0.0
5:10              186        0.0         87       20.3      267.6       20.3       23.2       18.0     1013.5       20.7       19.6        0.0        0.0        0.0       0.00       22.3       0.00       0.00        0.0
5:12              186        0.0         87       20.3      267.6       20.3       23.2       18.1     1013.5       20.7       19.6        0.0        0.0        0.0       0.00       22.6       0.00       0.00        0.0
5:14              186        0.0         87       20.3      267.6       20.3       23.2       18.1     1013.5       20.7       19.6        0.0        0.0        0.0       0.00       22.8       0.00       0.00        0.0
5:16              185        0.0         87       20.4      267.6       20.4       23.3       18.2     1013.5       20.7       19.6        0.0        0.0        0.0       0.00       23.1       0.00       0.00        0.0
5:18              185        0.0         87       20.4      267.6       20.4       23.3       18.2     1013.5       20.7       19.6        0.0        0.0        0.0       0.00       23.2       0.00       0.00        0.0
5:20              185        0.0         87       20.4      267.6       20.4       23.3       18.2     1013.6       20.7       19.6        0.0        0.0        0.0       0.00       23.6       0.00       0.00        0.0
5:22              185        0.0         87       20.4      267.6       20.4       23.3       18.2     1013.6       20.7       19.6        0.0        0.0        0.0       0.00       23.8       0.00       0.00        0.0
5:24              183        0.0         87       20.5      267.6       20.5       23.4       18.3     1013.6       20.7       19.6        0.0        0.0        0.0       0.00       24.2       0.00       0.00        0.0
5:26              182        0.0         87       20.4      267.6       20.4       23.3       18.2     1013.6       20.7       19.6        0.0        0.0        0.0       0.00       24.4       0.00       0.00        0.0
5:28              181        0.0         87       20.5      267.6       20.5       23.4       18.3     1013.6       20.7       19.6        0.0        0.0        0.0       0.00       24.8       0.00       0.00        0.0
5:30              181        0.0         86       20.5      267.6       20.5       23.3       18.1     1013.7       20.7       19.6        0.0        0.0        0.0       0.00       25.0       0.00       0.00        0.0
5:32              182        0.0         86       20.5      267.6       20.5       23.3       18.1     1013.7       20.7       19.6        0.0        0.0        0.0       0.00       25.3       0.00       0.00        0.0
5:34              181        0.0         86       20.5      267.6       20.5       23.3       18.1     1013.7       20.7       19.6        0.0        0.0        0.0       0.00       25.5       0.00       0.00        0.0
5:36              180        0.0         86       20.6      267.6       20.6       23.4       18.1     1013.7       20.7       19.6        0.0        0.0        0.0       0.00       25.8       0.00       0.00        0.0
5:38              176        0.0         86       20.6      267.6       20.6       23.4       18.1     1013.7       20.7       19.6        0.0        0.0        0.0       0.00       26.2       0.00       0.00        0.0
5:40              155        0.0         86       20.6      267.6       20.6       23.4       18.1     1013.8       20.7       19.6        0.0        0.0        0.0       0.00       26.6       0.00       0.00        0.0
5:42              140        0.0         86       20.6      267.6       20.6       23.4       18.1     1013.7       20.7       19.6        0.0        0.0        0.0       0.00       27.1       0.00       0.00        0.0
5:44              140        0.0         86       20.6      267.6       20.6       23.4       18.1     1013.7       20.7       19.6        0.0        0.0        0.0       0.00       27.3       0.00       0.00        0.0
5:46              140        0.0         86       20.6      267.6       20.6       23.4       18.1     1013.8       20.7       19.6        0.0        0.0        0.0       0.00       27.5       0.00       0.00        0.0
5:48              136        0.0         86       20.6      267.6       20.6       23.4       18.1     1013.8       20.7       19.6        0.0        0.0        0.0       0.00       27.9       0.00       0.00        0.0
5:50              136        0.0         86       20.6      267.6       20.6       23.4       18.1     1013.8       20.7       19.6        0.0        0.0        0.0       0.00       28.1       0.00       0.00        0.0
5:52              132        0.0         86       20.5      267.6       20.5       23.3       18.1     1013.8       20.7       19.6        0.0        0.0        0.0       0.00       28.5       0.00       0.00        0.0
5:54              132        0.0         86       20.5      267.6       20.5       23.3       18.1     1013.8       20.7       19.6        0.0        0.0        0.0       0.00       28.8       0.00       0.00        0.0
5:56              131        0.0         86       20.5      267.6       20.5       23.3       18.1     1013.8       20.7       19.6        0.0        0.0        0.0       0.00       29.0       0.00       0.00        0.0
5:58              131        0.0         86       20.6      267.6       20.6       23.4       18.1     1013.7       20.7       19.6        0.0        0.0        0.0       0.00       29.2       0.00       0.00        0.0
6:00              130        0.0         86       20.6      267.6       20.6       23.4       18.1     1013.8       20.7       19.6        0.0        0.0        0.0       0.00       29.5       0.00       0.00        0.0
6:02              130        0.0         86       20.6      267.6       20.6       23.4       18.1     1013.8       20.7       19.6        0.0        0.0        0.0       0.00       29.6       0.00       0.00        0.0
6:04              130        0.0         86       20.6      267.6       20.6       23.4       18.1     1013.8       20.7       19.6        0.0        0.0        0.0       0.00       29.6       0.00       0.00        0.0
6:06              130        0.0         86       20.6      267.6       20.6       23.4       18.1     1013.8       20.7       19.6        0.0        0.0        0.0       0.00       29.7       0.00       0.00        0.0
6:08              130        0.0         86       20.6      267.6       20.6       23.4       18.1     1013.8       20.7       19.6        0.0        0.0        0.0       0.00       29.8       0.00       0.00        0.0
6:10              130        0.0         86       20.6      267.6       20.6       23.4       18.1     1013.8       20.7       19.6        0.0        0.0        0.0       0.00       30.0       0.00       0.00        0.0
6:12              130        0.0         85       20.6      267.6       20.6       23.3       17.9     1013.9       20.7       19.6        0.0        0.0        0.0       0.00       30.3       0.00       0.00        0.0
6:14              130        0.0         85       20.6      267.6       20.6       23.3       17.9     1014.0       20.7       19.6        0.0        0.0        0.0       0.00       30.5       0.00       0.00        0.0
6:16              130        0.0         85       20.6      267.6       20.6       23.3       17.9     1013.9       20.7       19.6        0.0        0.0        0.0       0.00       30.8       0.00       0.00        0.0
6:18              130        0.0         85       20.6      267.6       20.6       23.3       17.9     1014.0       20.7       19.6        0.0        0.0        0.0       0.00       31.0       0.00       0.00        0.0
6:20              130        0.0         85       20.6      267.6       20.6       23.3       17.9     1014.0       20.7       19.6        0.0        0.0        0.0       0.00       31.1       0.00       0.00        0.0
6:22              130        0.0         85       20.6      267.6       20.6       23.3       18.0     1014.0       20.7       19.6        0.0        0.0        0.0       0.00       31.2       0.00       0.00        0.0
6:24              130        0.0         85       20.6      267.6       20.6       23.3       18.0     1014.1       20.7       19.6        0.0        0.0        0.0       0.00       31.3       0.00       0.00        0.0
6:26              130        0.0         85       20.6      267.6       20.6       23.3       18.0     1014.0       20.7       19.6        0.0        0.0        0.0       0.00       31.5       0.00       0.00        0.0
6:28              130        0.0         85       20.6      267.6       20.6       23.3       18.0     1014.1       20.7       19.6        0.0        0.0        0.0       0.00       31.7       0.00       0.00        0.0
6:30              130        0.0         85       20.6      267.6       20.6       23.3       18.0     1014.1       20.7       19.6        0.0        0.0        0.0       0.00       32.0       0.00       0.00        0.0
6:32              130        0.0         85       20.6      267.6       20.6       23.3       18.0     1014.1       20.7       19.6        0.0        0.0        0.0       0.00       32.2       0.00       0.00        0.0
6:34              130        0.0         85       20.7      267.6       20.7       23.4       18.1     1014.2       20.7       19.6        0.0        0.0        0.0       0.00       32.5       0.00       0.00        0.0
6:36              130        0.0         85       20.7      267.6       20.7       23.4       18.1     1014.2       20.7       19.6        0.0        0.0        0.0       0.00       32.8       0.00       0.00        0.0
6:38              130        0.0         85       20.7      267.6       20.7       23.4       18.1     1014.1       20.7       19.6        0.0        0.0        0.0       0.00       33.0       0.00       0.00        0.0
6:40              130        0.0         85       20.7      267.6       20.7       23.5       18.1     1014.1       20.7       19.6        0.0        0.0        0.0       0.00       33.3       0.00       0.00        0.0
6:42              130        0.0         85       20.7      267.6       20.7       23.5       18.1     1014.2       20.7       19.6        0.0        0.0        0.0       0.00       33.7       0.00       0.00        0.0
6:44              129        0.0         85       20.8      267.6       20.8       23.5       18.2     1014.2       20.8       19.6        0.0        0.0        0.0       0.00       33.9       0.00       0.00        0.0
6:46              129        0.0         85       20.8      267.6       20.8       23.5       18.2     1014.2       20.8       19.6        0.0        0.0        0.0       0.00       34.1       0.00       0.00        0.0
6:48              130        0.0         85       20.8      267.6       20.8       23.6       18.2     1014.2       20.8       19.6        0.0        0.0        0.0       0.00       34.3       0.00       0.00        0.0
6:50              129        0.0         85       20.8      267.6       20.8       23.6       18.2     1014.2       20.8       19.6        0.0        0.0        0.0       0.00       34.5       0.00       0.00        0.0
6:52              129        0.0         85       20.9      267.6       20.9       23.6       18.3     1014.2       20.9       19.6        0.0        0.0        0.0       0.00       34.7       0.00       0.00        0.0
6:54              129        0.0         85       20.9      267.6       20.9       23.6       18.3     1014.3       20.9       19.6        0.0        0.0        0.0       0.00       34.9       0.00       0.00        0.0
6:56              129        0.0         85       20.9      267.6       20.9       23.7       18.3     1014.3       20.9       19.6        0.0        0.0        0.0       0.00       35.1       0.00       0.00        0.0
6:58              129        0.0         85       21.0      267.6       21.0       23.7       18.4     1014.3       21.0       19.6        0.0        0.0        0.0       0.00       35.4       0.00       0.00        0.0
7:00              130        0.0         85       21.1      267.6       21.1       23.8       18.4     1014.3       21.1       19.6        0.0        0.0        0.0       0.00       35.5       0.00       0.00        0.0
7:02              129        0.0         85       21.1      267.6       21.1       23.8       18.5     1014.2       21.1       19.6        0.0        0.0        0.0       0.00       35.8       0.00       0.00        0.0
7:04              129        0.0         85       21.2      267.6       21.2       23.9       18.5     1014.4       21.2       19.6        0.0        0.0        0.0       0.00       36.1       0.00       0.00        0.0
7:06              129        0.0         84       21.2      267.6       21.2       23.9       18.4     1014.4       21.2       19.6        0.0        0.0        0.0       0.00       36.4       0.00       0.00        0.0
7:08              129        0.0         84       21.3      267.6       21.3       23.9       18.5     1014.4       21.3       19.6        0.0        0.0        0.0       0.00       36.6       0.00       0.00        0.0
7:10              129        0.0         84       21.3      267.6       21.3       24.0       18.5     1014.3       21.3       19.6        0.0        0.0        0.0       0.00       36.9       0.00       0.00        0.0
7:12              129        0.0         84       21.4      267.6       21.4       24.1       18.6     1014.3       21.4       19.6        0.0        0.0        0.0       0.00       37.1       0.00       0.00        0.0
7:14              130        0.0         83       21.4      267.6       21.4       24.0       18.4     1014.4       21.4       19.6        0.0        0.0        0.0       0.00       37.4       0.00       0.00        0.0
7:16              130        0.0         83       21.5      267.6       21.5       24.1       18.5     1014.3       21.5       19.6        0.0        0.0        0.0       0.00       37.5       0.00       0.00        0.0
7:18              130        0.0         83       21.5      267.6       21.5       24.1       18.5     1014.3       21.6       19.6        0.0        0.0        0.0       0.00       37.8       0.00       0.00        0.0
7:20              130        0.0         83       21.6      267.6       21.6       24.1       18.5     1014.4       21.6       19.6        0.0        0.0        0.0       0.00       38.1       0.00       0.00        0.0
7:22              130        0.0         83       21.6      267.6       21.6       24.2       18.6     1014.4       21.6       19.6        0.0        0.0        0.0       0.00       38.3       0.00       0.00        0.0
7:24              130        0.0         83       21.7      267.6       21.7       24.2       18.7     1014.4       21.7       19.6        0.0        0.0        0.0       0.00       38.6       0.00       0.00        0.0
7:26              130        0.0         82       21.7      267.6       21.7       24.2       18.5     1014.3       21.7       19.6        0.0        0.0        0.0       0.00       38.7       0.00       0.00        0.0
7:28              130        0.0         82       21.8      267.6       21.8       24.3       18.6     1014.4       21.8       19.6        0.0        0.0        0.0       0.00       38.8       0.00       0.00        0.0
7:30              130        0.0         82       21.8      267.6       21.8       24.3       18.6     1014.4       21.8       19.6        0.0        0.0        0.0       0.00       39.0       0.00       0.00        0.0
7:32              127        0.0         82       21.9      267.6       21.9       24.4       18.7     1014.5       21.9       19.6        0.0        0.0        0.0       0.00       39.3       0.00       0.00        0.0
7:34              127        0.0         81       22.0      267.6       22.0       24.4       18.6     1014.5       22.0       19.6        0.0        0.0        0.0       0.00       39.5       0.00       0.00        0.0
7:36              127        0.0         81       22.1      267.6       22.1       24.5       18.6     1014.4       22.1       19.6        0.0        0.0        0.0       0.00       39.8       0.00       0.00        0.0
7:38              130        0.0         81       22.1      267.6       22.1       24.5       18.7     1014.5       22.1       19.6        0.0        0.0        0.0       0.00       40.1       0.00       0.00        0.0
7:40              130        0.0         81       22.2      267.6       22.2       24.6       18.8     1014.6       22.2       19.6        0.0        0.0        0.0       0.00       40.4       0.00       0.00        0.0
7:42              130        0.0         80       22.2      267.6       22.2       24.6       18.6     1014.5       22.2       19.6        0.0        0.0        0.0       0.00       40.5       0.00       0.00        0.0
7:44              130        0.0         81       22.3      267.6       22.3       24.7       18.9     1014.6       22.3       19.6        0.0        0.0        0.0       0.00       40.7       0.00       0.00        0.0
7:46              130        0.0         81       22.3      267.6       22.3       24.8       18.9     1014.6       22.3       19.6        0.0        0.0        0.0       0.00       40.8       0.00       0.00        0.0
7:48              130        0.0         80       22.3      267.6       22.3       24.7       18.7     1014.7       22.4       19.6        0.0        0.0        0.0       0.00       41.1       0.00       0.00        0.0
7:50              130        0.0         80       22.4      267.6       22.4       24.7       18.8     1014.7       22.4       19.6        0.0        0.0        0.0       0.00       41.4       0.00       0.00        0.0
7:52              130        0.0         80       22.5      267.6       22.5       24.8       18.9     1014.6       22.5       19.6        0.0        0.0        0.0       0.00       41.7       0.00       0.00        0.0
7:54              130        0.0         79       22.6      267.6       22.6       24.8       18.7     1014.6       22.6       19.6        0.0        0.0        0.0       0.00       41.9       0.00       0.00        0.0
7:56              130        0.0         78       22.6      267.6       22.6       24.8       18.6     1014.6       22.6       19.6        0.0        0.0        0.0       0.00       42.1       0.00       0.00        0.0
7:58              130        0.0         78       22.7      267.6       22.7       24.9       18.6     1014.7       22.7       19.6        0.0        0.0        0.0       0.00       42.4       0.00       0.00        0.0
8:00              130        0.0         77       22.8      267.6       22.8       24.9       18.5     1014.6       22.8       19.6        0.0        0.0        0.0       0.00       42.7       0.00       0.00        0.0
8:02              130        0.0         77       22.8      267.6       22.8       25.0       18.6     1014.7       22.8       19.6        0.0        0.0        0.0       0.00       43.1       0.00       0.01        0.0
8:04              130        0.0         76       22.9      267.6       22.9       24.9       18.4     1014.7       22.9       19.6        0.0        0.0        0.0       0.00       43.4       0.00       0.01        0.0
8:06              130        0.0         76       23.0      267.6       23.0       25.1       18.5     1014.8       23.0       19.6        0.0        0.0        0.0       0.00       43.6       0.00       0.01        0.0
8:08              130        0.0         76       23.1      267.6       23.1       25.1       18.6     1014.9       23.1       19.6        0.0        0.0        0.0       0.00       43.8       0.00       0.01        0.0
8:10              130        0.0         76       23.1      267.6       23.1       25.2       18.7     1014.9       23.1       19.6        0.0        0.0        0.0       0.00       44.0       0.00       0.01        0.0
8:12              130        0.0         76       23.2      267.6       23.2       25.3       18.8     1014.9       23.2       19.6        0.0        0.0        0.0       0.00       44.0       0.00       0.01        0.0
8:14              130        0.0         75       23.3      267.6       23.3       25.3       18.6     1014.9       23.3       19.6        0.0        0.0        0.0       0.00       44.4       0.00       0.01        0.0
8:16              130        0.0         75       23.4      267.6       23.4       25.4       18.7     1014.9       23.4       19.6        0.0        0.0        0.0       0.00       44.7       0.00       0.03        0.0
8:18              130        0.0         74       23.4      267.6       23.4       25.4       18.5     1014.9       23.4       19.6        0.0        0.0        0.0       0.00       44.9       0.00       0.03        0.0
8:20              130        0.0         74       23.5      267.6       23.5       25.4       18.6     1014.9       23.5       19.6        0.0        0.0        0.0       0.00       45.1       0.00       0.03        0.0
8:22              130        0.0         74       23.6      267.6       23.6       25.5       18.7     1014.9       23.6       19.6        0.0        0.0        0.0       0.00       45.3       0.00       0.03        0.0
8:24              130        0.0         74       23.7      267.6       23.7       25.6       18.8     1014.9       23.7       19.6        0.0        0.0        0.0       0.00       45.4       0.00       0.03        0.0
8:26              130        0.0         73       23.7      267.6       23.7       25.6       18.6     1014.9       23.7       19.6        0.0        0.0        0.0       0.00       45.5       0.00       0.03        0.0
8:28              130        0.0         73       23.8      267.6       23.8       25.6       18.7     1014.9       23.8       19.6        0.0        0.0        0.0       0.00       45.8       0.00       0.03        0.0
8:30              130        0.0         73       23.8      267.6       23.8       25.7       18.7     1014.9       23.8       19.6        0.0        0.0        0.0       0.00       46.1       0.00       0.03        0.0
8:32              130        0.0         73       23.8      267.6       23.8       25.7       18.7     1014.9       23.8       19.6        0.0        0.0        0.0       0.00       46.3       0.00       0.04        0.0
8:34              130        0.0         73       23.9      267.6       23.9       25.7       18.8     1014.9       23.9       19.6        0.0        0.0        0.0       0.00       46.5       0.00       0.04        0.0
8:36              130        0.0         73       23.9      267.6       23.9       25.7       18.8     1014.9       23.9       19.6        0.0        0.0        0.0       0.00       46.5       0.00       0.04        0.0
8:38              130        0.0         73       23.9      267.6       23.9       25.8       18.8     1014.9       23.9       19.6        0.0        0.0        0.0       0.00       46.8       0.00       0.04        0.0
8:40              130        0.0         73       24.0      267.6       24.0       25.8       18.9     1014.9       24.0       19.6        0.0        0.0        0.0       0.00       47.1       0.00       0.04        0.0
8:42              130        0.0         73       24.1      267.6       24.1       25.9       18.9     1014.9       24.1       19.6        0.0        0.0        0.0       0.00       47.2       0.00       0.04        0.0
8:44              130        0.0         73       24.1      267.6       24.1       26.0       19.0     1014.9       24.1       19.6        0.0        0.0        0.0       0.00       47.2       0.00       0.04        0.0
8:46              130        0.0         72       24.1      267.6       24.1       25.9       18.8     1014.9       24.1       19.6        0.0        0.0        0.0       0.00       47.5       0.00       0.07        0.0
8:48              130        0.0         72       24.2      267.6       24.2       26.0       18.9     1014.9       24.2       19.6        0.0        0.0        0.0       0.00       47.8       0.00       0.07        0.0
8:50              130        0.0         72       24.3      267.6       24.3       26.1       18.9     1014.9       24.3       19.6        0.0        0.0        0.0       0.00       48.1       0.00       0.07        0.0
8:52              130        0.0         72       24.3      267.6       24.3       26.1       19.0     1014.9       24.3       19.6        0.0        0.0        0.0       0.00       48.4       0.00       0.07        0.0
8:54              130        0.0         71       24.4      267.6       24.4       26.1       18.8     1014.9       24.4       19.6        0.0        0.0        0.0       0.00       48.8       0.00       0.07        0.0
8:56              130        0.0         71       24.4      267.6       24.4       26.2       18.8     1014.8       24.4       19.6        0.0        0.0        0.0       0.00       48.8       0.00       0.07        0.0
8:58              130        0.0         71       24.4      267.6       24.4       26.2       18.8     1014.9       24.5       19.6        0.0        0.0        0.0       0.00       49.1       0.00       0.07        0.0
9:00              130        0.0         71       24.5      267.6       24.5       26.2       18.9     1014.8       24.5       19.6        0.0        0.0        0.0       0.00       49.3       0.00       0.07        0.0
9:02              130        0.0         71       24.6      267.6       24.6       26.3       19.0     1014.8       24.6       19.6        0.0        0.0        0.0       0.00       49.5       0.00       0.09        0.0
9:04              130        0.0         71       24.6      267.6       24.6       26.3       19.0     1014.8       24.6       19.6        0.0        0.0        0.0       0.00       49.8       0.00       0.09        0.0
9:06              130        0.0         71       24.7      267.6       24.7       26.4       19.1     1014.9       24.7       19.6        0.0        0.0        0.0       0.00       50.1       0.00       0.09        0.0
9:07              130        0.0         71       24.8      267.6       24.8       26.5       19.2     1014.9       24.8       19.6        0.0        0.0        0.0       0.00       50.3       0.00       0.09        0.0
9:10              130        0.0         70       24.9      267.6       24.9       26.5       19.0     1014.9       24.9       19.6        0.0        0.0        0.0       0.00       50.5       0.00       0.09        0.0
9:12              130        0.0         70       24.9      267.6       24.9       26.6       19.1     1014.8       24.9       19.6        0.0        0.0        0.0       0.00       50.6       0.00       0.09        0.0
9:14              130        0.0         69       25.1      267.6       25.1       26.6       19.0     1014.8       25.1       19.6        0.0        0.0        0.0       0.00       51.0       0.00       0.09        0.0
9:16              130        0.0         69       25.1      267.6       25.1       26.7       19.0     1014.9       25.1       19.6        0.0        0.0        0.0       0.00       51.2       0.00       0.12        0.0
9:18              130        0.0         69       25.2      267.6       25.2       26.7       19.1     1014.9       25.2       19.6        0.0        0.0        0.0       0.00       51.6       0.00       0.12        0.0
9:20              130        0.0         69       25.2      267.6       25.2       26.8       19.1     1014.9       25.2       19.6        0.0        0.0        0.0       0.00       51.7       0.00       0.12        0.0
9:22              130        0.0         68       25.3      267.6       25.3       26.8       19.0     1014.9       25.3       19.6        0.0        0.0        0.0       0.00       52.1       0.00       0.12        0.0
9:24              130        0.0         68       25.3      267.6       25.3       26.8       19.0     1014.9       25.3       19.6        0.0        0.0        0.0       0.00       52.4       0.00       0.12        0.0
9:25              130        0.0         68       25.3      267.6       25.3       26.8       19.0     1014.9       25.3       19.6        0.0        0.0        0.0       0.00       52.4       0.00       0.12        0.0
9:28              130        0.0         68       25.4      267.6       25.4       26.9       19.1     1014.9       25.4       19.6        0.0        0.0        0.0       0.00       52.6       0.00       0.12        0.0
9:30              132        0.0         67       25.4      267.6       25.4       26.9       18.9     1014.9       25.4       19.6        0.0        0.0        0.0       0.00       53.1       0.00       0.12        0.0
9:32              132        0.0         67       25.4      267.6       25.4       26.8       18.8     1014.9       25.4       19.6        0.0        0.0        0.0       0.00       53.2       0.00       0.16        0.0
9:34              132        0.0         67       25.4      267.6       25.4       26.8       18.8     1014.9       25.4       19.6        0.0        0.0        0.0       0.00       53.4       0.00       0.16        0.0
9:36              132        0.0         68       25.4      267.6       25.4       26.9       19.1     1014.9       25.4       19.6        0.0        0.0        0.0       0.00       53.5       0.00       0.16        0.0
9:38              132        0.0         68       25.5      267.6       25.5       27.0       19.2     1014.9       25.5       19.6        0.0        0.0        0.0       0.00       53.7       0.00       0.16        0.0
9:40              132        0.0         68       25.5      267.6       25.5       27.0       19.2     1014.9       25.5       19.6        0.0        0.0        0.0       0.00       53.7       0.00       0.16        0.0
9:42              132        0.0         67       25.6      267.6       25.6       27.1       19.0     1014.9       25.6       19.6        0.0        0.0        0.0       0.00       54.1       0.00       0.16        0.0
9:44              132        0.0         66       25.7      267.6       25.7       27.0       18.8     1014.9       25.7       19.6        0.0        0.0        0.0       0.00       54.5       0.00       0.16        0.0
9:46              132        0.0         66       25.7      267.6       25.7       27.1       18.9     1015.0       25.7       19.6        0.0        0.0        0.0       0.00       54.7       0.00       0.20        0.0
9:48              131        0.0         66       25.8      267.6       25.8       27.2       19.0     1014.9       25.8       19.6        0.0        0.0        0.0       0.00       55.2       0.00       0.20        0.0
9:50              131        0.0         65       25.9      267.6       25.9       27.2       18.8     1015.0       25.9       19.6        0.0        0.0        0.0       0.00       55.6       0.00       0.20        0.0
9:52              131        0.0         65       26.0      267.6       26.0       27.3       18.9     1014.9       26.0       19.6        0.0        0.0        0.0       0.00       55.9       0.00       0.20        0.0
9:54              131        0.0         64       26.1      267.6       26.1       27.3       18.7     1015.0       26.1       19.6        0.0        0.0        0.0       0.00       56.3       0.00       0.20        0.0
9:56              132        0.0         64       26.1      267.6       26.1       27.4       18.8     1014.9       26.1       19.6        0.0        0.0        0.0       0.00       56.4       0.00       0.20        0.0
9:58              132        0.0         63       26.2      267.6       26.2       27.4       18.6     1014.9       26.2       19.6        0.0        0.0        0.0       0.00       56.7       0.00       0.20        0.0
10:00             132        0.0         63       26.3      267.6       26.3       27.5       18.7     1014.9       26.3       19.6        0.0        0.0        0.0       0.00       56.9       0.00       0.20        0.0
10:02             132        0.0         62       26.3      267.6       26.3       27.5       18.5     1014.9       26.3       19.6        0.0        0.0        0.0       0.00       57.3       0.00       0.24        0.0
10:04             132        0.0         62       26.4      267.6       26.4       27.5       18.5     1014.9       26.4       19.6        0.0        0.0        0.0       0.00       57.7       0.00       0.24        0.0
10:06             132        0.0         62       26.5      267.6       26.5       27.6       18.6     1014.9       26.5       19.6        0.0        0.0        0.0       0.00       58.0       0.00       0.24        0.0
10:08             132        0.0         61       26.6      267.6       26.6       27.6       18.4     1014.9       26.6       19.6        0.0        0.0        0.0       0.00       58.2       0.00       0.24        0.0
10:10             132        0.0         61       26.6      267.6       26.6       27.7       18.5     1014.9       26.6       19.6        0.0        0.0        0.0       0.00       58.4       0.00       0.24        0.0
10:12             144        0.0         61       26.6      267.6       26.6       27.6       18.4     1015.0       26.6       19.6        0.0        0.0        0.0       0.00       58.9       0.00       0.24        0.0
10:14             151        0.0         61       26.5      267.6       26.5       27.6       18.4     1015.0       26.6       19.6        0.0        0.0        0.0       0.00       59.2       0.00       0.24        0.0
10:16             151        0.0         61       26.5      267.6       26.5       27.6       18.4     1014.9       26.6       19.6        0.0        0.0        0.0       0.00       59.3       0.00       0.29        0.0
10:18             151        0.0         62       26.5      267.6       26.5       27.6       18.6     1015.0       26.6       19.6        0.0        0.0        0.0       0.00       59.4       0.00       0.29        0.0
10:20             151        0.0         62       26.6      267.6       26.6       27.7       18.7     1014.9       26.6       19.6        0.0        0.0        0.0       0.00       59.6       0.00       0.29        0.0
10:22             151        0.0         62       26.6      267.6       26.6       27.7       18.7     1015.0       26.6       19.6        0.0        0.0        0.0       0.00       59.9       0.00       0.29        0.0
10:24             154        0.0         62       26.7      267.6       26.7       27.8       18.8     1015.0       26.7       19.6        0.0        0.0        0.0       0.00       60.2       0.00       0.29        0.0
10:26             155        0.0         61       26.7      267.6       26.7       27.7       18.5     1015.0       26.7       19.6        0.0        0.0        0.0       0.00       60.6       0.00       0.29        0.0
10:28             155        0.0         61       26.7      267.6       26.7       27.8       18.6     1014.9       26.7       19.6        0.0        0.0        0.0       0.00       60.9       0.00       0.29        0.0
10:30             157        0.0         61       26.8      267.6       26.8       27.9       18.6     1014.9       26.8       19.6        0.0        0.0        0.0       0.00       61.3       0.00       0.29        0.0
10:32             163        0.0         60       26.8      267.6       26.8       27.9       18.4     1015.0       26.8       19.6        0.0        0.0        0.0       0.00       61.7       0.00       0.34        0.0
10:34             163        0.0         59       26.8      267.6       26.8       27.7       18.1     1014.9       26.8       19.6        0.0        0.0        0.0       0.00       62.1       0.00       0.34        0.0
10:36             163        0.0         60       26.7      267.6       26.7       27.7       18.3     1014.9       26.8       19.6        0.0        0.0        0.0       0.00       62.3       0.00       0.34        0.0
10:38             169        0.0         61       26.7      267.6       26.7       27.7       18.5     1015.0       26.8       19.6        0.0        0.0        0.0       0.00       62.9       0.00       0.34        0.0
10:40             172        0.0         60       26.7      267.6       26.7       27.7       18.3     1014.9       26.8       19.6        0.0        0.0        0.0       0.00       63.4       0.00       0.34        0.0
10:42             172        0.0         60       26.7      267.6       26.7       27.7       18.3     1015.0       26.8       19.6        0.0        0.0        0.0       0.00       63.5       0.00       0.34        0.0
10:44             173        0.0         60       26.7      267.6       26.7       27.7       18.3     1014.9       26.8       19.6        0.0        0.0        0.0       0.00       63.7       0.00       0.34        0.0
10:46             175        0.0         60       26.7      267.6       26.7       27.7       18.3     1015.0       26.8       19.6        0.0        0.0        0.0       0.00       64.0       0.00       0.39        0.0
10:48             171        0.0         59       26.7      267.6       26.7       27.7       18.1     1014.9       26.8       19.6        0.0        0.0        0.0       0.00       64.4       0.00       0.39        0.0
10:50             171        0.0         59       26.8      267.6       26.8       27.8       18.2     1015.0       26.8       19.6        0.0        0.0        0.0       0.00       64.7       0.00       0.39        0.0
10:52             171        0.0         59       26.9      267.6       26.9       27.9       18.2     1014.9       26.9       19.6        0.0        0.0        0.0       0.00       64.7       0.00       0.39        0.0
10:54             171        0.0         60       27.0      267.6       27.0       28.1       18.6     1014.9       27.0       19.6        0.0        0.0        0.0       0.00       64.9       0.00       0.39        0.0
10:56             166        0.0         59       27.1      267.6       27.1       28.1       18.4     1015.0       27.1       19.6        0.0        0.0        0.0       0.00       65.4       0.00       0.39        0.0
10:58             167        0.0         58       27.3      267.6       27.3       28.3       18.3     1014.9       27.3       19.6        0.0        0.0        0.0       0.00       66.0       0.00       0.39        0.0
11:00             167        0.0         58       27.4      267.6       27.4       28.4       18.4     1014.7       27.4       19.6        0.0        0.0        0.0       0.00       66.5       0.00       0.39        0.0
11:02             167        0.0         57       27.5      267.6       27.5       28.5       18.2     1014.8       27.5       19.6        0.0        0.0        0.0       0.00       66.9       0.00       0.45        0.0
11:04             167        0.0         57       27.6      267.6       27.6       28.6       18.3     1014.8       27.6       19.6        0.0        0.0        0.0       0.00       67.3       0.00       0.45        0.0
11:06             174        0.0         56       27.7      267.6       27.7       28.6       18.1     1014.8       27.7       19.6        0.0        0.0        0.0       0.00       67.8       0.00       0.45        0.0
11:08             174        0.0         55       27.7      267.6       27.7       28.5       17.8     1014.8       27.7       19.6        0.0        0.0        0.0       0.00       68.0       0.00       0.45        0.0
11:10             175        0.0         56       27.7      267.6       27.7       28.6       18.1     1014.8       27.7       19.6        0.0        0.0        0.0       0.00       68.4       0.00       0.45        0.0
11:12             175        0.0         56       27.7      267.6       27.7       28.7       18.2     1014.8       27.7       19.6        0.0        0.0        0.0       0.00       68.7       0.00       0.45        0.0
11:14             175        0.0         55       27.8      267.6       27.8       28.6       17.9     1014.7       27.8       19.6        0.0        0.0        0.0       0.00       69.0       0.00       0.45        0.0
11:16             175        0.0         55       27.8      267.6       27.8       28.6       17.9     1014.7       27.8       19.6        0.0        0.0        0.0       0.00       69.3       0.00       0.51        0.0
11:18             167        0.0         56       27.7      267.6       27.7       28.7       18.2     1014.6       27.8       19.6        0.0        0.0        0.0       0.00       69.9       0.00       0.51        0.0
11:20             168        0.0         56       27.7      267.6       27.7       28.6       18.1     1014.7       27.8       19.6        0.0        0.0        0.0       0.00       70.3       0.00       0.51        0.0
11:22             168        0.0         57       27.6      267.6       27.6       28.6       18.3     1014.6       27.8       19.6        0.0        0.0        0.0       0.00       70.5       0.00       0.51        0.0
11:24             168        0.0         57       27.6      267.6       27.6       28.6       18.3     1014.6       27.8       19.6        0.0        0.0        0.0       0.00       70.7       0.00       0.51        0.0
11:26             165        0.0         57       27.7      267.6       27.7       28.7       18.4     1014.6       27.8       19.6        0.0        0.0        0.0       0.00       71.1       0.00       0.51        0.0
11:28             175        0.0         57       27.8      267.6       27.8       28.8       18.5     1014.6       27.8       19.6        0.0        0.0        0.0       0.00       71.8       0.00       0.51        0.0
11:30             176        0.0         56       27.8      267.6       27.8       28.8       18.3     1014.5       27.8       19.6        0.0        0.0        0.0       0.00       72.2       0.00       0.51        0.0
11:32             191        0.0         57       27.9      267.6       27.9       29.0       18.6     1014.5       27.9       19.6        0.0        0.0        0.0       0.00       72.7       0.00       0.57        0.0
11:34             190        0.0         55       27.9      267.6       27.9       28.9       18.1     1014.5       27.9       19.6        0.0        0.0        0.0       0.00       73.1       0.00       0.57        0.0
11:36             190        0.0         55       28.0      267.6       28.0       28.9       18.1     1014.4       28.0       19.6        0.0        0.0        0.0       0.00       73.3       0.00       0.57        0.0
11:38             190        0.0         55       28.1      267.6       28.1       29.0       18.2     1014.3       28.1       19.6        0.0        0.0        0.0       0.00       73.4       0.00       0.57        0.0
11:40             206        0.0         54       28.1      267.6       28.1       29.0       17.9     1014.4       28.1       19.6        0.0        0.0        0.0       0.00       73.9       0.00       0.57        0.0
11:42             202        0.0         53       28.1      267.6       28.1       28.9       17.6     1014.4       28.1       19.6        0.0        0.0        0.0       0.00       74.4       0.00       0.57        0.0
11:44             196        0.0         53       28.2      267.6       28.2       28.9       17.7     1014.4       28.2       19.6        0.0        0.0        0.0       0.00       74.8       0.00       0.57        0.0
11:46             196        0.0         53       28.2      267.6       28.2       28.9       17.7     1014.4       28.2       19.6        0.0        0.0        0.0       0.00       75.0       0.00       0.63        0.0
11:48             194        0.0         53       28.3      267.6       28.3       29.1       17.8     1014.4       28.3       19.6        0.0        0.0        0.0       0.00       75.3       0.00       0.63        0.0
11:50             194        0.0         52       28.3      267.6       28.3       29.0       17.5     1014.3       28.3       19.6        0.0        0.0        0.0       0.00       75.7       0.00       0.63        0.0
11:52             193        0.0         52       28.4      267.6       28.4       29.2       17.6     1014.3       28.4       19.6        0.0        0.0        0.0       0.00       75.8       0.00       0.63        0.0
11:54             185        0.0         52       28.5      267.6       28.5       29.2       17.7     1014.3       28.5       19.6        0.0        0.0        0.0       0.00       76.3       0.00       0.63        0.0
11:56             185        0.0         52       28.6      267.6       28.6       29.4       17.8     1014.3       28.6       19.6        0.0        0.0        0.0       0.00       76.5       0.00       0.63        0.0
11:58             184        0.0         52       28.6      267.6       28.6       29.4       17.8     1014.2       28.6       19.6        0.0        0.0        0.0       0.00       76.8       0.00       0.63        0.0
12:00             182        0.0         52       28.7      267.6       28.7       29.5       17.9     1014.2       28.7       19.6        0.0        0.0        0.0       0.00       77.2       0.00       0.63        0.0
12:02             182        0.0         51       28.7      267.6       28.7       29.4       17.6     1014.2       28.7       19.6        0.0        0.0        0.0       0.00       77.6       0.00       0.70        0.0
12:04             195        0.0         50       28.7      267.6       28.7       29.3       17.3     1014.2       28.7       19.6        0.0        0.0        0.0       0.00       78.0       0.00       0.70        0.0
12:06             224        0.0         51       28.6      267.6       28.6       29.3       17.5     1014.2       28.7       19.6        0.0        0.0        0.0       0.00       78.4       0.00       0.70        0.0
12:08             224        0.0         51       28.4      267.6       28.4       29.1       17.3     1014.2       28.7       19.6        0.0        0.0        0.0       0.00       78.5       0.00       0.70        0.0
12:10             224        0.0         51       28.4      267.6       28.4       29.0       17.3     1014.1       28.7       19.6        0.0        0.0        0.0       0.00       78.8       0.00       0.70        0.0
12:12             224        0.0         51       28.5      267.6       28.5       29.1       17.4     1014.1       28.7       19.6        0.0        0.0        0.0       0.00       79.0       0.00       0.70        0.0
12:14             224        0.0         51       28.6      267.6       28.6       29.2       17.4     1014.1       28.7       19.6        0.0        0.0        0.0       0.00       79.0       0.00       0.70        0.0
12:16             222        0.0         51       28.6      267.6       28.6       29.3       17.5     1014.0       28.7       19.6        0.0        0.0        0.0       0.00       79.1       0.00       0.77        0.0
12:18             212        0.0         51       28.7      267.6       28.7       29.4       17.6     1014.0       28.7       19.6        0.0        0.0        0.0       0.00       79.5       0.00       0.77        0.0
12:20             212        0.0         50       28.8      267.6       28.8       29.4       17.4     1014.1       28.8       19.6        0.0        0.0        0.0       0.00       79.9       0.00       0.77        0.0
12:22             212        0.0         50       29.0      267.6       29.0       29.7       17.5     1014.0       29.0       19.6        0.0        0.0        0.0       0.00       80.2       0.00       0.77        0.0
12:24             212        0.0         50       29.1      267.6       29.1       29.8       17.6     1013.9       29.1       19.6        0.0        0.0        0.0       0.00       80.3       0.00       0.77        0.0
12:26             213        0.0         50       29.2      267.6       29.2       29.9       17.7     1014.0       29.2       19.6        0.0        0.0        0.0       0.00       80.7       0.00       0.77        0.0
12:28             213        0.0         50       29.1      267.6       29.1       29.8       17.6     1013.9       29.2       19.6        0.0        0.0        0.0       0.00       80.8       0.00       0.77        0.0
12:30             199        0.0         51       29.2      267.6       29.2       30.0       18.0     1013.9       29.2       19.6        0.0        0.0        0.0       0.00       81.4       0.00       0.77        0.0
12:32             194        0.0         51       29.2      267.6       29.2       30.0       18.0     1014.0       29.2       19.6        0.0        0.0        0.0       0.00       81.8       0.00       0.84        0.0
12:34             183        0.0         51       29.3      267.6       29.3       30.2       18.1     1013.9       29.3       19.6        0.0        0.0        0.0       0.00       82.4       0.00       0.84        0.0
12:36             191        0.0         50       29.3      267.6       29.3       30.1       17.8     1014.0       29.3       19.6        0.0        0.0        0.0       0.00       83.0       0.00       0.84        0.0
12:38             191        0.0         50       29.4      267.6       29.4       30.2       17.9     1013.9       29.4       19.6        0.0        0.0        0.0       0.00       83.1       0.00       0.84        0.0
12:40             191        0.0         50       29.5      267.6       29.5       30.3       18.0     1013.8       29.5       19.6        0.0        0.0        0.0       0.00       83.1       0.00       0.84        0.0
12:42             191        0.0         50       29.6      267.6       29.6       30.5       18.1     1013.8       29.6       19.6        0.0        0.0        0.0       0.00       83.4       0.00       0.84        0.0
12:44             186        0.0         49       29.7      267.6       29.7       30.5       17.9     1013.7       29.7       19.6        0.0        0.0        0.0       0.00       83.7       0.00       0.84        0.0
12:46             173        0.0         49       29.9      267.6       29.9       30.7       18.0     1013.7       29.9       19.6        0.0        0.0        0.0       0.00       84.2       0.00       0.92        0.0
12:48             173        0.0         49       30.0      267.6       30.0       30.9       18.1     1013.7       30.0       19.6        0.0        0.0        0.0       0.00       84.5       0.00       0.92        0.0
12:50             173        0.0         49       30.1      267.6       30.1       31.0       18.2     1013.7       30.1       19.6        0.0        0.0        0.0       0.00       84.6       0.00       0.92        0.0
12:52             173        0.0         49       30.2      267.6       30.2       31.2       18.3     1013.7       30.2       19.6        0.0        0.0        0.0       0.00       84.8       0.00       0.92        0.0
12:54             173        0.0         49       30.4      267.6       30.4       31.5       18.5     1013.6       30.4       19.6        0.0        0.0        0.0       0.00       85.2       0.00       0.92        0.0
12:56             174        0.0         48       30.5      267.6       30.5       31.5       18.3     1013.6       30.5       19.6        0.0        0.0        0.0       0.00       85.5       0.00       0.92        0.0
12:58             180        0.0         48       30.5      267.6       30.5       31.5       18.3     1013.6       30.5       19.6        0.0        0.0        0.0       0.00       86.0       0.00       0.92        0.0
13:00             175        0.0         48       30.6      267.6       30.6       31.5       18.3     1013.6       30.6       19.6        0.0        0.0        0.0       0.00       86.4       0.00       0.92        0.0
13:02             174        0.0         48       30.6      267.6       30.6       31.6       18.4     1013.6       30.6       19.6        0.0        0.0        0.0       0.00       86.8       0.00       1.01        0.0
13:04             173        0.0         48       30.7      267.6       30.7       31.7       18.4     1013.6       30.7       19.6        0.0        0.0        0.0       0.00       87.2       0.00       1.01        0.0
13:06             174        0.0         48       30.8      267.6       30.8       31.9       18.5     1013.6       30.8       19.6        0.0        0.0        0.0       0.00       87.8       0.00       1.01        0.0
13:08             174        0.0         48       30.8      267.6       30.8       32.0       18.6     1013.6       30.8       19.6        0.0        0.0        0.0       0.00       88.1       0.00       1.01        0.0
13:10             174        0.0         47       30.9      267.6       30.9       31.9       18.3     1013.5       30.9       19.6        0.0        0.0        0.0       0.00       88.5       0.00       1.01        0.0
13:12             174        0.0         47       31.0      267.6       31.0       32.1       18.4     1013.5       31.0       19.6        0.0        0.0        0.0       0.00       88.9       0.00       1.01        0.0
13:14             172        0.0         47       31.1      267.6       31.1       32.1       18.4     1013.6       31.1       19.6        0.0        0.0        0.0       0.00       89.3       0.00       1.01        0.0
13:16             172        0.0         46       31.1      267.6       31.1       32.0       18.1     1013.6       31.1       19.6        0.0        0.0        0.0       0.00       89.9       0.00       1.11        0.0
13:18             178        0.0         46       31.2      267.6       31.2       32.2       18.2     1013.5       31.2       19.6        0.0        0.0        0.0       0.00       90.6       0.00       1.11        0.0
13:20             168        0.0         46       31.3      267.6       31.3       32.3       18.3     1013.5       31.3       19.6        0.0        0.0        0.0       0.00       91.3       0.00       1.11        0.0
13:22             168        0.0         45       31.3      267.6       31.3       32.2       18.0     1013.5       31.4       19.6        0.0        0.0        0.0       0.00       91.4       0.00       1.11        0.0
13:24             167        0.0         45       31.4      267.6       31.4       32.3       18.0     1013.5       31.4       19.6        0.0        0.0        0.0       0.00       91.6       0.00       1.11        0.0
13:26             169        0.0         45       31.4      267.6       31.4       32.4       18.1     1013.5       31.4       19.6        0.0        0.0        0.0       0.00       92.3       0.00       1.11        0.0
13:28             169        0.0         45       31.5      267.6       31.5       32.5       18.1     1013.5       31.5       19.6        0.0        0.0        0.0       0.00       92.8       0.00       1.11        0.0
13:30             169        0.0         45       31.5      267.6       31.5       32.5       18.1     1013.5       31.5       19.6        0.0        0.0        0.0       0.00       92.9       0.00       1.11        0.0
13:32             168        0.0         45       31.5      267.6       31.5       32.5       18.1     1013.4       31.5       19.6        0.0        0.0        0.0       0.00       93.4       0.00       1.21        0.0
13:34             167        0.0         45       31.6      267.6       31.6       32.6       18.2     1013.4       31.6       19.6        0.0        0.0        0.0       0.00       93.8       0.00       1.21        0.0
13:36             167        0.0         44       31.7      267.6       31.7       32.5       17.9     1013.4       31.7       19.6        0.0        0.0        0.0       0.00       94.0       0.00       1.21        0.0
13:38             167        0.0         44       31.8      267.6       31.8       32.7       18.0     1013.4       31.8       19.6        0.0        0.0        0.0       0.00       94.2       0.00       1.21        0.0
13:40             165        0.0         45       31.8      267.6       31.8       33.0       18.4     1013.3       31.8       19.6        0.0        0.0        0.0       0.00       94.7       0.00       1.21        0.0
13:42             162        0.0         44       31.9      267.6       31.9       32.9       18.1     1013.4       31.9       19.6        0.0        0.0        0.0       0.00       95.3       0.00       1.21        0.0
13:44             162        0.0         43       31.9      267.6       31.9       32.8       17.8     1013.3       31.9       19.6        0.0        0.0        0.0       0.00       95.6       0.00       1.21        0.0
13:46             162        0.0         44       31.8      267.6       31.8       32.8       18.1     1013.3       31.9       19.6        0.0        0.0        0.0       0.00       95.8       0.00       1.31        0.0
13:48             166        0.0         43       31.6      267.6       31.6       32.2       17.5     1013.2       31.9       19.6        0.0        0.0        0.0       0.00       96.3       0.00       1.31        0.0
13:50             176        0.0         44       31.4      267.6       31.4       32.1       17.7     1013.3       31.9       19.6        0.0        0.0        0.0       0.00       96.7       0.00       1.31        0.0
13:52             176        0.0         43       31.2      267.6       31.2       31.7       17.2     1013.2       31.9       19.6        0.0        0.0        0.0       0.00       96.7       0.00       1.31        0.0
13:54             176        0.0         44       31.2      267.6       31.2       31.8       17.5     1013.1       31.9       19.6        0.0        0.0        0.0       0.00       96.9       0.00       1.31        0.0
13:56             176        0.0         44       31.2      267.6       31.2       31.9       17.5     1013.0       31.9       19.6        0.0        0.0        0.0       0.00       97.0       0.00       1.31        0.0
13:58             177        0.0         44       31.2      267.6       31.2       31.9       17.5     1013.1       31.9       19.6        0.0        0.0        0.0       0.00       97.4       0.00       1.31        0.0
14:00             178        0.0         43       31.2      267.6       31.2       31.6       17.1     1013.1       31.9       19.6        0.0        0.0        0.0       0.00       98.0       0.00       1.31        0.0
14:01             185        0.0         43       31.2      267.6       31.2       31.6       17.1     1013.1       31.9       19.6        0.0        0.0        0.0       0.00       98.6       0.00       1.41        0.0
14:04             185        0.0         44       31.2      267.6       31.2       31.9       17.5     1013.0       31.9       19.6        0.0        0.0        0.0       0.00       98.6       0.00       1.41        0.0
14:06             186        0.0         44       31.3      267.6       31.3       32.0       17.6     1013.0       31.9       19.6        0.0        0.0        0.0       0.00       98.9       0.00       1.41        0.0
14:08             189        0.0         43       31.4      267.6       31.4       31.9       17.3     1013.0       31.9       19.6        0.0        0.0        0.0       0.00       99.5       0.00       1.41        0.0
14:10             189        0.0         44       31.4      267.6       31.4       32.1       17.7     1012.9       31.9       19.6        0.0        0.0        0.0       0.00       99.7       0.00       1.41        0.0
14:12             188        0.0         43       31.5      267.6       31.5       32.1       17.4     1012.9       31.9       19.6        0.0        0.0        0.0       0.00      100.1       0.00       1.41        0.0
14:14             188        0.0         44       31.7      267.6       31.7       32.5       17.9     1012.8       31.9       19.6        0.0        0.0        0.0       0.00      100.5       0.00       1.41        0.0
14:16             191        0.0         44       31.8      267.6       31.8       32.8       18.1     1012.9       31.9       19.6        0.0        0.0        0.0       0.00      101.0       0.00       1.51        0.0
14:18             191        0.0         44       31.9      267.6       31.9       32.9       18.1     1012.8       31.9       19.6        0.0        0.0        0.0       0.00      101.4       0.00       1.51        0.0
14:20             190        0.0         44       32.0      267.6       32.0       33.0       18.2     1012.8       32.0       19.6        0.0        0.0        0.0       0.00      102.0       0.00       1.51        0.0
14:22             189        0.0         44       32.0      267.6       32.0       33.0       18.2     1012.8       32.0       19.6        0.0        0.0        0.0       0.00      102.4       0.00       1.51        0.0
14:24             204        0.0         45       32.1      267.6       32.1       33.3       18.6     1012.7       32.1       19.6        0.0        0.0        0.0       0.00      103.1       0.00       1.51        0.0
14:26             200        0.0         45       32.0      267.6       32.0       33.2       18.6     1012.7       32.1       19.6        0.0        0.0        0.0       0.00      103.3       0.00       1.51        0.0
14:28             200        0.0         46       32.1      267.6       32.1       33.5       19.0     1012.6       32.1       19.6        0.0        0.0        0.0       0.00      103.6       0.00       1.51        0.0
14:30             200        0.0         45       32.1      267.6       32.1       33.4       18.7     1012.6       32.1       19.6        0.0        0.0        0.0       0.00      103.8       0.00       1.51        0.0
14:32             200        0.0         46       32.2      267.6       32.2       33.8       19.1     1012.6       32.2       19.6        0.0        0.0        0.0       0.00      104.1       0.00       1.61        0.0
14:34             192        0.0         46       32.3      267.6       32.3       34.0       19.2     1012.6       32.3       19.6        0.0        0.0        0.0       0.00      104.5       0.00       1.61        0.0
14:36             190        0.0         46       32.4      267.6       32.4       34.1       19.3     1012.6       32.4       19.6        0.0        0.0        0.0       0.00      105.0       0.00       1.61        0.0
14:38             188        0.0         46       32.5      267.6       32.5       34.3       19.4     1012.6       32.5       19.6        0.0        0.0        0.0       0.00      105.5       0.00       1.61        0.0
14:40             185        0.0         46       32.6      267.6       32.6       34.5       19.5     1012.6       32.6       19.6        0.0        0.0        0.0       0.00      106.1       0.00       1.61        0.0
14:42             185        0.0         46       32.7      267.6       32.7       34.7       19.6     1012.6       32.7       19.6        0.0        0.0        0.0       0.00      106.8       0.00       1.61        0.0
14:44             186        0.0         46       32.7      267.6       32.7       34.7       19.6     1012.6       32.7       19.6        0.0        0.0        0.0       0.00      107.3       0.00       1.61        0.0
14:45             176        0.0         47       32.7      267.6       32.7       34.9       19.9     1012.6       32.7       19.6        0.0        0.0        0.0       0.00      108.2       0.00       1.72        0.0
14:48             176        0.0         45       32.8      267.6       32.8       34.6       19.3     1012.5       32.8       19.6        0.0        0.0        0.0       0.00      109.0       0.00       1.72        0.0
14:50             175        0.0         46       32.8      267.6       32.8       34.8       19.6     1012.6       32.8       19.6        0.0        0.0        0.0       0.00      109.8       0.00       1.72        0.0
14:52             175        0.0         46       32.8      267.6       32.8       34.8       19.6     1012.5       32.8       19.6        0.0        0.0        0.0       0.00      110.3       0.00       1.72        0.0
14:54             178        0.0         48       32.8      267.6       32.8       35.3       20.3     1012.5       32.8       19.6        0.0        0.0        0.0       0.00      111.6       0.00       1.72        0.0
14:56             196        0.0         48       32.7      267.6       32.7       35.2       20.3     1012.5       32.8       19.6        0.0        0.0        0.0       0.00      112.5       0.00       1.72        0.0
14:58             182        0.0         48       32.6      267.6       32.6       34.9       20.1     1012.4       32.8       19.6        0.0        0.0        0.0       0.00      113.4       0.00       1.72        0.0
15:00             192        0.0         48       32.4      267.6       32.4       34.6       20.0     1012.5       32.8       19.6        0.0        0.0        0.0       0.00      114.3       0.00       1.72        0.0
15:02             189        0.0         49       32.2      267.6       32.2       34.4       20.1     1012.4       32.8       19.6        0.0        0.0        0.0       0.00      115.1       0.00       1.83        0.0
15:04             180        0.0         49       31.9      267.6       31.9       34.0       19.9     1012.4       32.8       19.6        0.0        0.0        0.0       0.00      116.1       0.00       1.83        0.0
15:06             190        0.0         49       31.8      267.6       31.8       33.7       19.8     1012.4       32.8       19.6        0.0        0.0        0.0       0.00      116.7       0.00       1.83        0.0
15:08             197        0.0         50       31.7      267.6       31.7       33.8       20.0     1012.4       32.8       19.6        0.0        0.0        0.0       0.00      117.3       0.00       1.83        0.0
15:10             189        0.0         50       31.6      267.6       31.6       33.7       19.9     1012.4       32.8       19.6        0.0        0.0        0.0       0.00      117.8       0.00       1.83        0.0
15:12             186        0.0         50       31.6      267.6       31.6       33.7       19.9     1012.3       32.8       19.6        0.0        0.0        0.0       0.00      118.3       0.00       1.83        0.0
15:14             185        0.0         49       31.7      267.6       31.7       33.6       19.7     1012.3       32.8       19.6        0.0        0.0        0.0       0.00      118.9       0.00       1.83        0.0
15:16             175        0.0         49       31.8      267.6       31.8       33.7       19.8     1012.2       32.8       19.6        0.0        0.0        0.0       0.00      119.7       0.00       1.93        0.0
15:18             182        0.0         50       31.9      267.6       31.9       34.2       20.2     1012.4       32.8       19.6        0.0        0.0        0.0       0.00      120.6       0.00       1.93        0.0
15:20             188        0.0         50       31.9      267.6       31.9       34.3       20.2     1012.3       32.8       19.6        0.0        0.0        0.0       0.00      121.4       0.00       1.93        0.0
15:22             178        0.0         50       32.0      267.6       32.0       34.4       20.3     1012.3       32.8       19.6        0.0        0.0        0.0       0.00      122.3       0.00       1.93        0.0
15:24             175        0.0         49       32.0      267.6       32.0       34.1       20.0     1012.3       32.8       19.6        0.0        0.0        0.0       0.00      123.0       0.00       1.93        0.0
15:26             173        0.0         50       32.1      267.6       32.1       34.5       20.3     1012.1       32.8       19.6        0.0        0.0        0.0       0.00      123.7       0.00       1.93        0.0
15:28             182        0.0         50       32.1      267.6       32.1       34.6       20.4     1012.2       32.8       19.6        0.0        0.0        0.0       0.00      124.5       0.00       1.93        0.0
15:30             176        0.0         49       32.2      267.6       32.2       34.4       20.1     1012.2       32.8       19.6        0.0        0.0        0.0       0.00      125.6       0.00       1.93        0.0
15:32             196        0.0         49       32.1      267.6       32.1       34.3       20.1     1012.1       32.8       19.6        0.0        0.0        0.0       0.00      126.3       0.00       2.04        0.0
15:34             196        0.0         49       32.1      267.6       32.1       34.2       20.0     1012.0       32.8       19.6        0.0        0.0        0.0       0.00      126.7       0.00       2.04        0.0
15:36             188        0.0         49       32.0      267.6       32.0       34.1       20.0     1012.0       32.8       19.6        0.0        0.0        0.0       0.00      127.3       0.00       2.04        0.0
15:38             215        0.0         49       31.9      267.6       31.9       34.0       19.9     1012.0       32.8       19.6        0.0        0.0        0.0       0.00      128.3       0.00       2.04        0.0
15:40             191        0.0         50       31.8      267.6       31.8       34.1       20.1     1012.0       32.8       19.6        0.0        0.0        0.0       0.00      129.0       0.00       2.04        0.0
15:41             180        0.0         50       31.8      267.6       31.8       34.0       20.1     1012.0       32.8       19.6        0.0        0.0        0.0       0.00      129.9       0.00       2.04        0.0
15:44             176        0.0         50       31.8      267.6       31.8       34.0       20.1     1011.9       32.8       19.6        0.0        0.0        0.0       0.00      131.1       0.00       2.04        0.0
15:46             199        0.0         51       31.8      267.6       31.8       34.2       20.4     1011.9       32.8       19.6        0.0        0.0        0.0       0.00      131.7       0.00       2.14        0.0
15:48             203        0.0         50       31.8      267.6       31.8       34.0       20.1     1011.9       32.8       19.6        0.0        0.0        0.0       0.00      132.3       0.00       2.14        0.0
15:50             198        0.0         50       31.7      267.6       31.7       33.9       20.0     1011.9       32.8       19.6        0.0        0.0        0.0       0.00      133.0       0.00       2.14        0.0
15:52             195        0.0         51       31.7      267.6       31.7       34.0       20.3     1011.8       32.8       19.6        0.0        0.0        0.0       0.00      133.7       0.00       2.14        0.0
15:54             174        0.0         51       31.6      267.6       31.6       33.8       20.2     1011.8       32.8       19.6        0.0        0.0        0.0       0.00      134.6       0.00       2.14        0.0
15:56             171        0.0         51       31.5      267.6       31.5       33.7       20.1     1011.8       32.8       19.6        0.0        0.0        0.0       0.00      135.6       0.00       2.14        0.0
15:58             180        0.0         51       31.6      267.6       31.6       33.8       20.2     1011.9       32.8       19.6        0.0        0.0        0.0       0.00      136.5       0.00       2.14        0.0
16:00             181        0.0         52       31.6      267.6       31.6       34.0       20.5     1011.7       32.8       19.6        0.0        0.0        0.0       0.00      137.5       0.00       2.14        0.0
16:01             184        0.0         52       31.6      267.6       31.6       34.0       20.5     1011.7       32.8       19.6        0.0        0.0        0.0       0.00      138.5       0.00       2.24        0.0
16:04             198        0.0         52       31.6      267.6       31.6       34.0       20.5     1011.8       32.8       19.6        0.0        0.0        0.0       0.00      139.2       0.00       2.24        0.0
16:05             186        0.0         52       31.6      267.6       31.6       34.0       20.5     1011.7       32.8       19.6        0.0        0.0        0.0       0.00      140.0       0.00       2.24        0.0
16:08             204        0.0         52       31.5      267.6       31.5       33.9       20.5     1011.7       32.8       19.6        0.0        0.0        0.0       0.00      140.7       0.00       2.24        0.0
16:10             188        0.0         52       31.5      267.6       31.5       33.9       20.5     1011.7       32.8       19.6        0.0        0.0        0.0       0.00      141.7       0.00       2.24        0.0
16:12             180        0.0         51       31.5      267.6       31.5       33.7       20.1     1011.8       32.8       19.6        0.0        0.0        0.0       0.00      142.8       0.00       2.24        0.0
16:14             179        0.0         52       31.4      267.6       31.4       33.8       20.4     1011.8       32.8       19.6        0.0        0.0        0.0       0.00      144.0       0.00       2.24        0.0
16:16             207        0.0         51       31.4      267.6       31.4       33.6       20.1     1011.8       32.8       19.6        0.0        0.0        0.0       0.00      144.8       0.00       2.34        0.0
16:18             180        0.0         51       31.4      267.6       31.4       33.5       20.0     1011.8       32.8       19.6        0.0        0.0        0.0       0.00      145.5       0.00       2.34        0.0
16:20             184        0.0         52       31.4      267.6       31.4       33.7       20.4     1011.8       32.8       19.6        0.0        0.0        0.0       0.00      146.4       0.00       2.34        0.0
16:22             178        0.0         52       31.4      267.6       31.4       33.8       20.4     1011.7       32.8       19.6        0.0        0.0        0.0       0.00      147.6       0.00       2.34        0.0
16:24             210        0.0         51       31.5      267.6       31.5       33.7       20.1     1011.7       32.8       19.6        0.0        0.0        0.0       0.00      148.3       0.00       2.34        0.0
16:25             210        0.0         50       31.5      267.6       31.5       33.5       19.8     1011.7       32.8       19.6        0.0        0.0        0.0       0.00      148.9       0.00       2.34        0.0
16:28             196        0.0         50       31.5      267.6       31.5       33.5       19.8     1011.7       32.8       19.6        0.0        0.0        0.0       0.00      149.7       0.00       2.34        0.0
16:30             200        0.0         50       31.5      267.6       31.5       33.5       19.8     1011.7       32.8       19.6        0.0        0.0        0.0       0.00      150.3       0.00       2.34        0.0
16:32             205        0.0         51       31.4      267.6       31.4       33.6       20.1     1011.7       32.8       19.6        0.0        0.0        0.0       0.00      151.1       0.00       2.44        0.0
16:34             195        0.0         51       31.4      267.6       31.4       33.5       20.0     1011.6       32.8       19.6        0.0        0.0        0.0       0.00      151.7       0.00       2.44        0.0
16:36             180        0.0         51       31.4      267.6       31.4       33.5       20.0     1011.7       32.8       19.6        0.0        0.0        0.0       0.00      152.5       0.00       2.44        0.0
16:38             181        0.0         51       31.4      267.6       31.4       33.5       20.0     1011.6       32.8       19.6        0.0        0.0        0.0       0.00      153.1       0.00       2.44        0.0
16:40             216        0.0         51       31.4      267.6       31.4       33.5       20.0     1011.7       32.8       19.6        0.0        0.0        0.0       0.00      154.0       0.00       2.44        0.0
16:42             196        0.0         52       31.4      267.6       31.4       33.7       20.4     1011.7       32.8       19.6        0.0        0.0        0.0       0.00      154.7       0.00       2.44        0.0
16:44             182        0.0         52       31.4      267.6       31.4       33.8       20.4     1011.6       32.8       19.6        0.0        0.0        0.0       0.00      155.3       0.00       2.44        0.0
16:46             200        0.0         51       31.5      267.6       31.5       33.7       20.1     1011.7       32.8       19.6        0.0        0.0        0.0       0.00      155.9       0.00       2.54        0.0
16:48             205        0.0         51       31.5      267.6       31.5       33.7       20.1     1011.6       32.8       19.6        0.0        0.0        0.0       0.00      156.7       0.00       2.54        0.0
16:50             194        0.0         51       31.5      267.6       31.5       33.7       20.1     1011.7       32.8       19.6        0.0        0.0        0.0       0.00      157.5       0.00       2.54        0.0
16:52             175        0.0         51       31.5      267.6       31.5       33.7       20.1     1011.7       32.8       19.6        0.0        0.0        0.0       0.00      158.6       0.00       2.54        0.0
16:54             175        0.0         51       31.6      267.6       31.6       33.8       20.2     1011.6       32.8       19.6        0.0        0.0        0.0       0.00      159.6       0.00       2.54        0.0
16:56             184        0.0         51       31.6      267.6       31.6       33.9       20.2     1011.6       32.8       19.6        0.0        0.0        0.0       0.00      160.4       0.00       2.54        0.0
16:58             198        0.0         50       31.6      267.6       31.6       33.6       19.9     1011.6       32.8       19.6        0.0        0.0        0.0       0.00      161.2       0.00       2.54        0.0
17:00             175        0.0         51       31.5      267.6       31.5       33.7       20.1     1011.6       32.8       19.6        0.0        0.0        0.0       0.00      162.2       0.00       2.54        0.0
17:02             184        0.0         51       31.4      267.6       31.4       33.5       20.0     1011.6       32.8       19.6        0.0        0.0        0.0       0.00      163.2       0.00       2.63        0.0
17:04             194        0.0         51       31.4      267.6       31.4       33.5       20.0     1011.6       32.8       19.6        0.0        0.0        0.0       0.00      164.1       0.00       2.63        0.0
17:06             192        0.0         51       31.3      267.6       31.3       33.4       20.0     1011.6       32.8       19.6        0.0        0.0        0.0       0.00      164.9       0.00       2.63        0.0
17:08             201        0.0         52       31.3      267.6       31.3       33.5       20.3     1011.6       32.8       19.6        0.0        0.0        0.0       0.00      165.6       0.00       2.63        0.0
17:10             179        0.0         51       31.2      267.6       31.2       33.2       19.9     1011.6       32.8       19.6        0.0        0.0        0.0       0.00      166.5       0.00       2.63        0.0
17:12             189        0.0         52       31.2      267.6       31.2       33.3       20.2     1011.6       32.8       19.6        0.0        0.0        0.0       0.00      167.4       0.00       2.63        0.0
17:14             171        0.0         53       31.1      267.6       31.1       33.4       20.4     1011.6       32.8       19.6        0.0        0.0        0.0       0.00      168.6       0.00       2.63        0.0
17:15             167        0.0         53       31.1      267.6       31.1       33.4       20.4     1011.6       32.8       19.6        0.0        0.0        0.0       0.00      169.7       0.00       2.73        0.0
17:18             175        0.0         53       31.1      267.6       31.1       33.4       20.4     1011.6       32.8       19.6        0.0        0.0        0.0       0.00      171.2       0.00       2.73        0.0
17:20             182        0.0         53       31.1      267.6       31.1       33.3       20.4     1011.6       32.8       19.6        0.0        0.0        0.0       0.00      172.3       0.00       2.73        0.0
17:22             186        0.0         53       31.1      267.6       31.1       33.3       20.4     1011.6       32.8       19.6        0.0        0.0        0.0       0.00      173.0       0.00       2.73        0.0
17:24             175        0.0         53       31.1      267.6       31.1       33.3       20.4     1011.6       32.8       19.6        0.0        0.0        0.0       0.00      174.0       0.00       2.73        0.0
17:26             165        0.0         53       31.0      267.6       31.0       33.2       20.3     1011.7       32.8       19.6        0.0        0.0        0.0       0.00      175.0       0.00       2.73        0.0
17:28             186        0.0         53       30.9      267.6       30.9       33.1       20.3     1011.6       32.8       19.6        0.0        0.0        0.0       0.00      175.9       0.00       2.73        0.0
17:30             202        0.0         53       30.9      267.6       30.9       33.0       20.2     1011.6       32.8       19.6        0.0        0.0        0.0       0.00      176.5       0.00       2.73        0.0
17:32             212        0.0         52       30.8      267.6       30.8       32.7       19.8     1011.6       32.8       19.6        0.0        0.0        0.0       0.00      177.2       0.00       2.82        0.0
17:34             240        0.0         51       30.9      267.6       30.9       32.6       19.6     1011.6       32.8       19.6        0.0        0.0        0.0       0.00      178.0       0.00       2.82        0.0
17:36             225        0.0         51       30.9      267.6       30.9       32.6       19.6     1011.6       32.8       19.6        0.0        0.0        0.0       0.00      178.9       0.00       2.82        0.0
17:38             236        0.0         52       30.8      267.6       30.8       32.7       19.8     1011.6       32.8       19.6        0.0        0.0        0.0       0.00      179.5       0.00       2.82        0.0
17:39             205        0.0         52       30.8      267.6       30.8       32.6       19.8     1011.6       32.8       19.6        0.0        0.0        0.0       0.00      180.3       0.00       2.82        0.0
17:42             215        0.0         52       30.7      267.6       30.7       32.5       19.7     1011.6       32.8       19.6        0.0        0.0        0.0       0.00      181.1       0.00       2.82        0.0
17:44             214        0.0         52       30.7      267.6       30.7       32.4       19.7     1011.6       32.8       19.6        0.0        0.0        0.0       0.00      181.9       0.00       2.82        0.0
17:46             220        0.0         52       30.6      267.6       30.6       32.4       19.6     1011.6       32.8       19.6        0.0        0.0        0.0       0.00      182.7       0.00       2.91        0.0
17:48             230        0.0         52       30.6      267.6       30.6       32.3       19.6     1011.6       32.8       19.6        0.0        0.0        0.0       0.00      183.6       0.00       2.91        0.0
17:50             230        0.0         52       30.4      267.6       30.4       32.1       19.5     1011.6       32.8       19.6        0.0        0.0        0.0       0.00      184.5       0.00       2.91        0.0
17:52             221        0.0         53       30.3      267.6       30.3       32.1       19.7     1011.6       32.8       19.6        0.0        0.0        0.0       0.00      185.4       0.00       2.91        0.0
17:53             220        0.0         53       30.3      267.6       30.3       32.0       19.6     1011.6       32.8       19.6        0.0        0.0        0.0       0.00      186.0       0.00       2.91        0.0
17:56             232        0.0         53       30.2      267.6       30.2       31.9       19.6     1011.6       32.8       19.6        0.0        0.0        0.0       0.00      186.8       0.00       2.91        0.0
17:58             238        0.0         53       30.2      267.6       30.2       31.8       19.5     1011.6       32.8       19.6        0.0        0.0        0.0       0.00      187.7       0.00       2.91        0.0
18:00             227        0.0         53       30.1      267.6       30.1       31.6       19.4     1011.6       32.8       19.6        0.0        0.0        0.0       0.00      188.5       0.00       2.91        0.0
18:02             230        0.0         53       30.0      267.6       30.0       31.5       19.4     1011.6       32.8       19.6        0.0        0.0        0.0       0.00      189.3       0.00       3.00        0.0
18:04             220        0.0         53       29.9      267.6       29.9       31.4       19.3     1011.6       32.8       19.6        0.0        0.0        0.0       0.00      190.3       0.00       3.00        0.0
18:05             224        0.0         54       29.8      267.6       29.8       31.4       19.5     1011.7       32.8       19.6        0.0        0.0        0.0       0.00      191.4       0.00       3.00        0.0
18:08             222        0.0         54       29.7      267.6       29.7       31.2       19.4     1011.6       32.8       19.6        0.0        0.0        0.0       0.00      192.2       0.00       3.00        0.0
18:10             227        0.0         54       29.6      267.6       29.6       31.1       19.3     1011.6       32.8       19.6        0.0        0.0        0.0       0.00      192.8       0.00       3.00        0.0
18:12             193        0.0         54       29.6      267.6       29.6       31.1       19.3     1011.6       32.8       19.6        0.0        0.0        0.0       0.00      193.6       0.00       3.00        0.0
18:14             207        0.0         54       29.6      267.6       29.6       31.0       19.3     1011.6       32.8       19.6        0.0        0.0        0.0       0.00      194.3       0.00       3.00        0.0
18:16             213        0.0         54       29.6      267.6       29.6       31.0       19.3     1011.6       32.8       19.6        0.0        0.0        0.0       0.00      195.1       0.00       3.07        0.0
18:18             219        0.0         54       29.5      267.6       29.5       30.9       19.2     1011.7       32.8       19.6        0.0        0.0        0.0       0.00      195.7       0.00       3.07        0.0
18:20             226        0.0         54       29.5      267.6       29.5       30.9       19.2     1011.7       32.8       19.6        0.0        0.0        0.0       0.00      196.4       0.00       3.07        0.0
18:22             234        0.0         54       29.4      267.6       29.4       30.7       19.1     1011.7       32.8       19.6        0.0        0.0        0.0       0.00      197.0       0.00       3.07        0.0
18:24             223        0.0         54       29.3      267.6       29.3       30.7       19.1     1011.7       32.8       19.6        0.0        0.0        0.0       0.00      197.7       0.00       3.07        0.0
18:26             221        0.0         55       29.3      267.6       29.3       30.7       19.3     1011.7       32.8       19.6        0.0        0.0        0.0       0.00      198.2       0.00       3.07        0.0
18:28             224        0.0         54       29.2      267.6       29.2       30.5       19.0     1011.7       32.8       19.6        0.0        0.0        0.0       0.00      198.7       0.00       3.07        0.0
18:30             231        0.0         54       29.2      267.6       29.2       30.4       18.9     1011.6       32.8       19.6        0.0        0.0        0.0       0.00      199.7       0.00       3.07        0.0
18:32             216        0.0         55       29.1      267.6       29.1       30.4       19.1     1011.7       32.8       19.6        0.0        0.0        0.0       0.00      200.4       0.00       3.15        0.0
18:34             220        0.0         55       28.9      267.6       28.9       30.2       19.0     1011.7       32.8       19.6        0.0        0.0        0.0       0.00      201.4       0.00       3.15        0.0
18:36             227        0.0         55       28.8      267.6       28.8       30.1       18.9     1011.8       32.8       19.6        0.0        0.0        0.0       0.00      202.2       0.00       3.15        0.0
18:38             209        0.0         55       28.7      267.6       28.7       29.9       18.8     1011.7       32.8       19.6        0.0        0.0        0.0       0.00      203.1       0.00       3.15        0.0
18:40             216        0.0         55       28.6      267.6       28.6       29.7       18.7     1011.9       32.8       19.6        0.0        0.0        0.0       0.00      204.0       0.00       3.15        0.0
18:42             226        0.0         56       28.5      267.6       28.5       29.7       18.9     1011.9       32.8       19.6        0.0        0.0        0.0       0.00      204.9       0.00       3.15        0.0
18:43             217        0.0         56       28.4      267.6       28.4       29.6       18.8     1011.8       32.8       19.6        0.0        0.0        0.0       0.00      205.6       0.00       3.15        0.0
18:46             227        0.0         56       28.3      267.6       28.3       29.5       18.7     1011.9       32.8       19.6        0.0        0.0        0.0       0.00      206.2       0.00       3.22        0.0
18:48             221        0.0         56       28.2      267.6       28.2       29.3       18.6     1012.0       32.8       19.6        0.0        0.0        0.0       0.00      207.0       0.00       3.22        0.0
18:49             205        0.0         57       28.1      267.6       28.1       29.3       18.8     1011.9       32.8       19.6        0.0        0.0        0.0       0.00      207.8       0.00       3.22        0.0
18:52             229        0.0         57       28.1      267.6       28.1       29.2       18.7     1011.9       32.8       19.6        0.0        0.0        0.0       0.00      208.5       0.00       3.22        0.0
18:54             221        0.0         57       27.9      267.6       27.9       29.1       18.6     1012.1       32.8       19.6        0.0        0.0        0.0       0.00      209.3       0.00       3.22        0.0
18:56             240        0.0         58       27.8      267.6       27.8       28.9       18.8     1012.0       32.8       19.6        0.0        0.0        0.0       0.00      210.1       0.00       3.22        0.0
18:58             217        0.0         58       27.7      267.6       27.7       28.8       18.7     1012.0       32.8       19.6        0.0        0.0        0.0       0.00      210.8       0.00       3.22        0.0
19:00             223        0.0         59       27.6      267.6       27.6       28.8       18.9     1012.1       32.8       19.6        0.0        0.0        0.0       0.00      211.3       0.00       3.22        0.0
19:02             211        0.0         59       27.5      267.6       27.5       28.6       18.8     1012.2       32.8       19.6        0.0        0.0        0.0       0.00      211.8       0.00       3.27        0.0
19:04             213        0.0         59       27.4      267.6       27.4       28.6       18.7     1012.1       32.8       19.6        0.0        0.0        0.0       0.00      212.2       0.00       3.27        0.0
19:06             204        0.0         59       27.4      267.6       27.4       28.5       18.7     1012.1       32.8       19.6        0.0        0.0        0.0       0.00      212.8       0.00       3.27        0.0
19:08             209        0.0         60       27.3      267.6       27.3       28.4       18.8     1012.3       32.8       19.6        0.0        0.0        0.0       0.00      213.3       0.00       3.27        0.0
19:10             211        0.0         60       27.2      267.6       27.2       28.4       18.8     1012.4       32.8       19.6        0.0        0.0        0.0       0.00      213.8       0.00       3.27        0.0
19:12             207        0.0         60       27.1      267.6       27.1       28.2       18.7     1012.4       32.8       19.6        0.0        0.0        0.0       0.00      214.4       0.00       3.27        0.0
19:14             207        0.0         61       27.1      267.6       27.1       28.2       18.9     1012.4       32.8       19.6        0.0        0.0        0.0       0.00      214.9       0.00       3.27        0.0
19:16             219        0.0         61       26.9      267.6       26.9       28.1       18.8     1012.5       32.8       19.6        0.0        0.0        0.0       0.00      215.6       0.00       3.33        0.0
19:18             219        0.0         61       26.9      267.6       26.9       28.0       18.7     1012.5       32.8       19.6        0.0        0.0        0.0       0.00      216.6       0.00       3.33        0.0
19:20             224        0.0         61       26.8      267.6       26.8       27.9       18.6     1012.5       32.8       19.6        0.0        0.0        0.0       0.00      217.4       0.00       3.33        0.0
19:22             228        0.0         62       26.7      267.6       26.7       27.8       18.8     1012.6       32.8       19.6        0.0        0.0        0.0       0.00      217.9       0.00       3.33        0.0
19:24             219        0.0         62       26.6      267.6       26.6       27.7       18.7     1012.5       32.8       19.6        0.0        0.0        0.0       0.00      218.4       0.00       3.33        0.0
19:26             214        0.0         63       26.5      267.6       26.5       27.7       18.9     1012.6       32.8       19.6        0.0        0.0        0.0       0.00      219.1       0.00       3.33        0.0
19:28             217        0.0         63       26.4      267.6       26.4       27.6       18.8     1012.5       32.8       19.6        0.0        0.0        0.0       0.00      219.7       0.00       3.33        0.0
19:30             217        0.0         64       26.3      267.6       26.3       27.5       18.9     1012.5       32.8       19.6        0.0        0.0        0.0       0.00      220.4       0.00       3.33        0.0
19:32             213        0.0         64       26.2      267.6       26.2       27.4       18.8     1012.5       32.8       19.6        0.0        0.0        0.0       0.00      221.1       0.00       3.37        0.0
19:34             218        0.0         64       26.0      267.6       26.0       27.3       18.7     1012.5       32.8       19.6        0.0        0.0        0.0       0.00      221.8       0.00       3.37        0.0
19:36             230        0.0         65       25.8      267.6       25.8       27.1       18.8     1012.5       32.8       19.6        0.0        0.0        0.0       0.00      222.5       0.00       3.37        0.0
19:38             227        0.0         66       25.7      267.6       25.7       27.0       18.8     1012.5       32.8       19.6        0.0        0.0        0.0       0.00      223.2       0.00       3.37        0.0
19:39             219        0.0         66       25.6      267.6       25.6       26.9       18.7     1012.6       32.8       19.6        0.0        0.0        0.0       0.00      223.8       0.00       3.37        0.0
19:42             228        0.0         67       25.4      267.6       25.4       26.9       18.9     1012.6       32.8       19.6        0.0        0.0        0.0       0.00      224.6       0.00       3.37        0.0
19:44             225        0.0         67       25.3      267.6       25.3       26.8       18.8     1012.6       32.8       19.6        0.0        0.0        0.0       0.00      225.4       0.00       3.37        0.0
19:45             227        0.0         68       25.2      267.6       25.2       26.7       18.8     1012.6       32.8       19.6        0.0        0.0        0.0       0.00      226.2       0.00       3.40        0.0
19:48             226        0.0         68       25.1      267.6       25.1       26.6       18.8     1012.6       32.8       19.6        0.0        0.0        0.0       0.00      227.0       0.00       3.40        0.0
19:50             233        0.0         69       24.9      267.6       24.9       26.5       18.9     1012.6       32.8       19.6        0.0        0.0        0.0       0.00      227.8       0.00       3.40        0.0
19:52             229        0.0         69       24.9      267.6       24.9       26.5       18.8     1012.7       32.8       19.6        0.0        0.0        0.0       0.00      228.4       0.00       3.40        0.0
19:54             219        0.0         69       24.8      267.6       24.8       26.4       18.7     1012.8       32.8       19.6        0.0        0.0        0.0       0.00      229.3       0.00       3.40        0.0
19:56             219        0.0         70       24.7      267.6       24.7       26.4       18.9     1012.8       32.8       19.6        0.0        0.0        0.0       0.00      229.9       0.00       3.40        0.0
19:58             228        0.0         70       24.6      267.6       24.6       26.3       18.8     1012.8       32.8       19.6        0.0        0.0        0.0       0.00      230.6       0.00       3.40        0.0
20:00             223        0.0         70       24.5      267.6       24.5       26.1       18.7     1012.7       32.8       19.6        0.0        0.0        0.0       0.00      231.4       0.00       3.40        0.0
20:01             223        0.0         71       24.4      267.6       24.4       26.2       18.8     1012.8       32.8       19.6        0.0        0.0        0.0       0.00      232.0       0.00       3.43        0.0
20:04             224        0.0         71       24.3      267.6       24.3       26.0       18.7     1012.8       32.8       19.6        0.0        0.0        0.0       0.00      232.7       0.00       3.43        0.0
20:06             228        0.0         71       24.3      267.6       24.3       26.0       18.7     1012.9       32.8       19.6        0.0        0.0        0.0       0.00      233.2       0.00       3.43        0.0
20:08             225        0.0         71       24.2      267.6       24.2       25.9       18.6     1012.9       32.8       19.6        0.0        0.0        0.0       0.00      233.7       0.00       3.43        0.0
20:10             228        0.0         71       24.2      267.6       24.2       25.9       18.6     1012.9       32.8       19.6        0.0        0.0        0.0       0.00      234.3       0.00       3.43        0.0
20:12             224        0.0         71       24.1      267.6       24.1       25.8       18.5     1012.9       32.8       19.6        0.0        0.0        0.0       0.00      235.2       0.00       3.43        0.0
20:14             229        0.0         71       24.1      267.6       24.1       25.8       18.5     1012.9       32.8       19.6        0.0        0.0        0.0       0.00      235.9       0.00       3.43        0.0
20:15             230        0.0         72       24.0      267.6       24.0       25.8       18.6     1012.9       32.8       19.6        0.0        0.0        0.0       0.00      236.5       0.00       3.45        0.0
20:17             232        0.0         71       23.9      267.6       23.9       25.7       18.4     1013.1       32.8       19.6        0.0        0.0        0.0       0.00      237.2       0.00       3.45        0.0
20:20             225        0.0         71       23.9      267.6       23.9       25.6       18.3     1013.1       32.8       19.6        0.0        0.0        0.0       0.00      238.0       0.00       3.45        0.0
20:22             225        0.0         71       23.8      267.6       23.8       25.5       18.3     1013.2       32.8       19.6        0.0        0.0        0.0       0.00      238.4       0.00       3.45        0.0
20:24             225        0.0         71       23.8      267.6       23.8       25.5       18.3     1013.2       32.8       19.6        0.0        0.0        0.0       0.00      238.8       0.00       3.45        0.0
20:26             225        0.0         71       23.8      267.6       23.8       25.5       18.2     1013.1       32.8       19.6        0.0        0.0        0.0       0.00      239.3       0.00       3.45        0.0
20:27             226        0.0         71       23.8      267.6       23.8       25.5       18.2     1013.2       32.8       19.6        0.0        0.0        0.0       0.00      239.9       0.00       3.45        0.0
20:30             225        0.0         71       23.7      267.6       23.7       25.4       18.2     1013.2       32.8       19.6        0.0        0.0        0.0       0.00      240.4       0.00       3.45        0.0
20:32             225        0.0         71       23.7      267.6       23.7       25.4       18.2     1013.2       32.8       19.6        0.0        0.0        0.0       0.00      240.9       0.00       3.47        0.0
20:34             226        0.0         70       23.7      267.6       23.7       25.4       17.9     1013.2       32.8       19.6        0.0        0.0        0.0       0.00      241.5       0.00       3.47        0.0
20:36             226        0.0         70       23.7      267.6       23.7       25.3       17.9     1013.2       32.8       19.6        0.0        0.0        0.0       0.00      242.1       0.00       3.47        0.0
20:38             226        0.0         70       23.7      267.6       23.7       25.3       17.9     1013.3       32.8       19.6        0.0        0.0        0.0       0.00      242.6       0.00       3.47        0.0
20:40             227        0.0         70       23.7      267.6       23.7       25.3       17.9     1013.3       32.8       19.6        0.0        0.0        0.0       0.00      243.0       0.00       3.47        0.0
20:41             223        0.0         70       23.6      267.6       23.6       25.3       17.8     1013.3       32.8       19.6        0.0        0.0        0.0       0.00      243.6       0.00       3.47        0.0
20:44             220        0.0         70       23.6      267.6       23.6       25.3       17.8     1013.3       32.8       19.6        0.0        0.0        0.0       0.00      244.1       0.00       3.47        0.0
20:46             221        0.0         70       23.6      267.6       23.6       25.3       17.8     1013.4       32.8       19.6        0.0        0.0        0.0       0.00      244.6       0.00       3.49        0.0
20:48             223        0.0         70       23.6      267.6       23.6       25.2       17.8     1013.4       32.8       19.6        0.0        0.0        0.0       0.00      245.1       0.00       3.49        0.0
20:50             224        0.0         70       23.5      267.6       23.5       25.1       17.7     1013.4       32.8       19.6        0.0        0.0        0.0       0.00      245.5       0.00       3.49        0.0
20:52             223        0.0         70       23.5      267.6       23.5       25.1       17.7     1013.5       32.8       19.6        0.0        0.0        0.0       0.00      245.8       0.00       3.49        0.0
20:54             223        0.0         70       23.4      267.6       23.4       25.1       17.7     1013.5       32.8       19.6        0.0        0.0        0.0       0.00      246.3       0.00       3.49        0.0
20:56             223        0.0         71       23.4      267.6       23.4       25.2       17.9     1013.5       32.8       19.6        0.0        0.0        0.0       0.00      246.6       0.00       3.49        0.0
20:58             223        0.0         71       23.4      267.6       23.4       25.1       17.8     1013.5       32.8       19.6        0.0        0.0        0.0       0.00      246.9       0.00       3.49        0.0
21:00             223        0.0         71       23.3      267.6       23.3       25.0       17.8     1013.5       32.8       19.6        0.0        0.0        0.0       0.00      247.2       0.00       3.49        0.0
21:02             223        0.0         71       23.3      267.6       23.3       25.0       17.7     1013.6       32.8       19.6        0.0        0.0        0.0       0.00      247.7       0.00       3.50        0.0
21:04             223        0.0         71       23.2      267.6       23.2       24.9       17.7     1013.6       32.8       19.6        0.0        0.0        0.0       0.00      248.1       0.00       3.50        0.0
21:06             223        0.0         71       23.2      267.6       23.2       24.9       17.7     1013.6       32.8       19.6        0.0        0.0        0.0       0.00      248.4       0.00       3.50        0.0
21:07             223        0.0         71       23.2      267.6       23.2       24.9       17.6     1013.6       32.8       19.6        0.0        0.0        0.0       0.00      248.7       0.00       3.50        0.0
21:10             223        0.0         72       23.1      267.6       23.1       24.9       17.8     1013.6       32.8       19.6        0.0        0.0        0.0       0.00      249.0       0.00       3.50        0.0
21:12             223        0.0         72       23.1      267.6       23.1       24.9       17.8     1013.7       32.8       19.6        0.0        0.0        0.0       0.00      249.3       0.00       3.50        0.0
21:13             223        0.0         72       23.1      267.6       23.1       24.8       17.7     1013.7       32.8       19.6        0.0        0.0        0.0       0.00      249.6       0.00       3.50        0.0
21:16             223        0.0         72       23.1      267.6       23.1       24.8       17.7     1013.7       32.8       19.6        0.0        0.0        0.0       0.00      249.9       0.00       3.51        0.0
21:18             223        0.0         72       23.0      267.6       23.0       24.8       17.7     1013.7       32.8       19.6        0.0        0.0        0.0       0.00      250.3       0.00       3.51        0.0
21:19             223        0.0         72       22.9      267.6       22.9       24.7       17.6     1013.7       32.8       19.6        0.0        0.0        0.0       0.00      250.6       0.00       3.51        0.0
21:22             223        0.0         72       22.9      267.6       22.9       24.7       17.6     1013.7       32.8       19.6        0.0        0.0        0.0       0.00      251.0       0.00       3.51        0.0
21:24             223        0.0         72       22.9      267.6       22.9       24.7       17.6     1013.7       32.8       19.6        0.0        0.0        0.0       0.00      251.3       0.00       3.51        0.0
21:26             223        0.0         72       22.9      267.6       22.9       24.7       17.6     1013.6       32.8       19.6        0.0        0.0        0.0       0.00      251.7       0.00       3.51        0.0
21:28             223        0.0         73       22.8      267.6       22.8       24.7       17.7     1013.6       32.8       19.6        0.0        0.0        0.0       0.00      252.1       0.00       3.51        0.0
21:30             223        0.0         73       22.8      267.6       22.8       24.7       17.7     1013.7       32.8       19.6        0.0        0.0        0.0       0.00      252.4       0.00       3.51        0.0
21:31             223        0.0         73       22.8      267.6       22.8       24.6       17.7     1013.7       32.8       19.6        0.0        0.0        0.0       0.00      252.8       0.00       3.52        0.0
21:34             223        0.0         73       22.7      267.6       22.7       24.6       17.6     1013.6       32.8       19.6        0.0        0.0        0.0       0.00      253.1       0.00       3.52        0.0
21:36             223        0.0         73       22.7      267.6       22.7       24.6       17.6     1013.7       32.8       19.6        0.0        0.0        0.0       0.00      253.3       0.00       3.52        0.0
21:37             223        0.0         73       22.7      267.6       22.7       24.6       17.6     1013.7       32.8       19.6        0.0        0.0        0.0       0.00      253.4       0.00       3.52        0.0
21:40             223        0.0         73       22.7      267.6       22.7       24.6       17.6     1013.7       32.8       19.6        0.0        0.0        0.0       0.00      253.7       0.00       3.52        0.0
21:42             223        0.0         74       22.7      267.6       22.7       24.6       17.8     1013.6       32.8       19.6        0.0        0.0        0.0       0.00      254.0       0.00       3.52        0.0
21:44             223        0.0         74       22.7      267.6       22.7       24.6       17.8     1013.6       32.8       19.6        0.0        0.0        0.0       0.00      254.3       0.00       3.52        0.0
21:46             223        0.0         74       22.6      267.6       22.6       24.5       17.7     1013.6       32.8       19.6        0.0        0.0        0.0       0.00      254.5       0.00       3.53        0.0
21:48             223        0.0         74       22.6      267.6       22.6       24.5       17.7     1013.6       32.8       19.6        0.0        0.0        0.0       0.00      254.8       0.00       3.53        0.0
21:50             223        0.0         74       22.6      267.6       22.6       24.5       17.7     1013.6       32.8       19.6        0.0        0.0        0.0       0.00      255.2       0.00       3.53        0.0
21:52             223        0.0         74       22.6      267.6       22.6       24.5       17.7     1013.6       32.8       19.6        0.0        0.0        0.0       0.00      255.4       0.00       3.53        0.0
21:54             223        0.0         74       22.6      267.6       22.6       24.5       17.7     1013.6       32.8       19.6        0.0        0.0        0.0       0.00      255.7       0.00       3.53        0.0
21:56             223        0.0         74       22.5      267.6       22.5       24.4       17.6     1013.6       32.8       19.6        0.0        0.0        0.0       0.00      255.8       0.00       3.53        0.0
21:57             223        0.0         75       22.5      267.6       22.5       24.5       17.9     1013.6       32.8       19.6        0.0        0.0        0.0       0.00      256.0       0.00       3.53        0.0
22:00             223        0.0         75       22.5      267.6       22.5       24.5       17.9     1013.7       32.8       19.6        0.0        0.0        0.0       0.00      256.0       0.00       3.53        0.0
22:01             223        0.0         75       22.5      267.6       22.5       24.5       17.9     1013.7       32.8       19.6        0.0        0.0        0.0       0.00      256.0       0.00       3.53        0.0
22:03             223        0.0         75       22.5      267.6       22.5       24.5       17.9     1013.7       32.8       19.6        0.0        0.0        0.0       0.00      256.2       0.00       3.53        0.0
22:06             223        0.0         75       22.5      267.6       22.5       24.5       17.9     1013.7       32.8       19.6        0.0        0.0        0.0       0.00      256.3       0.00       3.53        0.0
22:08             223        0.0         75       22.5      267.6       22.5       24.5       17.9     1013.7       32.8       19.6        0.0        0.0        0.0       0.00      256.5       0.00       3.53        0.0
22:09             223        0.0         75       22.4      267.6       22.4       24.4       17.8     1013.7       32.8       19.6        0.0        0.0        0.0       0.00      256.7       0.00       3.53        0.0
22:12             223        0.0         75       22.4      267.6       22.4       24.4       17.8     1013.7       32.8       19.6        0.0        0.0        0.0       0.00      256.9       0.00       3.53        0.0
22:14             223        0.0         75       22.4      267.6       22.4       24.4       17.7     1013.7       32.8       19.6        0.0        0.0        0.0       0.00      257.1       0.00       3.53        0.0
22:15             223        0.0         75       22.4      267.6       22.4       24.4       17.7     1013.7       32.8       19.6        0.0        0.0        0.0       0.00      257.2       0.00       3.54        0.0
22:18             223        0.0         75       22.4      267.6       22.4       24.4       17.7     1013.8       32.8       19.6        0.0        0.0        0.0       0.00      257.3       0.00       3.54        0.0
22:20             223        0.0         76       22.3      267.6       22.3       24.4       17.9     1013.7       32.8       19.6        0.0        0.0        0.0       0.00      257.5       0.00       3.54        0.0
22:21             223        0.0         76       22.3      267.6       22.3       24.3       17.8     1013.7       32.8       19.6        0.0        0.0        0.0       0.00      257.7       0.00       3.54        0.0
22:24             223        0.0         76       22.3      267.6       22.3       24.3       17.8     1013.8       32.8       19.6        0.0        0.0        0.0       0.00      258.0       0.00       3.54        0.0
22:26             223        0.0         76       22.2      267.6       22.2       24.3       17.8     1013.7       32.8       19.6        0.0        0.0        0.0       0.00      258.2       0.00       3.54        0.0
22:27             223        0.0         76       22.2      267.6       22.2       24.3       17.8     1013.7       32.8       19.6        0.0        0.0        0.0       0.00      258.5       0.00       3.54        0.0
22:30             223        0.0         77       22.2      267.6       22.2       24.3       17.9     1013.7       32.8       19.6        0.0        0.0        0.0       0.00      258.7       0.00       3.54        0.0
22:32             223        0.0         77       22.1      267.6       22.1       24.2       17.9     1013.7       32.8       19.6        0.0        0.0        0.0       0.00      258.9       0.00       3.54        0.0
22:34             223        0.0         77       22.1      267.6       22.1       24.2       17.9     1013.7       32.8       19.6        0.0        0.0        0.0       0.00      259.1       0.00       3.54        0.0
22:36             223        0.0         77       22.1      267.6       22.1       24.2       17.9     1013.7       32.8       19.6        0.0        0.0        0.0       0.00      259.4       0.00       3.54        0.0
22:38             223        0.0         77       22.1      267.6       22.1       24.2       17.9     1013.7       32.8       19.6        0.0        0.0        0.0       0.00      259.8       0.00       3.54        0.0
22:40             223        0.0         77       22.1      267.6       22.1       24.2       17.9     1013.7       32.8       19.6        0.0        0.0        0.0       0.00      260.1       0.00       3.54        0.0
22:42             223        0.0         77       22.1      267.6       22.1       24.2       17.8     1013.7       32.8       19.6        0.0        0.0        0.0       0.00      260.3       0.00       3.54        0.0
22:44             223        0.0         78       22.0      267.6       22.0       24.2       18.0     1013.7       32.8       19.6        0.0        0.0        0.0       0.00      260.5       0.00       3.54        0.0
22:46             223        0.0         78       22.0      267.6       22.0       24.2       18.0     1013.7       32.8       19.6        0.0        0.0        0.0       0.00      260.9       0.00       3.54        0.0
22:47             223        0.0         78       22.0      267.6       22.0       24.2       18.0     1013.6       32.8       19.6        0.0        0.0        0.0       0.00      261.2       0.00       3.54        0.0
22:50             223        0.0         78       21.9      267.6       21.9       24.1       17.9     1013.6       32.8       19.6        0.0        0.0        0.0       0.00      261.6       0.00       3.54        0.0
22:52             223        0.0         79       21.9      267.6       21.9       24.2       18.1     1013.6       32.8       19.6        0.0        0.0        0.0       0.00      261.9       0.00       3.54        0.0
22:54             223        0.0         79       21.9      267.6       21.9       24.2       18.1     1013.6       32.8       19.6        0.0        0.0        0.0       0.00      262.2       0.00       3.54        0.0
22:56             223        0.0         79       21.9      267.6       21.9       24.2       18.1     1013.6       32.8       19.6        0.0        0.0        0.0       0.00      262.5       0.00       3.54        0.0
22:58             223        0.0         79       21.9      267.6       21.9       24.2       18.1     1013.6       32.8       19.6        0.0        0.0        0.0       0.00      262.7       0.00       3.54        0.0
23:00             223        0.0         80       21.9      267.6       21.9       24.2       18.3     1013.6       32.8       19.6        0.0        0.0        0.0       0.00      263.0       0.00       3.54        0.0
23:02             223        0.0         80       21.8      267.6       21.8       24.2       18.2     1013.6       32.8       19.6        0.0        0.0        0.0       0.00      263.3       0.00       3.54        0.0
23:04             223        0.0         80       21.8      267.6       21.8       24.2       18.2     1013.6       32.8       19.6        0.0        0.0        0.0       0.00      263.6       0.00       3.54        0.0
23:05             223        0.0         81       21.8      267.6       21.8       24.3       18.4     1013.6       32.8       19.6        0.0        0.0        0.0       0.00      264.0       0.00       3.54        0.0
23:08             223        0.0         81       21.8      267.6       21.8       24.2       18.4     1013.6       32.8       19.6        0.0        0.0        0.0       0.00      264.3       0.00       3.54        0.0
23:10             223        0.0         81       21.7      267.6       21.7       24.1       18.3     1013.5       32.8       19.6        0.0        0.0        0.0       0.00      264.5       0.00       3.54        0.0
23:12             223        0.0         81       21.7      267.6       21.7       24.1       18.3     1013.6       32.8       19.6        0.0        0.0        0.0       0.00      264.8       0.00       3.54        0.0
23:14             222        0.0         81       21.6      267.6       21.6       24.0       18.2     1013.6       32.8       19.6        0.0        0.0        0.0       0.00      265.2       0.00       3.54        0.0
23:16             215        0.0         81       21.6      267.6       21.6       24.0       18.2     1013.6       32.8       19.6        0.0        0.0        0.0       0.00      265.6       0.00       3.54        0.0
23:17             215        0.0         82       21.6      267.6       21.6       24.1       18.4     1013.6       32.8       19.6        0.0        0.0        0.0       0.00      265.9       0.00       3.54        0.0
23:20             207        0.0         82       21.6      267.6       21.6       24.1       18.4     1013.6       32.8       19.6        0.0        0.0        0.0       0.00      266.4       0.00       3.54        0.0
23:22             207        0.0         82       21.5      267.6       21.5       24.0       18.3     1013.6       32.8       19.6        0.0        0.0        0.0       0.00      266.7       0.00       3.54        0.0
23:24             202        0.0         83       21.5      267.6       21.5       24.1       18.5     1013.6       32.8       19.6        0.0        0.0        0.0       0.00      267.2       0.00       3.54        0.0
23:26             202        0.0         83       21.4      267.6       21.4       24.0       18.4     1013.6       32.8       19.6        0.0        0.0        0.0       0.00      267.6       0.00       3.54        0.0
23:28             200        0.0         83       21.4      267.6       21.4       24.0       18.4     1013.7       32.8       19.6        0.0        0.0        0.0       0.00      268.0       0.00       3.54        0.0
23:30             200        0.0         83       21.4      267.6       21.4       24.0       18.4     1013.7       32.8       19.6        0.0        0.0        0.0       0.00      268.3       0.00       3.54        0.0
23:32             200        0.0         83       21.4      267.6       21.4       24.0       18.4     1013.7       32.8       19.6        0.0        0.0        0.0       0.00      268.7       0.00       3.54        0.0
23:34             200        0.0         83       21.4      267.6       21.4       24.0       18.4     1013.7       32.8       19.6        0.0        0.0        0.0       0.00      269.1       0.00       3.54        0.0
23:36             192        0.0         84       21.4      267.6       21.4       24.0       18.6     1013.7       32.8       19.6        0.0        0.0        0.0       0.00      269.5       0.00       3.54        0.0
23:38             192        0.0         84       21.3      267.6       21.3       24.0       18.5     1013.6       32.8       19.6        0.0        0.0        0.0       0.00      269.9       0.00       3.54        0.0
23:40             192        0.0         84       21.3      267.6       21.3       24.0       18.5     1013.6       32.8       19.6        0.0        0.0        0.0       0.00      270.2       0.00       3.54        0.0
23:42             192        0.0         84       21.3      267.6       21.3       24.0       18.5     1013.6       32.8       19.6        0.0        0.0        0.0       0.00      270.6       0.00       3.54        0.0
23:44             192        0.0         84       21.3      267.6       21.3       24.0       18.5     1013.6       32.8       19.6        0.0        0.0        0.0       0.00      271.0       0.00       3.54        0.0
23:46             192        0.0         84       21.3      267.6       21.3       24.0       18.5     1013.6       32.8       19.6        0.0        0.0        0.0       0.00      271.3       0.00       3.54        0.0
23:48             193        0.0         84       21.3      267.6       21.3       23.9       18.5     1013.6       32.8       19.6        0.0        0.0        0.0       0.00      271.6       0.00       3.54        0.0
23:49             194        0.0         84       21.3      267.6       21.3       23.9       18.5     1013.6       32.8       19.6        0.0        0.0        0.0       0.00      272.0       0.00       3.54        0.0
23:52             194        0.0         84       21.3      267.6       21.3       23.9       18.5     1013.6       32.8       19.6        0.0        0.0        0.0       0.00      272.4       0.00       3.54        0.0
23:54             194        0.0         85       21.3      267.6       21.3       24.0       18.7     1013.6       32.8       19.6        0.0        0.0        0.0       0.00      272.8       0.00       3.54        0.0
23:55             194        0.0         85       21.3      267.6       21.3       24.0       18.7     1013.6       32.8       19.6        0.0        0.0        0.0       0.00      273.2       0.00       3.54        0.0
23:58             194        0.0         85       21.3      267.6       21.3       24.0       18.7     1013.7       32.8       19.6        0.0        0.0        0.0       0.00      273.6       0.00       3.54        0.0


Detalle de hace 2 das:

12/8/20
Time         Wind Dir  Wind Gust   Humidity       Temp   Tot Rain Wind Chill Heat Index  Dew Point   Barom SL Temp Out H Temp Out L  DailyRain   HourRain   24HrRain   RainRate   Wind Run   Deg Heat   Deg Cool  MonthRain
                          km/hr          %         C         mm         C         C         C         mb         C         C         mm         mm         mm      mm/hr         km         C         C         mm
0:00              176        0.0         84       21.0      267.6       21.0       23.7       18.2     1011.7       21.0       21.0        0.0        0.0        0.0       0.00      397.3       0.00       4.73        0.0
0:02              188        0.0         84       21.0      267.6       21.0       23.7       18.2     1011.7       21.0       21.0        0.0        0.0        0.0       0.00        0.5       0.00       0.00        0.0
0:04              196        0.0         84       21.0      267.6       21.0       23.7       18.2     1011.7       21.0       21.0        0.0        0.0        0.0       0.00        1.0       0.00       0.00        0.0
0:06              198        0.0         84       21.0      267.6       21.0       23.7       18.2     1011.7       21.0       21.0        0.0        0.0        0.0       0.00        1.7       0.00       0.00        0.0
0:08              194        0.0         84       21.0      267.6       21.0       23.7       18.2     1011.7       21.0       20.9        0.0        0.0        0.0       0.00        2.2       0.00       0.00        0.0
0:10              184        0.0         84       20.9      267.6       20.9       23.6       18.1     1011.8       21.0       20.9        0.0        0.0        0.0       0.00        2.6       0.00       0.00        0.0
0:12              190        0.0         85       20.9      267.6       20.9       23.7       18.3     1011.7       21.0       20.9        0.0        0.0        0.0       0.00        3.1       0.00       0.00        0.0
0:14              198        0.0         85       20.9      267.6       20.9       23.7       18.3     1011.8       21.0       20.9        0.0        0.0        0.0       0.00        3.5       0.00       0.00        0.0
0:16              191        0.0         85       20.9      267.6       20.9       23.7       18.3     1011.6       21.0       20.9        0.0        0.0        0.0       0.00        4.0       0.00       0.00        0.0
0:18              209        0.0         85       20.9      267.6       20.9       23.6       18.3     1011.8       21.0       20.9        0.0        0.0        0.0       0.00        4.6       0.00       0.00        0.0
0:20              213        0.0         85       20.9      267.6       20.9       23.6       18.3     1011.7       21.0       20.9        0.0        0.0        0.0       0.00        5.1       0.00       0.00        0.0
0:22              198        0.0         85       20.9      267.6       20.9       23.6       18.3     1011.8       21.0       20.9        0.0        0.0        0.0       0.00        5.7       0.00       0.00        0.0
0:24              188        0.0         85       20.9      267.6       20.9       23.6       18.3     1011.8       21.0       20.9        0.0        0.0        0.0       0.00        6.1       0.00       0.00        0.0
0:26              189        0.0         85       20.9      267.6       20.9       23.6       18.3     1011.8       21.0       20.9        0.0        0.0        0.0       0.00        6.5       0.00       0.00        0.0
0:28              190        0.0         85       20.9      267.6       20.9       23.6       18.3     1011.8       21.0       20.9        0.0        0.0        0.0       0.00        6.9       0.00       0.00        0.0
0:30              194        0.0         85       20.9      267.6       20.9       23.6       18.3     1011.8       21.0       20.9        0.0        0.0        0.0       0.00        7.2       0.00       0.00        0.0
0:32              196        0.0         86       20.9      267.6       20.9       23.7       18.5     1011.8       21.0       20.8        0.0        0.0        0.0       0.00        7.6       0.00       0.00        0.0
0:34              182        0.0         86       20.8      267.6       20.8       23.6       18.4     1011.8       21.0       20.8        0.0        0.0        0.0       0.00        8.1       0.00       0.00        0.0
0:36              192        0.0         86       20.8      267.6       20.8       23.6       18.4     1011.8       21.0       20.8        0.0        0.0        0.0       0.00        8.4       0.00       0.00        0.0
0:38              199        0.0         86       20.8      267.6       20.8       23.6       18.4     1011.8       21.0       20.8        0.0        0.0        0.0       0.00        8.8       0.00       0.00        0.0
0:40              192        0.0         86       20.8      267.6       20.8       23.6       18.4     1011.7       21.0       20.8        0.0        0.0        0.0       0.00        9.3       0.00       0.00        0.0
0:42              198        0.0         86       20.8      267.6       20.8       23.6       18.4     1011.8       21.0       20.8        0.0        0.0        0.0       0.00        9.8       0.00       0.00        0.0
0:44              209        0.0         86       20.8      267.6       20.8       23.6       18.4     1011.7       21.0       20.8        0.0        0.0        0.0       0.00       10.3       0.00       0.00        0.0
0:46              197        0.0         86       20.8      267.6       20.8       23.6       18.4     1011.7       21.0       20.8        0.0        0.0        0.0       0.00       10.8       0.00       0.00        0.0
0:48              215        0.0         86       20.7      267.6       20.7       23.5       18.3     1011.7       21.0       20.7        0.0        0.0        0.0       0.00       11.3       0.00       0.00        0.0
0:50              205        0.0         86       20.7      267.6       20.7       23.5       18.3     1011.7       21.0       20.7        0.0        0.0        0.0       0.00       11.8       0.00       0.00        0.0
0:52              202        0.0         86       20.7      267.6       20.7       23.5       18.3     1011.7       21.0       20.7        0.0        0.0        0.0       0.00       12.3       0.00       0.00        0.0
0:54              206        0.0         86       20.7      267.6       20.7       23.5       18.3     1011.7       21.0       20.7        0.0        0.0        0.0       0.00       12.7       0.00       0.00        0.0
0:56              209        0.0         86       20.7      267.6       20.7       23.5       18.3     1011.7       21.0       20.7        0.0        0.0        0.0       0.00       13.2       0.00       0.00        0.0
0:58              208        0.0         86       20.7      267.6       20.7       23.5       18.3     1011.8       21.0       20.7        0.0        0.0        0.0       0.00       13.7       0.00       0.00        0.0
1:00              191        0.0         86       20.7      267.6       20.7       23.5       18.3     1011.7       21.0       20.7        0.0        0.0        0.0       0.00       14.2       0.00       0.00        0.0
1:02              194        0.0         86       20.7      267.6       20.7       23.5       18.3     1011.7       21.0       20.7        0.0        0.0        0.0       0.00       14.6       0.00       0.00        0.0
1:04              202        0.0         86       20.7      267.6       20.7       23.5       18.2     1011.7       21.0       20.7        0.0        0.0        0.0       0.00       15.1       0.00       0.00        0.0
1:06              202        0.0         86       20.7      267.6       20.7       23.5       18.2     1011.7       21.0       20.7        0.0        0.0        0.0       0.00       15.5       0.00       0.00        0.0
1:08              207        0.0         86       20.7      267.6       20.7       23.5       18.2     1011.7       21.0       20.7        0.0        0.0        0.0       0.00       15.9       0.00       0.00        0.0
1:10              202        0.0         86       20.7      267.6       20.7       23.5       18.2     1011.7       21.0       20.7        0.0        0.0        0.0       0.00       16.4       0.00       0.00        0.0
1:12              190        0.0         86       20.7      267.6       20.7       23.5       18.2     1011.7       21.0       20.7        0.0        0.0        0.0       0.00       16.9       0.00       0.00        0.0
1:14              194        0.0         87       20.7      267.6       20.7       23.6       18.4     1011.7       21.0       20.7        0.0        0.0        0.0       0.00       17.4       0.00       0.00        0.0
1:16              196        0.0         87       20.7      267.6       20.7       23.6       18.4     1011.6       21.0       20.6        0.0        0.0        0.0       0.00       17.9       0.00       0.00        0.0
1:17              209        0.0         87       20.6      267.6       20.6       23.5       18.4     1011.7       21.0       20.6        0.0        0.0        0.0       0.00       18.4       0.00       0.00        0.0
1:20              193        0.0         87       20.7      267.6       20.7       23.6       18.4     1011.7       21.0       20.6        0.0        0.0        0.0       0.00       18.8       0.00       0.00        0.0
1:22              199        0.0         87       20.6      267.6       20.6       23.5       18.4     1011.7       21.0       20.6        0.0        0.0        0.0       0.00       19.3       0.00       0.00        0.0
1:24              207        0.0         87       20.6      267.6       20.6       23.5       18.4     1011.7       21.0       20.6        0.0        0.0        0.0       0.00       19.7       0.00       0.00        0.0
1:26              211        0.0         87       20.6      267.6       20.6       23.5       18.4     1011.7       21.0       20.6        0.0        0.0        0.0       0.00       20.1       0.00       0.00        0.0
1:28              202        0.0         87       20.6      267.6       20.6       23.5       18.4     1011.7       21.0       20.6        0.0        0.0        0.0       0.00       20.5       0.00       0.00        0.0
1:30              206        0.0         87       20.6      267.6       20.6       23.5       18.4     1011.7       21.0       20.6        0.0        0.0        0.0       0.00       20.9       0.00       0.00        0.0
1:32              200        0.0         87       20.6      267.6       20.6       23.5       18.4     1011.7       21.0       20.6        0.0        0.0        0.0       0.00       21.4       0.00       0.00        0.0
1:34              190        0.0         87       20.6      267.6       20.6       23.4       18.3     1011.7       21.0       20.6        0.0        0.0        0.0       0.00       21.8       0.00       0.00        0.0
1:36              185        0.0         87       20.6      267.6       20.6       23.4       18.3     1011.7       21.0       20.6        0.0        0.0        0.0       0.00       22.1       0.00       0.00        0.0
1:38              187        0.0         87       20.6      267.6       20.6       23.4       18.3     1011.7       21.0       20.6        0.0        0.0        0.0       0.00       22.4       0.00       0.00        0.0
1:40              180        0.0         87       20.6      267.6       20.6       23.4       18.3     1011.8       21.0       20.6        0.0        0.0        0.0       0.00       22.8       0.00       0.00        0.0
1:42              182        0.0         87       20.6      267.6       20.6       23.4       18.3     1011.7       21.0       20.6        0.0        0.0        0.0       0.00       23.1       0.00       0.00        0.0
1:44              186        0.0         87       20.6      267.6       20.6       23.4       18.3     1011.8       21.0       20.6        0.0        0.0        0.0       0.00       23.4       0.00       0.00        0.0
1:46              187        0.0         87       20.6      267.6       20.6       23.4       18.3     1011.8       21.0       20.6        0.0        0.0        0.0       0.00       23.7       0.00       0.00        0.0
1:48              187        0.0         87       20.5      267.6       20.5       23.4       18.3     1011.7       21.0       20.5        0.0        0.0        0.0       0.00       23.9       0.00       0.00        0.0
1:50              193        0.0         87       20.5      267.6       20.5       23.4       18.3     1011.8       21.0       20.5        0.0        0.0        0.0       0.00       24.3       0.00       0.00        0.0
1:52              193        0.0         87       20.5      267.6       20.5       23.4       18.3     1011.8       21.0       20.5        0.0        0.0        0.0       0.00       24.6       0.00       0.00        0.0
1:54              192        0.0         87       20.5      267.6       20.5       23.4       18.3     1011.7       21.0       20.5        0.0        0.0        0.0       0.00       25.1       0.00       0.00        0.0
1:55              197        0.0         88       20.5      267.6       20.5       23.5       18.4     1011.7       21.0       20.5        0.0        0.0        0.0       0.00       25.5       0.00       0.00        0.0
1:58              197        0.0         88       20.5      267.6       20.5       23.5       18.4     1011.7       21.0       20.4        0.0        0.0        0.0       0.00       25.7       0.00       0.00        0.0
2:00              198        0.0         88       20.4      267.6       20.4       23.4       18.4     1011.7       21.0       20.4        0.0        0.0        0.0       0.00       26.0       0.00       0.00        0.0
2:02              202        0.0         88       20.4      267.6       20.4       23.4       18.4     1011.6       21.0       20.4        0.0        0.0        0.0       0.00       26.4       0.00       0.00        0.0
2:04              202        0.0         88       20.4      267.6       20.4       23.4       18.3     1011.7       21.0       20.4        0.0        0.0        0.0       0.00       26.7       0.00       0.00        0.0
2:06              202        0.0         88       20.4      267.6       20.4       23.4       18.4     1011.7       21.0       20.4        0.0        0.0        0.0       0.00       27.0       0.00       0.00        0.0
2:07              204        0.0         88       20.4      267.6       20.4       23.4       18.3     1011.7       21.0       20.4        0.0        0.0        0.0       0.00       27.3       0.00       0.00        0.0
2:10              204        0.0         88       20.4      267.6       20.4       23.4       18.3     1011.7       21.0       20.4        0.0        0.0        0.0       0.00       27.5       0.00       0.00        0.0
2:12              204        0.0         88       20.4      267.6       20.4       23.4       18.3     1011.7       21.0       20.4        0.0        0.0        0.0       0.00       27.8       0.00       0.00        0.0
2:14              199        0.0         88       20.3      267.6       20.3       23.3       18.3     1011.7       21.0       20.3        0.0        0.0        0.0       0.00       28.3       0.00       0.00        0.0
2:16              198        0.0         88       20.3      267.6       20.3       23.3       18.3     1011.7       21.0       20.3        0.0        0.0        0.0       0.00       28.6       0.00       0.00        0.0
2:18              190        0.0         88       20.3      267.6       20.3       23.3       18.3     1011.7       21.0       20.3        0.0        0.0        0.0       0.00       29.0       0.00       0.00        0.0
2:20              185        0.0         88       20.4      267.6       20.4       23.4       18.3     1011.7       21.0       20.3        0.0        0.0        0.0       0.00       29.4       0.00       0.00        0.0
2:22              184        0.0         88       20.3      267.6       20.3       23.3       18.3     1011.7       21.0       20.3        0.0        0.0        0.0       0.00       29.7       0.00       0.00        0.0
2:24              184        0.0         88       20.3      267.6       20.3       23.3       18.3     1011.7       21.0       20.3        0.0        0.0        0.0       0.00       30.0       0.00       0.00        0.0
2:26              184        0.0         88       20.3      267.6       20.3       23.3       18.3     1011.8       21.0       20.3        0.0        0.0        0.0       0.00       30.2       0.00       0.00        0.0
2:28              187        0.0         88       20.3      267.6       20.3       23.3       18.3     1011.7       21.0       20.3        0.0        0.0        0.0       0.00       30.5       0.00       0.00        0.0
2:30              187        0.0         88       20.3      267.6       20.3       23.3       18.3     1011.7       21.0       20.3        0.0        0.0        0.0       0.00       30.7       0.00       0.00        0.0
2:32              188        0.0         88       20.3      267.6       20.3       23.2       18.2     1011.7       21.0       20.3        0.0        0.0        0.0       0.00       31.0       0.00       0.00        0.0
2:34              189        0.0         89       20.3      267.6       20.3       23.3       18.4     1011.7       21.0       20.3        0.0        0.0        0.0       0.00       31.4       0.00       0.00        0.0
2:36              190        0.0         89       20.3      267.6       20.3       23.3       18.4     1011.7       21.0       20.3        0.0        0.0        0.0       0.00       31.7       0.00       0.00        0.0
2:38              190        0.0         89       20.2      267.6       20.2       23.3       18.4     1011.7       21.0       20.2        0.0        0.0        0.0       0.00       31.9       0.00       0.00        0.0
2:39              190        0.0         89       20.2      267.6       20.2       23.3       18.4     1011.6       21.0       20.2        0.0        0.0        0.0       0.00       32.1       0.00       0.00        0.0
2:42              190        0.0         89       20.2      267.6       20.2       23.3       18.4     1011.7       21.0       20.2        0.0        0.0        0.0       0.00       32.4       0.00       0.00        0.0
2:44              190        0.0         89       20.2      267.6       20.2       23.2       18.3     1011.6       21.0       20.2        0.0        0.0        0.0       0.00       32.6       0.00       0.00        0.0
2:46              190        0.0         89       20.2      267.6       20.2       23.2       18.3     1011.6       21.0       20.2        0.0        0.0        0.0       0.00       32.9       0.00       0.00        0.0
2:48              190        0.0         89       20.2      267.6       20.2       23.2       18.3     1011.6       21.0       20.2        0.0        0.0        0.0       0.00       33.1       0.00       0.00        0.0
2:50              189        0.0         89       20.2      267.6       20.2       23.2       18.3     1011.5       21.0       20.2        0.0        0.0        0.0       0.00       33.4       0.00       0.00        0.0
2:51              190        0.0         89       20.1      267.6       20.1       23.2       18.2     1011.6       21.0       20.1        0.0        0.0        0.0       0.00       33.7       0.00       0.00        0.0
2:54              189        0.0         89       20.1      267.6       20.1       23.2       18.2     1011.6       21.0       20.1        0.0        0.0        0.0       0.00       33.8       0.00       0.00        0.0
2:56              190        0.0         89       20.1      267.6       20.1       23.1       18.2     1011.6       21.0       20.1        0.0        0.0        0.0       0.00       34.0       0.00       0.00        0.0
2:57              190        0.0         89       20.1      267.6       20.1       23.1       18.2     1011.7       21.0       20.1        0.0        0.0        0.0       0.00       34.2       0.00       0.00        0.0
3:00              190        0.0         89       20.1      267.6       20.1       23.1       18.2     1011.7       21.0       20.1        0.0        0.0        0.0       0.00       34.3       0.00       0.00        0.0
3:02              190        0.0         89       20.1      267.6       20.1       23.1       18.2     1011.7       21.0       20.1        0.0        0.0        0.0       0.00       34.4       0.00       0.00        0.0
3:04              190        0.0         89       20.1      267.6       20.1       23.1       18.2     1011.7       21.0       20.1        0.0        0.0        0.0       0.00       34.7       0.00       0.00        0.0
3:06              190        0.0         89       20.0      267.6       20.0       23.1       18.1     1011.7       21.0       20.0        0.0        0.0        0.0       0.00       34.9       0.00       0.00        0.0
3:08              190        0.0         89       20.0      267.6       20.0       23.1       18.1     1011.8       21.0       20.0        0.0        0.0        0.0       0.00       35.2       0.00       0.00        0.0
3:10              190        0.0         89       20.0      267.6       20.0       23.1       18.1     1011.8       21.0       20.0        0.0        0.0        0.0       0.00       35.4       0.00       0.00        0.0
3:12              190        0.0         89       19.9      267.6       19.9       23.0       18.1     1011.7       21.0       19.9        0.0        0.0        0.0       0.00       35.6       0.00       0.00        0.0
3:14              190        0.0         89       19.9      267.6       19.9       22.9       18.0     1011.7       21.0       19.9        0.0        0.0        0.0       0.00       35.7       0.00       0.00        0.0
3:16              190        0.0         89       19.9      267.6       19.9       22.9       18.0     1011.7       21.0       19.9        0.0        0.0        0.0       0.00       35.8       0.00       0.00        0.0
3:17              190        0.0         89       19.9      267.6       19.9       22.9       18.0     1011.7       21.0       19.9        0.0        0.0        0.0       0.00       36.1       0.00       0.00        0.0
3:20              190        0.0         89       19.8      267.6       19.8       22.9       18.0     1011.7       21.0       19.8        0.0        0.0        0.0       0.00       36.2       0.00       0.00        0.0
3:22              190        0.0         89       19.8      267.6       19.8       22.9       18.0     1011.7       21.0       19.8        0.0        0.0        0.0       0.00       36.2       0.00       0.00        0.0
3:24              190        0.0         89       19.8      267.6       19.8       22.9       18.0     1011.7       21.0       19.8        0.0        0.0        0.0       0.00       36.3       0.00       0.00        0.0
3:26              190        0.0         90       19.8      267.6       19.8       22.9       18.1     1011.8       21.0       19.8        0.0        0.0        0.0       0.00       36.3       0.00       0.00        0.0
3:28              190        0.0         90       19.8      267.6       19.8       22.9       18.1     1011.7       21.0       19.7        0.0        0.0        0.0       0.00       36.3       0.00       0.00        0.0
3:30              190        0.0         89       19.7      267.6       19.7       22.8       17.9     1011.7       21.0       19.7        0.0        0.0        0.0       0.00       36.3       0.00       0.00        0.0
3:32              189        0.0         89       19.7      267.6       19.7       22.8       17.9     1011.8       21.0       19.7        0.0        0.0        0.0       0.00       36.3       0.00       0.00        0.0
3:34              190        0.0         89       19.7      267.6       19.7       22.8       17.9     1011.8       21.0       19.7        0.0        0.0        0.0       0.00       36.4       0.00       0.00        0.0
3:36              190        0.0         89       19.7      267.6       19.7       22.7       17.8     1011.8       21.0       19.7        0.0        0.0        0.0       0.00       36.6       0.00       0.00        0.0
3:38              190        0.0         89       19.6      267.6       19.6       22.7       17.8     1011.9       21.0       19.6        0.0        0.0        0.0       0.00       36.8       0.00       0.00        0.0
3:40              190        0.0         89       19.6      267.6       19.6       22.6       17.7     1011.8       21.0       19.6        0.0        0.0        0.0       0.00       36.9       0.00       0.00        0.0
3:41              190        0.0         89       19.6      267.6       19.6       22.6       17.7     1011.7       21.0       19.6        0.0        0.0        0.0       0.00       36.9       0.00       0.00        0.0
3:44              189        0.0         89       19.5      267.6       19.5       22.6       17.6     1011.8       21.0       19.5        0.0        0.0        0.0       0.00       36.9       0.00       0.00        0.0
3:46              190        0.0         89       19.5      267.6       19.5       22.6       17.6     1011.8       21.0       19.5        0.0        0.0        0.0       0.00       36.9       0.00       0.00        0.0
3:47              190        0.0         89       19.4      267.6       19.4       22.5       17.6     1011.8       21.0       19.4        0.0        0.0        0.0       0.00       36.9       0.00       0.00        0.0
3:49              189        0.0         89       19.4      267.6       19.4       22.5       17.6     1011.8       21.0       19.4        0.0        0.0        0.0       0.00       36.9       0.00       0.00        0.0
3:52              190        0.0         89       19.4      267.6       19.4       22.4       17.5     1011.8       21.0       19.4        0.0        0.0        0.0       0.00       36.9       0.00       0.00        0.0
3:54              190        0.0         89       19.4      267.6       19.4       22.4       17.5     1011.8       21.0       19.4        0.0        0.0        0.0       0.00       37.0       0.00       0.00        0.0
3:55              190        0.0         89       19.4      267.6       19.4       22.4       17.5     1011.8       21.0       19.4        0.0        0.0        0.0       0.00       37.1       0.00       0.00        0.0
3:57              190        0.0         89       19.4      267.6       19.4       22.4       17.5     1011.9       21.0       19.4        0.0        0.0        0.0       0.00       37.2       0.00       0.00        0.0
4:00              189        0.0         89       19.3      267.6       19.3       22.4       17.5     1011.9       21.0       19.3        0.0        0.0        0.0       0.00       37.4       0.00       0.00        0.0
4:02              190        0.0         89       19.3      267.6       19.3       22.3       17.4     1011.9       21.0       19.3        0.0        0.0        0.0       0.00       37.5       0.00       0.00        0.0
4:04              190        0.0         89       19.3      267.6       19.3       22.3       17.4     1012.0       21.0       19.3        0.0        0.0        0.0       0.00       37.6       0.00       0.00        0.0
4:06              190        0.0         88       19.2      267.6       19.2       22.2       17.2     1011.9       21.0       19.2        0.0        0.0        0.0       0.00       37.7       0.00       0.00        0.0
4:08              190        0.0         88       19.2      267.6       19.2       22.1       17.1     1012.0       21.0       19.2        0.0        0.0        0.0       0.00       37.8       0.00       0.00        0.0
4:10              190        0.0         88       19.2      267.6       19.2       22.1       17.1     1012.0       21.0       19.2        0.0        0.0        0.0       0.00       37.8       0.00       0.00        0.0
4:12              190        0.0         88       19.2      267.6       19.2       22.1       17.1     1011.9       21.0       19.1        0.0        0.0        0.0       0.00       37.8       0.00       0.00        0.0
4:14              189        0.0         88       19.1      267.6       19.1       22.1       17.1     1011.9       21.0       19.1        0.0        0.0        0.0       0.00       37.8       0.00       0.00        0.0
4:16              189        0.0         88       19.2      267.6       19.2       22.1       17.1     1012.0       21.0       19.1        0.0        0.0        0.0       0.00       37.8       0.00       0.00        0.0
4:18              190        0.0         88       19.2      267.6       19.2       22.1       17.1     1012.0       21.0       19.1        0.0        0.0        0.0       0.00       37.8       0.00       0.00        0.0
4:20              190        0.0         88       19.2      267.6       19.2       22.1       17.1     1012.0       21.0       19.1        0.0        0.0        0.0       0.00       37.8       0.00       0.00        0.0
4:21              190        0.0         88       19.2      267.6       19.2       22.1       17.1     1012.1       21.0       19.1        0.0        0.0        0.0       0.00       37.8       0.00       0.00        0.0
4:24              190        0.0         88       19.2      267.6       19.2       22.1       17.1     1012.1       21.0       19.1        0.0        0.0        0.0       0.00       37.8       0.00       0.00        0.0
4:26              190        0.0         88       19.2      267.6       19.2       22.1       17.1     1012.1       21.0       19.1        0.0        0.0        0.0       0.00       37.8       0.00       0.00        0.0
4:28              190        0.0         88       19.2      267.6       19.2       22.1       17.1     1012.0       21.0       19.1        0.0        0.0        0.0       0.00       38.0       0.00       0.00        0.0
4:30              190        0.0         88       19.1      267.6       19.1       22.1       17.1     1012.1       21.0       19.1        0.0        0.0        0.0       0.00       38.2       0.00       0.00        0.0
4:31              190        0.0         88       19.1      267.6       19.1       22.0       17.0     1012.1       21.0       19.1        0.0        0.0        0.0       0.00       38.4       0.00       0.00        0.0
4:34              190        0.0         88       19.0      267.6       19.0       22.0       17.0     1012.1       21.0       19.0        0.0        0.0        0.0       0.00       38.6       0.00       0.00        0.0
4:36              190        0.0         88       18.9      267.6       18.9       21.9       16.9     1012.1       21.0       18.9        0.0        0.0        0.0       0.00       38.7       0.00       0.00        0.0
4:38              190        0.0         88       18.8      267.6       18.8       21.8       16.8     1012.1       21.0       18.8        0.0        0.0        0.0       0.00       38.8       0.00       0.00        0.0
4:40              190        0.0         88       18.8      267.6       18.8       21.7       16.8     1012.1       21.0       18.8        0.0        0.0        0.0       0.00       38.8       0.00       0.00        0.0
4:42              190        0.0         88       18.7      267.6       18.7       21.7       16.7     1012.1       21.0       18.7        0.0        0.0        0.0       0.00       38.9       0.00       0.00        0.0
4:43              190        0.0         88       18.7      267.6       18.7       21.6       16.6     1012.2       21.0       18.7        0.0        0.0        0.0       0.00       39.0       0.00       0.00        0.0
4:46              190        0.0         88       18.6      267.6       18.6       21.6       16.6     1012.1       21.0       18.6        0.0        0.0        0.0       0.00       39.3       0.00       0.00        0.0
4:48              190        0.0         88       18.5      267.6       18.5       21.5       16.5     1012.1       21.0       18.5        0.0        0.0        0.0       0.00       39.5       0.00       0.00        0.0
4:50              190        0.0         88       18.4      267.6       18.4       21.4       16.4     1012.1       21.0       18.4        0.0        0.0        0.0       0.00       39.5       0.00       0.00        0.0
4:52              190        0.0         88       18.4      267.6       18.4       21.4       16.4     1012.2       21.0       18.4        0.0        0.0        0.0       0.00       39.5       0.00       0.00        0.0
4:54              190        0.0         88       18.4      267.6       18.4       21.4       16.4     1012.1       21.0       18.4        0.0        0.0        0.0       0.00       39.5       0.00       0.00        0.0
4:55              190        0.0         88       18.3      267.6       18.3       21.3       16.3     1012.1       21.0       18.3        0.0        0.0        0.0       0.00       39.5       0.00       0.00        0.0
4:58              190        0.0         88       18.3      267.6       18.3       21.3       16.3     1012.1       21.0       18.3        0.0        0.0        0.0       0.00       39.5       0.00       0.00        0.0
5:00              190        0.0         88       18.3      267.6       18.3       21.2       16.3     1012.1       21.0       18.3        0.0        0.0        0.0       0.00       39.5       0.00       0.00        0.0
5:02              190        0.0         88       18.3      267.6       18.3       21.2       16.3     1012.1       21.0       18.3        0.0        0.0        0.0       0.00       39.6       0.00       0.00        0.0
5:04              190        0.0         89       18.3      267.6       18.3       21.3       16.4     1012.1       21.0       18.2        0.0        0.0        0.0       0.00       39.8       0.00       0.00        0.0
5:06              190        0.0         89       18.2      267.6       18.2       21.3       16.4     1012.2       21.0       18.2        0.0        0.0        0.0       0.00       40.0       0.00       0.00        0.0
5:08              190        0.0         89       18.2      267.6       18.2       21.3       16.4     1012.1       21.0       18.2        0.0        0.0        0.0       0.00       40.3       0.00       0.00        0.0
5:10              190        0.0         88       18.2      267.6       18.2       21.1       16.1     1012.2       21.0       18.2        0.0        0.0        0.0       0.00       40.5       0.00       0.00        0.0
5:12              190        0.0         88       18.1      267.6       18.1       21.1       16.1     1012.2       21.0       18.1        0.0        0.0        0.0       0.00       40.8       0.00       0.00        0.0
5:14              190        0.0         88       18.0      267.6       18.0       21.0       16.0     1012.2       21.0       18.0        0.0        0.0        0.0       0.00       41.1       0.00       0.00        0.0
5:15              190        0.0         88       17.9      267.6       17.9       20.9       15.9     1012.2       21.0       17.9        0.0        0.0        0.0       0.00       41.2       0.00       0.00        0.0
5:18              190        0.0         88       17.9      267.6       17.9       20.9       15.9     1012.2       21.0       17.9        0.0        0.0        0.0       0.00       41.4       0.00       0.00        0.0
5:20              190        0.0         88       17.8      267.6       17.8       20.8       15.8     1012.3       21.0       17.8        0.0        0.0        0.0       0.00       41.7       0.00       0.00        0.0
5:21              189        0.0         88       17.8      267.6       17.8       20.7       15.8     1012.2       21.0       17.8        0.0        0.0        0.0       0.00       41.8       0.00       0.00        0.0
5:24              190        0.0         89       17.8      267.6       17.8       20.8       15.9     1012.2       21.0       17.7        0.0        0.0        0.0       0.00       41.8       0.00       0.00        0.0
5:26              190        0.0         89       17.7      267.6       17.7       20.8       15.9     1012.2       21.0       17.7        0.0        0.0        0.0       0.00       41.9       0.00       0.00        0.0
5:27              190        0.0         89       17.7      267.6       17.7       20.7       15.8     1012.2       21.0       17.7        0.0        0.0        0.0       0.00       42.0       0.00       0.00        0.0
5:30              190        0.0         89       17.7      267.6       17.7       20.7       15.8     1012.3       21.0       17.7        0.0        0.0        0.0       0.00       42.1       0.00       0.00        0.0
5:32              190        0.0         89       17.6      267.6       17.6       20.7       15.8     1012.3       21.0       17.6        0.0        0.0        0.0       0.00       42.3       0.00       0.00        0.0
5:34              190        0.0         89       17.6      267.6       17.6       20.7       15.8     1012.4       21.0       17.6        0.0        0.0        0.0       0.00       42.5       0.00       0.00        0.0
5:36              190        0.0         89       17.6      267.6       17.6       20.7       15.8     1012.3       21.0       17.6        0.0        0.0        0.0       0.00       42.6       0.00       0.00        0.0
5:38              190        0.0         89       17.6      267.6       17.6       20.7       15.8     1012.5       21.0       17.6        0.0        0.0        0.0       0.00       42.9       0.00       0.00        0.0
5:40              190        0.0         89       17.6      267.6       17.6       20.6       15.7     1012.5       21.0       17.6        0.0        0.0        0.0       0.00       43.1       0.00       0.00        0.0
5:42              190        0.0         89       17.6      267.6       17.6       20.7       15.8     1012.5       21.0       17.6        0.0        0.0        0.0       0.00       43.2       0.00       0.00        0.0
5:44              190        0.0         89       17.6      267.6       17.6       20.7       15.8     1012.6       21.0       17.6        0.0        0.0        0.0       0.00       43.5       0.00       0.00        0.0
5:46              190        0.0         89       17.6      267.6       17.6       20.7       15.8     1012.5       21.0       17.6        0.0        0.0        0.0       0.00       43.6       0.01       0.00        0.0
5:48              190        0.0         89       17.6      267.6       17.6       20.7       15.8     1012.5       21.0       17.6        0.0        0.0        0.0       0.00       43.8       0.01       0.00        0.0
5:50              190        0.0         89       17.6      267.6       17.6       20.7       15.8     1012.6       21.0       17.6        0.0        0.0        0.0       0.00       43.9       0.01       0.00        0.0
5:52              190        0.0         89       17.6      267.6       17.6       20.7       15.8     1012.6       21.0       17.6        0.0        0.0        0.0       0.00       44.1       0.01       0.00        0.0
5:54              190        0.0         89       17.6      267.6       17.6       20.7       15.8     1012.7       21.0       17.6        0.0        0.0        0.0       0.00       44.3       0.01       0.00        0.0
5:56              190        0.0         89       17.6      267.6       17.6       20.6       15.7     1012.7       21.0       17.6        0.0        0.0        0.0       0.00       44.4       0.01       0.00        0.0
5:58              190        0.0         89       17.6      267.6       17.6       20.6       15.7     1012.7       21.0       17.6        0.0        0.0        0.0       0.00       44.6       0.01       0.00        0.0
6:00              190        0.0         89       17.6      267.6       17.6       20.6       15.7     1012.7       21.0       17.6        0.0        0.0        0.0       0.00       44.9       0.01       0.00        0.0
6:01              190        0.0         89       17.6      267.6       17.6       20.6       15.7     1012.8       21.0       17.6        0.0        0.0        0.0       0.00       44.9       0.01       0.00        0.0
6:03              190        0.0         89       17.6      267.6       17.6       20.6       15.7     1012.8       21.0       17.6        0.0        0.0        0.0       0.00       44.9       0.01       0.00        0.0
6:05              190        0.0         89       17.6      267.6       17.6       20.6       15.7     1012.9       21.0       17.6        0.0        0.0        0.0       0.00       44.9       0.01       0.00        0.0
6:08              190        0.0         89       17.6      267.6       17.6       20.6       15.7     1012.9       21.0       17.6        0.0        0.0        0.0       0.00       44.9       0.01       0.00        0.0
6:10              190        0.0         89       17.6      267.6       17.6       20.6       15.7     1012.9       21.0       17.6        0.0        0.0        0.0       0.00       44.9       0.01       0.00        0.0
6:12              190        0.0         89       17.6      267.6       17.6       20.6       15.7     1012.9       21.0       17.6        0.0        0.0        0.0       0.00       44.9       0.01       0.00        0.0
6:13              190        0.0         89       17.6      267.6       17.6       20.6       15.7     1012.9       21.0       17.6        0.0        0.0        0.0       0.00       44.9       0.01       0.00        0.0
6:16              190        0.0         89       17.6      267.6       17.6       20.6       15.7     1012.9       21.0       17.6        0.0        0.0        0.0       0.00       44.9       0.02       0.00        0.0
6:18              190        0.0         89       17.6      267.6       17.6       20.6       15.7     1012.9       21.0       17.6        0.0        0.0        0.0       0.00       44.9       0.02       0.00        0.0
6:20              190        0.0         89       17.6      267.6       17.6       20.6       15.7     1012.9       21.0       17.6        0.0        0.0        0.0       0.00       44.9       0.02       0.00        0.0
6:21              190        0.0         89       17.6      267.6       17.6       20.6       15.7     1013.0       21.0       17.6        0.0        0.0        0.0       0.00       44.9       0.02       0.00        0.0
6:23              190        0.0         89       17.6      267.6       17.6       20.7       15.8     1012.9       21.0       17.6        0.0        0.0        0.0       0.00       44.9       0.02       0.00        0.0
6:26              190        0.0         89       17.6      267.6       17.6       20.7       15.8     1013.0       21.0       17.6        0.0        0.0        0.0       0.00       45.1       0.02       0.00        0.0
6:28              190        0.0         89       17.6      267.6       17.6       20.7       15.8     1013.1       21.0       17.6        0.0        0.0        0.0       0.00       45.3       0.02       0.00        0.0
6:30              190        0.0         89       17.6      267.6       17.6       20.7       15.8     1013.1       21.0       17.6        0.0        0.0        0.0       0.00       45.4       0.02       0.00        0.0
6:32              190        0.0         89       17.6      267.6       17.6       20.7       15.8     1013.1       21.0       17.6        0.0        0.0        0.0       0.00       45.6       0.02       0.00        0.0
6:34              190        0.0         89       17.6      267.6       17.6       20.7       15.8     1013.2       21.0       17.6        0.0        0.0        0.0       0.00       45.7       0.02       0.00        0.0
6:36              190        0.0         89       17.7      267.6       17.7       20.7       15.8     1013.1       21.0       17.6        0.0        0.0        0.0       0.00       45.8       0.02       0.00        0.0
6:38              190        0.0         89       17.7      267.6       17.7       20.7       15.8     1013.3       21.0       17.6        0.0        0.0        0.0       0.00       45.9       0.02       0.00        0.0
6:40              190        0.0         89       17.7      267.6       17.7       20.8       15.9     1013.3       21.0       17.6        0.0        0.0        0.0       0.00       45.9       0.02       0.00        0.0
6:42              190        0.0         89       17.8      267.6       17.8       20.8       15.9     1013.2       21.0       17.6        0.0        0.0        0.0       0.00       46.0       0.02       0.00        0.0
6:44              190        0.0         89       17.8      267.6       17.8       20.8       15.9     1013.2       21.0       17.6        0.0        0.0        0.0       0.00       46.1       0.02       0.00        0.0
6:46              190        0.0         89       17.8      267.6       17.8       20.9       16.0     1013.1       21.0       17.6        0.0        0.0        0.0       0.00       46.3       0.02       0.00        0.0
6:48              190        0.0         89       17.9      267.6       17.9       20.9       16.1     1013.2       21.0       17.6        0.0        0.0        0.0       0.00       46.5       0.02       0.00        0.0
6:49              190        0.0         89       17.9      267.6       17.9       20.9       16.1     1013.3       21.0       17.6        0.0        0.0        0.0       0.00       46.8       0.02       0.00        0.0
6:52              190        0.0         89       18.0      267.6       18.0       21.1       16.2     1013.3       21.0       17.6        0.0        0.0        0.0       0.00       47.1       0.02       0.00        0.0
6:54              190        0.0         89       18.1      267.6       18.1       21.1       16.2     1013.3       21.0       17.6        0.0        0.0        0.0       0.00       47.3       0.02       0.00        0.0
6:55              190        0.0         89       18.1      267.6       18.1       21.2       16.3     1013.2       21.0       17.6        0.0        0.0        0.0       0.00       47.6       0.02       0.00        0.0
6:58              189        0.0         89       18.2      267.6       18.2       21.2       16.3     1013.3       21.0       17.6        0.0        0.0        0.0       0.00       48.0       0.02       0.00        0.0
7:00              190        0.0         88       18.2      267.6       18.2       21.2       16.2     1013.2       21.0       17.6        0.0        0.0        0.0       0.00       48.3       0.02       0.00        0.0
7:01              190        0.0         88       18.3      267.6       18.3       21.2       16.3     1013.2       21.0       17.6        0.0        0.0        0.0       0.00       48.6       0.02       0.00        0.0
7:04              190        0.0         88       18.3      267.6       18.3       21.3       16.3     1013.4       21.0       17.6        0.0        0.0        0.0       0.00       48.9       0.02       0.00        0.0
7:06              190        0.0         88       18.4      267.6       18.4       21.4       16.4     1013.4       21.0       17.6        0.0        0.0        0.0       0.00       49.2       0.02       0.00        0.0
7:07              190        0.0         87       18.4      267.6       18.4       21.3       16.2     1013.4       21.0       17.6        0.0        0.0        0.0       0.00       49.4       0.02       0.00        0.0
7:10              190        0.0         87       18.5      267.6       18.5       21.4       16.3     1013.4       21.0       17.6        0.0        0.0        0.0       0.00       49.6       0.02       0.00        0.0
7:12              190        0.0         87       18.6      267.6       18.6       21.4       16.4     1013.4       21.0       17.6        0.0        0.0        0.0       0.00       49.9       0.02       0.00        0.0
7:13              190        0.0         87       18.6      267.6       18.6       21.5       16.4     1013.5       21.0       17.6        0.0        0.0        0.0       0.00       50.1       0.02       0.00        0.0
7:16              190        0.0         87       18.7      267.6       18.7       21.6       16.5     1013.5       21.0       17.6        0.0        0.0        0.0       0.00       50.3       0.02       0.00        0.0
7:18              190        0.0         86       18.7      267.6       18.7       21.5       16.3     1013.6       21.0       17.6        0.0        0.0        0.0       0.00       50.6       0.02       0.00        0.0
7:19              190        0.0         86       18.8      267.6       18.8       21.6       16.4     1013.6       21.0       17.6        0.0        0.0        0.0       0.00       50.8       0.02       0.00        0.0
7:22              190        0.0         86       18.8      267.6       18.8       21.6       16.4     1013.7       21.0       17.6        0.0        0.0        0.0       0.00       50.9       0.02       0.00        0.0
7:24              190        0.0         86       18.9      267.6       18.9       21.7       16.5     1013.7       21.0       17.6        0.0        0.0        0.0       0.00       51.2       0.02       0.00        0.0
7:26              190        0.0         86       19.0      267.6       19.0       21.8       16.6     1013.7       21.0       17.6        0.0        0.0        0.0       0.00       51.5       0.02       0.00        0.0
7:28              190        0.0         86       19.1      267.6       19.1       21.9       16.7     1013.7       21.0       17.6        0.0        0.0        0.0       0.00       51.8       0.02       0.00        0.0
7:30              190        0.0         86       19.1      267.6       19.1       21.9       16.7     1013.7       21.0       17.6        0.0        0.0        0.0       0.00       52.0       0.02       0.00        0.0
7:32              190        0.0         86       19.2      267.6       19.2       22.0       16.8     1013.8       21.0       17.6        0.0        0.0        0.0       0.00       52.3       0.02       0.00        0.0
7:34              190        0.0         86       19.2      267.6       19.2       22.0       16.8     1013.7       21.0       17.6        0.0        0.0        0.0       0.00       52.6       0.02       0.00        0.0
7:36              189        0.0         86       19.3      267.6       19.3       22.1       16.9     1013.8       21.0       17.6        0.0        0.0        0.0       0.00       52.8       0.02       0.00        0.0
7:38              190        0.0         86       19.3      267.6       19.3       22.1       16.9     1013.8       21.0       17.6        0.0        0.0        0.0       0.00       53.0       0.02       0.00        0.0
7:39              190        0.0         85       19.4      267.6       19.4       22.1       16.8     1013.8       21.0       17.6        0.0        0.0        0.0       0.00       53.3       0.02       0.00        0.0
7:42              190        0.0         85       19.4      267.6       19.4       22.2       16.9     1013.8       21.0       17.6        0.0        0.0        0.0       0.00       53.5       0.02       0.00        0.0
7:44              190        0.0         85       19.4      267.6       19.4       22.2       16.9     1013.8       21.0       17.6        0.0        0.0        0.0       0.00       53.8       0.02       0.00        0.0
7:46              190        0.0         86       19.5      267.6       19.5       22.3       17.1     1013.9       21.0       17.6        0.0        0.0        0.0       0.00       54.1       0.02       0.00        0.0
7:48              190        0.0         86       19.5      267.6       19.5       22.3       17.1     1013.9       21.0       17.6        0.0        0.0        0.0       0.00       54.3       0.02       0.00        0.0
7:50              194        0.0         86       19.6      267.6       19.6       22.4       17.2     1013.9       21.0       17.6        0.0        0.0        0.0       0.00       54.7       0.02       0.00        0.0
7:51              199        0.0         86       19.6      267.6       19.6       22.4       17.2     1014.0       21.0       17.6        0.0        0.0        0.0       0.00       55.0       0.02       0.00        0.0
7:54              198        0.0         86       19.6      267.6       19.6       22.4       17.2     1014.0       21.0       17.6        0.0        0.0        0.0       0.00       55.3       0.02       0.00        0.0
7:56              206        0.0         86       19.7      267.6       19.7       22.5       17.3     1014.0       21.0       17.6        0.0        0.0        0.0       0.00       55.6       0.02       0.00        0.0
7:57              207        0.0         85       19.7      267.6       19.7       22.5       17.1     1014.1       21.0       17.6        0.0        0.0        0.0       0.00       55.9       0.02       0.00        0.0
8:00              206        0.0         85       19.8      267.6       19.8       22.5       17.2     1014.0       21.0       17.6        0.0        0.0        0.0       0.00       56.2       0.02       0.00        0.0
8:01              206        0.0         85       19.8      267.6       19.8       22.5       17.2     1014.0       21.0       17.6        0.0        0.0        0.0       0.00       56.4       0.02       0.00        0.0
8:04              202        0.0         85       19.9      267.6       19.9       22.6       17.3     1014.0       21.0       17.6        0.0        0.0        0.0       0.00       56.8       0.02       0.00        0.0
8:06              203        0.0         85       20.0      267.6       20.0       22.7       17.4     1014.0       21.0       17.6        0.0        0.0        0.0       0.00       57.1       0.02       0.00        0.0
8:08              204        0.0         84       20.1      267.6       20.1       22.7       17.3     1014.0       21.0       17.6        0.0        0.0        0.0       0.00       57.6       0.02       0.00        0.0
8:10              188        0.0         83       20.1      267.6       20.1       22.7       17.1     1014.1       21.0       17.6        0.0        0.0        0.0       0.00       58.1       0.02       0.00        0.0
8:12              182        0.0         83       20.2      267.6       20.2       22.7       17.2     1014.1       21.0       17.6        0.0        0.0        0.0       0.00       58.5       0.02       0.00        0.0
8:14              186        0.0         83       20.3      267.6       20.3       22.9       17.3     1014.1       21.0       17.6        0.0        0.0        0.0       0.00       58.9       0.02       0.00        0.0
8:16              182        0.0         82       20.3      267.6       20.3       22.8       17.2     1014.0       21.0       17.6        0.0        0.0        0.0       0.00       59.2       0.02       0.00        0.0
8:18              198        0.0         82       20.4      267.6       20.4       22.9       17.3     1014.0       21.0       17.6        0.0        0.0        0.0       0.00       59.7       0.02       0.00        0.0
8:20              198        0.0         81       20.6      267.6       20.6       23.0       17.2     1014.1       21.0       17.6        0.0        0.0        0.0       0.00       60.2       0.02       0.00        0.0
8:22              187        0.0         81       20.6      267.6       20.6       23.0       17.2     1014.1       21.0       17.6        0.0        0.0        0.0       0.00       60.6       0.02       0.00        0.0
8:24              194        0.0         81       20.6      267.6       20.6       23.0       17.2     1014.1       21.0       17.6        0.0        0.0        0.0       0.00       60.9       0.02       0.00        0.0
8:26              194        0.0         81       20.7      267.6       20.7       23.1       17.3     1014.1       21.0       17.6        0.0        0.0        0.0       0.00       61.3       0.02       0.00        0.0
8:28              192        0.0         80       20.8      267.6       20.8       23.1       17.2     1014.1       21.0       17.6        0.0        0.0        0.0       0.00       61.7       0.02       0.00        0.0
8:30              213        0.0         80       20.8      267.6       20.8       23.2       17.3     1014.1       21.0       17.6        0.0        0.0        0.0       0.00       62.2       0.02       0.00        0.0
8:32              216        0.0         80       20.9      267.6       20.9       23.2       17.3     1014.1       21.0       17.6        0.0        0.0        0.0       0.00       62.7       0.02       0.00        0.0
8:33              175        0.0         80       20.9      267.6       20.9       23.3       17.4     1014.1       21.0       17.6        0.0        0.0        0.0       0.00       63.3       0.02       0.00        0.0
8:36              180        0.0         79       21.1      267.6       21.1       23.3       17.3     1014.1       21.1       17.6        0.0        0.0        0.0       0.00       64.0       0.02       0.00        0.0
8:38              180        0.0         79       21.1      267.6       21.1       23.4       17.3     1014.1       21.1       17.6        0.0        0.0        0.0       0.00       64.5       0.02       0.00        0.0
8:40              176        0.0         78       21.2      267.6       21.2       23.4       17.2     1014.1       21.2       17.6        0.0        0.0        0.0       0.00       65.0       0.02       0.00        0.0
8:42              179        0.0         78       21.3      267.6       21.3       23.5       17.3     1014.1       21.3       17.6        0.0        0.0        0.0       0.00       65.5       0.02       0.00        0.0
8:44              184        0.0         78       21.4      267.6       21.4       23.6       17.4     1014.2       21.4       17.6        0.0        0.0        0.0       0.00       66.0       0.02       0.00        0.0
8:46              184        0.0         77       21.5      267.6       21.5       23.6       17.3     1014.1       21.5       17.6        0.0        0.0        0.0       0.00       66.5       0.02       0.00        0.0
8:47              185        0.0         76       21.6      267.6       21.6       23.6       17.1     1014.2       21.6       17.6        0.0        0.0        0.0       0.00       67.0       0.02       0.00        0.0
8:50              203        0.0         76       21.6      267.6       21.6       23.7       17.2     1014.2       21.6       17.6        0.0        0.0        0.0       0.00       67.5       0.02       0.00        0.0
8:52              178        0.0         76       21.7      267.6       21.7       23.7       17.3     1014.2       21.7       17.6        0.0        0.0        0.0       0.00       68.3       0.02       0.00        0.0
8:54              184        0.0         76       21.8      267.6       21.8       23.8       17.4     1014.2       21.8       17.6        0.0        0.0        0.0       0.00       69.0       0.02       0.00        0.0
8:55              177        0.0         75       21.8      267.6       21.8       23.8       17.2     1014.3       21.8       17.6        0.0        0.0        0.0       0.00       69.5       0.02       0.00        0.0
8:58              195        0.0         75       21.9      267.6       21.9       23.9       17.3     1014.2       21.9       17.6        0.0        0.0        0.0       0.00       70.1       0.02       0.00        0.0
9:00              178        0.0         74       22.0      267.6       22.0       23.9       17.2     1014.3       22.0       17.6        0.0        0.0        0.0       0.00       70.7       0.02       0.00        0.0
9:02              175        0.0         74       22.1      267.6       22.1       24.0       17.3     1014.4       22.1       17.6        0.0        0.0        0.0       0.00       71.4       0.02       0.00        0.0
9:04              207        0.0         73       22.2      267.6       22.2       24.0       17.1     1014.4       22.2       17.6        0.0        0.0        0.0       0.00       72.0       0.02       0.00        0.0
9:06              211        0.0         73       22.2      267.6       22.2       24.1       17.2     1014.3       22.2       17.6        0.0        0.0        0.0       0.00       72.6       0.02       0.00        0.0
9:07              202        0.0         73       22.3      267.6       22.3       24.1       17.2     1014.3       22.3       17.6        0.0        0.0        0.0       0.00       73.1       0.02       0.00        0.0
9:10              213        0.0         72       22.3      267.6       22.3       24.1       17.0     1014.3       22.3       17.6        0.0        0.0        0.0       0.00       73.5       0.02       0.00        0.0
9:11              209        0.0         72       22.4      267.6       22.4       24.2       17.1     1014.2       22.4       17.6        0.0        0.0        0.0       0.00       74.2       0.02       0.00        0.0
9:14              201        0.0         72       22.5      267.6       22.5       24.3       17.2     1014.3       22.5       17.6        0.0        0.0        0.0       0.00       74.7       0.02       0.00        0.0
9:16              193        0.0         71       22.6      267.6       22.6       24.3       17.0     1014.3       22.6       17.6        0.0        0.0        0.0       0.00       75.1       0.02       0.01        0.0
9:18              187        0.0         71       22.7      267.6       22.7       24.4       17.1     1014.3       22.7       17.6        0.0        0.0        0.0       0.00       75.7       0.02       0.01        0.0
9:20              185        0.0         70       22.7      267.6       22.7       24.4       17.0     1014.4       22.7       17.6        0.0        0.0        0.0       0.00       76.2       0.02       0.01        0.0
9:22              211        0.0         70       22.8      267.6       22.8       24.4       17.0     1014.4       22.8       17.6        0.0        0.0        0.0       0.00       77.0       0.02       0.01        0.0
9:24              185        0.0         70       22.8      267.6       22.8       24.5       17.1     1014.4       22.8       17.6        0.0        0.0        0.0       0.00       78.1       0.02       0.01        0.0
9:25              169        0.0         69       22.9      267.6       22.9       24.5       17.0     1014.3       22.9       17.6        0.0        0.0        0.0       0.00       79.5       0.02       0.01        0.0
9:28              167        0.0         69       23.0      267.6       23.0       24.6       17.0     1014.3       23.0       17.6        0.0        0.0        0.0       0.00       80.5       0.02       0.01        0.0
9:30              188        0.0         69       23.1      267.6       23.1       24.7       17.1     1014.3       23.1       17.6        0.0        0.0        0.0       0.00       81.5       0.02       0.01        0.0
9:32              181        0.0         69       23.2      267.6       23.2       24.7       17.2     1014.3       23.2       17.6        0.0        0.0        0.0       0.00       82.4       0.02       0.02        0.0
9:34              190        0.0         69       23.2      267.6       23.2       24.8       17.2     1014.3       23.2       17.6        0.0        0.0        0.0       0.00       83.2       0.02       0.02        0.0
9:36              174        0.0         68       23.3      267.6       23.3       24.8       17.1     1014.3       23.3       17.6        0.0        0.0        0.0       0.00       84.1       0.02       0.02        0.0
9:38              201        0.0         67       23.4      267.6       23.4       24.8       16.9     1014.3       23.4       17.6        0.0        0.0        0.0       0.00       84.7       0.02       0.02        0.0
9:40              202        0.0         67       23.4      267.6       23.4       24.8       16.9     1014.4       23.4       17.6        0.0        0.0        0.0       0.00       85.0       0.02       0.02        0.0
9:42              202        0.0         68       23.4      267.6       23.4       25.0       17.2     1014.4       23.4       17.6        0.0        0.0        0.0       0.00       85.7       0.02       0.02        0.0
9:44              198        0.0         67       23.5      267.6       23.5       24.9       17.0     1014.4       23.5       17.6        0.0        0.0        0.0       0.00       86.4       0.02       0.02        0.0
9:45              186        0.0         66       23.5      267.6       23.5       24.9       16.8     1014.4       23.5       17.6        0.0        0.0        0.0       0.00       86.8       0.02       0.03        0.0
9:48              211        0.0         66       23.6      267.6       23.6       24.9       16.8     1014.4       23.6       17.6        0.0        0.0        0.0       0.00       87.5       0.02       0.03        0.0
9:50              229        0.0         65       23.5      267.6       23.5       24.8       16.5     1014.4       23.6       17.6        0.0        0.0        0.0       0.00       88.1       0.02       0.03        0.0
9:52              183        0.0         66       23.5      267.6       23.5       24.9       16.8     1014.4       23.6       17.6        0.0        0.0        0.0       0.00       88.6       0.02       0.03        0.0
9:54              214        0.0         65       23.6      267.6       23.6       24.9       16.6     1014.4       23.6       17.6        0.0        0.0        0.0       0.00       89.3       0.02       0.03        0.0
9:56              215        0.0         65       23.6      267.6       23.6       24.9       16.7     1014.6       23.6       17.6        0.0        0.0        0.0       0.00       90.0       0.02       0.03        0.0
9:58              175        0.0         65       23.6      267.6       23.6       24.9       16.7     1014.4       23.6       17.6        0.0        0.0        0.0       0.00       90.6       0.02       0.03        0.0
10:00             216        0.0         65       23.7      267.6       23.7       25.0       16.8     1014.4       23.7       17.6        0.0        0.0        0.0       0.00       91.0       0.02       0.03        0.0
10:02             173        0.0         65       23.8      267.6       23.8       25.1       16.8     1014.4       23.8       17.6        0.0        0.0        0.0       0.00       91.8       0.02       0.05        0.0
10:04             184        0.0         64       23.8      267.6       23.8       25.1       16.6     1014.3       23.8       17.6        0.0        0.0        0.0       0.00       92.3       0.02       0.05        0.0
10:06             223        0.0         64       23.9      267.6       23.9       25.1       16.7     1014.4       23.9       17.6        0.0        0.0        0.0       0.00       92.9       0.02       0.05        0.0
10:07             194        0.0         65       24.0      267.6       24.0       25.3       17.0     1014.5       24.0       17.6        0.0        0.0        0.0       0.00       93.5       0.02       0.05        0.0
10:09             180        0.0         66       24.1      267.6       24.1       25.4       17.3     1014.5       24.1       17.6        0.0        0.0        0.0       0.00       94.1       0.02       0.05        0.0
10:12             167        0.0         66       24.2      267.6       24.2       25.5       17.4     1014.4       24.2       17.6        0.0        0.0        0.0       0.00       94.9       0.02       0.05        0.0
10:14             182        0.0         66       24.2      267.6       24.2       25.6       17.5     1014.5       24.3       17.6        0.0        0.0        0.0       0.00       95.7       0.02       0.05        0.0
10:16             177        0.0         66       24.3      267.6       24.3       25.7       17.6     1014.5       24.3       17.6        0.0        0.0        0.0       0.00       96.2       0.02       0.07        0.0
10:18             194        0.0         65       24.4      267.6       24.4       25.7       17.4     1014.5       24.4       17.6        0.0        0.0        0.0       0.00       96.9       0.02       0.07        0.0
10:19             186        0.0         66       24.4      267.6       24.4       25.8       17.6     1014.5       24.4       17.6        0.0        0.0        0.0       0.00       97.4       0.02       0.07        0.0
10:22             200        0.0         66       24.4      267.6       24.4       25.8       17.7     1014.5       24.4       17.6        0.0        0.0        0.0       0.00       98.0       0.02       0.07        0.0
10:24             178        0.0         66       24.4      267.6       24.4       25.8       17.7     1014.6       24.4       17.6        0.0        0.0        0.0       0.00       98.5       0.02       0.07        0.0
10:26             184        0.0         66       24.5      267.6       24.5       25.9       17.7     1014.6       24.5       17.6        0.0        0.0        0.0       0.00       99.1       0.02       0.07        0.0
10:27             176        0.0         64       24.5      267.6       24.5       25.8       17.3     1014.5       24.5       17.6        0.0        0.0        0.0       0.00       99.9       0.02       0.07        0.0
10:30             182        0.0         65       24.6      267.6       24.6       25.9       17.5     1014.6       24.6       17.6        0.0        0.0        0.0       0.00      100.4       0.02       0.07        0.0
10:32             186        0.0         65       24.7      267.6       24.7       26.0       17.7     1014.5       24.7       17.6        0.0        0.0        0.0       0.00      101.0       0.02       0.10        0.0
10:34             187        0.0         65       24.7      267.6       24.7       26.0       17.7     1014.6       24.7       17.6        0.0        0.0        0.0       0.00      101.8       0.02       0.10        0.0
10:36             182        0.0         66       24.6      267.6       24.6       26.0       17.8     1014.6       24.7       17.6        0.0        0.0        0.0       0.00      102.3       0.02       0.10        0.0
10:38             175        0.0         66       24.6      267.6       24.6       26.0       17.8     1014.5       24.7       17.6        0.0        0.0        0.0       0.00      102.7       0.02       0.10        0.0
10:40             198        0.0         65       24.6      267.6       24.6       25.9       17.6     1014.6       24.7       17.6        0.0        0.0        0.0       0.00      103.3       0.02       0.10        0.0
10:42             182        0.0         65       24.6      267.6       24.6       25.9       17.6     1014.5       24.7       17.6        0.0        0.0        0.0       0.00      104.0       0.02       0.10        0.0
10:44             225        0.0         65       24.6      267.6       24.6       25.9       17.6     1014.6       24.7       17.6        0.0        0.0        0.0       0.00      104.7       0.02       0.10        0.0
10:46             201        0.0         65       24.6      267.6       24.6       25.9       17.6     1014.6       24.7       17.6        0.0        0.0        0.0       0.00      105.2       0.02       0.13        0.0
10:48             205        0.0         65       24.6      267.6       24.6       25.9       17.6     1014.6       24.7       17.6        0.0        0.0        0.0       0.00      105.8       0.02       0.13        0.0
10:50             189        0.0         65       24.7      267.6       24.7       26.0       17.7     1014.6       24.7       17.6        0.0        0.0        0.0       0.00      106.5       0.02       0.13        0.0
10:52             190        0.0         65       24.7      267.6       24.7       26.0       17.7     1014.6       24.7       17.6        0.0        0.0        0.0       0.00      107.1       0.02       0.13        0.0
10:54             180        0.0         65       24.8      267.6       24.8       26.1       17.8     1014.6       24.8       17.6        0.0        0.0        0.0       0.00      107.9       0.02       0.13        0.0
10:56             183        0.0         64       25.0      267.6       25.0       26.3       17.7     1014.6       25.0       17.6        0.0        0.0        0.0       0.00      108.7       0.02       0.13        0.0
10:58             179        0.0         64       25.1      267.6       25.1       26.4       17.8     1014.5       25.1       17.6        0.0        0.0        0.0       0.00      109.2       0.02       0.13        0.0
11:00             182        0.0         63       25.2      267.6       25.2       26.4       17.6     1014.5       25.2       17.6        0.0        0.0        0.0       0.00      109.7       0.02       0.13        0.0
11:02             183        0.0         63       25.3      267.6       25.3       26.5       17.7     1014.5       25.3       17.6        0.0        0.0        0.0       0.00      110.0       0.02       0.16        0.0
11:04             181        0.0         63       25.3      267.6       25.3       26.5       17.8     1014.5       25.3       17.6        0.0        0.0        0.0       0.00      110.7       0.02       0.16        0.0
11:06             180        0.0         63       25.4      267.6       25.4       26.6       17.8     1014.4       25.4       17.6        0.0        0.0        0.0       0.00      111.2       0.02       0.16        0.0
11:08             176        0.0         62       25.5      267.6       25.5       26.6       17.7     1014.4       25.5       17.6        0.0        0.0        0.0       0.00      111.7       0.02       0.16        0.0
11:10             180        0.0         62       25.6      267.6       25.6       26.7       17.7     1014.4       25.6       17.6        0.0        0.0        0.0       0.00      112.3       0.02       0.16        0.0
11:11             178        0.0         62       25.6      267.6       25.6       26.7       17.8     1014.4       25.6       17.6        0.0        0.0        0.0       0.00      113.0       0.02       0.16        0.0
11:14             175        0.0         62       25.7      267.6       25.7       26.8       17.8     1014.4       25.7       17.6        0.0        0.0        0.0       0.00      113.6       0.02       0.16        0.0
11:16             175        0.0         62       25.7      267.6       25.7       26.8       17.8     1014.4       25.7       17.6        0.0        0.0        0.0       0.00      114.1       0.02       0.20        0.0
11:17             170        0.0         61       25.7      267.6       25.7       26.7       17.6     1014.4       25.7       17.6        0.0        0.0        0.0       0.00      114.8       0.02       0.20        0.0
11:20             182        0.0         61       25.6      267.6       25.6       26.7       17.5     1014.4       25.7       17.6        0.0        0.0        0.0       0.00      115.5       0.02       0.20        0.0
11:22             182        0.0         62       25.6      267.6       25.6       26.7       17.8     1014.4       25.7       17.6        0.0        0.0        0.0       0.00      116.3       0.02       0.20        0.0
11:24             178        0.0         61       25.6      267.6       25.6       26.7       17.5     1014.4       25.7       17.6        0.0        0.0        0.0       0.00      117.0       0.02       0.20        0.0
11:26             181        0.0         61       25.6      267.6       25.6       26.6       17.5     1014.4       25.7       17.6        0.0        0.0        0.0       0.00      117.8       0.02       0.20        0.0
11:28             155        0.0         61       25.6      267.6       25.6       26.7       17.5     1014.3       25.7       17.6        0.0        0.0        0.0       0.00      118.6       0.02       0.20        0.0
11:30             203        0.0         60       25.6      267.6       25.6       26.6       17.3     1014.2       25.7       17.6        0.0        0.0        0.0       0.00      119.3       0.02       0.20        0.0
11:31             205        0.0         60       25.7      267.6       25.7       26.7       17.3     1014.2       25.7       17.6        0.0        0.0        0.0       0.00      119.9       0.02       0.24        0.0
11:34             201        0.0         61       25.7      267.6       25.7       26.7       17.6     1014.3       25.7       17.6        0.0        0.0        0.0       0.00      120.6       0.02       0.24        0.0
11:36             163        0.0         61       25.7      267.6       25.7       26.8       17.6     1014.3       25.7       17.6        0.0        0.0        0.0       0.00      121.5       0.02       0.24        0.0
11:38             210        0.0         61       25.7      267.6       25.7       26.8       17.6     1014.2       25.7       17.6        0.0        0.0        0.0       0.00      122.5       0.02       0.24        0.0
11:40             237        0.0         59       25.7      267.6       25.7       26.7       17.1     1014.2       25.7       17.6        0.0        0.0        0.0       0.00      123.2       0.02       0.24        0.0
11:42             200        0.0         60       25.7      267.6       25.7       26.7       17.4     1014.2       25.7       17.6        0.0        0.0        0.0       0.00      123.6       0.02       0.24        0.0
11:44             200        0.0         60       25.7      267.6       25.7       26.7       17.4     1014.2       25.7       17.6        0.0        0.0        0.0       0.00      123.9       0.02       0.24        0.0
11:46             194        0.0         60       25.7      267.6       25.7       26.7       17.4     1014.2       25.7       17.6        0.0        0.0        0.0       0.00      124.4       0.02       0.28        0.0
11:48             171        0.0         60       25.7      267.6       25.7       26.7       17.4     1014.2       25.7       17.6        0.0        0.0        0.0       0.00      125.1       0.02       0.28        0.0
11:50             173        0.0         61       25.7      267.6       25.7       26.8       17.6     1014.1       25.7       17.6        0.0        0.0        0.0       0.00      125.7       0.02       0.28        0.0
11:52             180        0.0         59       25.7      267.6       25.7       26.7       17.1     1014.1       25.7       17.6        0.0        0.0        0.0       0.00      126.2       0.02       0.28        0.0
11:54             198        0.0         59       25.8      267.6       25.8       26.7       17.2     1014.1       25.8       17.6        0.0        0.0        0.0       0.00      126.6       0.02       0.28        0.0
11:56             240        0.0         58       25.9      267.6       25.9       26.8       17.0     1014.1       25.9       17.6        0.0        0.0        0.0       0.00      127.0       0.02       0.28        0.0
11:58             215        0.0         58       26.0      267.6       26.0       26.9       17.1     1014.1       26.0       17.6        0.0        0.0        0.0       0.00      127.9       0.02       0.28        0.0
12:00             216        0.0         56       26.1      267.6       26.1       26.9       16.7     1014.0       26.1       17.6        0.0        0.0        0.0       0.00      128.3       0.02       0.28        0.0
12:01             183        0.0         57       26.2      267.6       26.2       27.0       17.0     1014.0       26.2       17.6        0.0        0.0        0.0       0.00      128.8       0.02       0.32        0.0
12:04             188        0.0         57       26.2      267.6       26.2       27.1       17.0     1014.1       26.2       17.6        0.0        0.0        0.0       0.00      129.3       0.02       0.32        0.0
12:06             190        0.0         57       26.2      267.6       26.2       27.0       17.0     1014.0       26.2       17.6        0.0        0.0        0.0       0.00      130.0       0.02       0.32        0.0
12:07             194        0.0         57       26.2      267.6       26.2       27.0       17.0     1014.0       26.2       17.6        0.0        0.0        0.0       0.00      130.6       0.02       0.32        0.0
12:10             200        0.0         58       26.2      267.6       26.2       27.1       17.3     1014.0       26.2       17.6        0.0        0.0        0.0       0.00      131.2       0.02       0.32        0.0
12:12             184        0.0         57       26.2      267.6       26.2       27.1       17.0     1014.0       26.2       17.6        0.0        0.0        0.0       0.00      131.8       0.02       0.32        0.0
12:13             184        0.0         57       26.4      267.6       26.4       27.2       17.2     1013.9       26.4       17.6        0.0        0.0        0.0       0.00      132.1       0.02       0.32        0.0
12:16             180        0.0         55       26.5      267.6       26.5       27.2       16.7     1013.9       26.5       17.6        0.0        0.0        0.0       0.00      133.1       0.02       0.37        0.0
12:18             173        0.0         55       26.7      267.6       26.7       27.4       16.9     1013.9       26.7       17.6        0.0        0.0        0.0       0.00      133.7       0.02       0.37        0.0
12:19             207        0.0         54       26.9      267.6       26.9       27.6       16.8     1014.0       26.9       17.6        0.0        0.0        0.0       0.00      134.3       0.02       0.37        0.0
12:22             194        0.0         52       26.8      267.6       26.8       27.4       16.2     1013.9       26.9       17.6        0.0        0.0        0.0       0.00      135.3       0.02       0.37        0.0
12:24             196        0.0         52       26.8      267.6       26.8       27.3       16.1     1013.9       26.9       17.6        0.0        0.0        0.0       0.00      135.8       0.02       0.37        0.0
12:25             200        0.0         52       26.7      267.6       26.7       27.3       16.1     1013.9       26.9       17.6        0.0        0.0        0.0       0.00      136.4       0.02       0.37        0.0
12:28             187        0.0         52       26.8      267.6       26.8       27.4       16.2     1013.9       26.9       17.6        0.0        0.0        0.0       0.00      137.2       0.02       0.37        0.0
12:30             196        0.0         52       26.9      267.6       26.9       27.5       16.3     1013.8       26.9       17.6        0.0        0.0        0.0       0.00      137.6       0.02       0.37        0.0
12:31             236        0.0         52       27.1      267.6       27.1       27.6       16.4     1013.9       27.1       17.6        0.0        0.0        0.0       0.00      138.3       0.02       0.42        0.0
12:34             252        0.0         52       27.1      267.6       27.1       27.6       16.4     1013.9       27.1       17.6        0.0        0.0        0.0       0.00      138.8       0.02       0.42        0.0
12:36             211        0.0         53       27.1      267.6       27.1       27.7       16.7     1013.9       27.1       17.6        0.0        0.0        0.0       0.00      139.6       0.02       0.42        0.0
12:38             244        0.0         51       27.1      267.6       27.1       27.5       16.1     1013.8       27.1       17.6        0.0        0.0        0.0       0.00      140.2       0.02       0.42        0.0
12:39             243        0.0         52       27.1      267.6       27.1       27.6       16.4     1013.9       27.1       17.6        0.0        0.0        0.0       0.00      140.9       0.02       0.42        0.0
12:42             244        0.0         51       27.0      267.6       27.0       27.5       16.0     1013.8       27.1       17.6        0.0        0.0        0.0       0.00      141.2       0.02       0.42        0.0
12:44             234        0.0         52       27.0      267.6       27.0       27.5       16.3     1013.8       27.1       17.6        0.0        0.0        0.0       0.00      141.4       0.02       0.42        0.0
12:46             233        0.0         52       27.1      267.6       27.1       27.7       16.4     1013.8       27.1       17.6        0.0        0.0        0.0       0.00      142.0       0.02       0.47        0.0
12:48             244        0.0         50       27.2      267.6       27.2       27.6       15.9     1013.8       27.2       17.6        0.0        0.0        0.0       0.00      142.8       0.02       0.47        0.0
12:50             246        0.0         50       27.2      267.6       27.2       27.6       15.9     1013.7       27.2       17.6        0.0        0.0        0.0       0.00      143.5       0.02       0.47        0.0
12:51             246        0.0         49       27.2      267.6       27.2       27.6       15.6     1013.7       27.2       17.6        0.0        0.0        0.0       0.00      143.8       0.02       0.47        0.0
12:54             198        0.0         50       27.3      267.6       27.3       27.7       16.0     1013.7       27.3       17.6        0.0        0.0        0.0       0.00      144.4       0.02       0.47        0.0
12:56             180        0.0         49       27.4      267.6       27.4       27.7       15.7     1013.7       27.4       17.6        0.0        0.0        0.0       0.00      145.1       0.02       0.47        0.0
12:58             211        0.0         49       27.6      267.6       27.6       27.9       15.9     1013.7       27.6       17.6        0.0        0.0        0.0       0.00      145.9       0.02       0.47        0.0
13:00             192        0.0         49       27.7      267.6       27.7       28.0       16.0     1013.7       27.7       17.6        0.0        0.0        0.0       0.00      146.7       0.02       0.47        0.0
13:02             197        0.0         49       27.7      267.6       27.7       28.1       16.0     1013.7       27.7       17.6        0.0        0.0        0.0       0.00      147.1       0.02       0.53        0.0
13:04             188        0.0         49       27.8      267.6       27.8       28.2       16.1     1013.7       27.8       17.6        0.0        0.0        0.0       0.00      147.5       0.02       0.53        0.0
13:06             184        0.0         49       28.0      267.6       28.0       28.4       16.3     1013.7       28.0       17.6        0.0        0.0        0.0       0.00      148.1       0.02       0.53        0.0
13:08             188        0.0         48       28.1      267.6       28.1       28.3       16.0     1013.6       28.1       17.6        0.0        0.0        0.0       0.00      148.8       0.02       0.53        0.0
13:09             186        0.0         48       28.2      267.6       28.2       28.5       16.1     1013.7       28.2       17.6        0.0        0.0        0.0       0.00      149.4       0.02       0.53        0.0
13:12             187        0.0         48       28.3      267.6       28.3       28.6       16.2     1013.7       28.3       17.6        0.0        0.0        0.0       0.00      149.8       0.02       0.53        0.0
13:14             187        0.0         48       28.3      267.6       28.3       28.6       16.3     1013.6       28.3       17.6        0.0        0.0        0.0       0.00      150.2       0.02       0.53        0.0
13:15             231        0.0         47       28.4      267.6       28.4       28.6       16.0     1013.6       28.4       17.6        0.0        0.0        0.0       0.00      150.8       0.02       0.60        0.0
13:18             208        0.0         47       28.4      267.6       28.4       28.7       16.1     1013.5       28.4       17.6        0.0        0.0        0.0       0.00      151.4       0.02       0.60        0.0
13:20             222        0.0         46       28.4      267.6       28.4       28.6       15.7     1013.6       28.4       17.6        0.0        0.0        0.0       0.00      151.9       0.02       0.60        0.0
13:21             222        0.0         47       28.4      267.6       28.4       28.7       16.1     1013.6       28.4       17.6        0.0        0.0        0.0       0.00      152.2       0.02       0.60        0.0
13:23             207        0.0         47       28.4      267.6       28.4       28.7       16.1     1013.4       28.4       17.6        0.0        0.0        0.0       0.00      152.8       0.02       0.60        0.0
13:26             216        0.0         47       28.5      267.6       28.5       28.7       16.1     1013.5       28.5       17.6        0.0        0.0        0.0       0.00      153.7       0.02       0.60        0.0
13:28             211        0.0         47       28.6      267.6       28.6       28.9       16.2     1013.6       28.6       17.6        0.0        0.0        0.0       0.00      154.4       0.02       0.60        0.0
13:29             207        0.0         47       28.6      267.6       28.6       28.9       16.2     1013.4       28.6       17.6        0.0        0.0        0.0       0.00      155.1       0.02       0.60        0.0
13:32             202        0.0         49       28.6      267.6       28.6       29.1       16.9     1013.2       28.6       17.6        0.0        0.0        0.0       0.00      155.8       0.02       0.66        0.0
13:34             188        0.0         50       28.6      267.6       28.6       29.2       17.2     1013.3       28.7       17.6        0.0        0.0        0.0       0.00      156.6       0.02       0.66        0.0
13:36             202        0.0         49       28.7      267.6       28.7       29.1       16.9     1013.4       28.7       17.6        0.0        0.0        0.0       0.00      157.5       0.02       0.66        0.0
13:38             183        0.0         49       28.7      267.6       28.7       29.2       17.0     1013.2       28.7       17.6        0.0        0.0        0.0       0.00      158.2       0.02       0.66        0.0
13:40             175        0.0         49       28.7      267.6       28.7       29.2       17.0     1013.3       28.7       17.6        0.0        0.0        0.0       0.00      159.3       0.02       0.66        0.0
13:42             175        0.0         50       28.8      267.6       28.8       29.4       17.3     1013.2       28.8       17.6        0.0        0.0        0.0       0.00      160.1       0.02       0.66        0.0
13:44             173        0.0         50       28.7      267.6       28.7       29.3       17.3     1013.4       28.8       17.6        0.0        0.0        0.0       0.00      160.6       0.02       0.66        0.0
13:45             179        0.0         50       28.7      267.6       28.7       29.3       17.3     1013.2       28.8       17.6        0.0        0.0        0.0       0.00      160.9       0.02       0.73        0.0
13:47             194        0.0         46       28.6      267.6       28.6       28.8       15.9     1013.2       28.8       17.6        0.0        0.0        0.0       0.00      161.4       0.02       0.73        0.0
13:50             196        0.0         49       28.5      267.6       28.5       28.9       16.8     1013.1       28.8       17.6        0.0        0.0        0.0       0.00      161.8       0.02       0.73        0.0
13:52             200        0.0         50       28.6      267.6       28.6       29.1       17.1     1013.0       28.8       17.6        0.0        0.0        0.0       0.00      162.2       0.02       0.73        0.0
13:54             195        0.0         50       28.7      267.6       28.7       29.2       17.2     1013.1       28.8       17.6        0.0        0.0        0.0       0.00      162.9       0.02       0.73        0.0
13:56             178        0.0         50       28.8      267.6       28.8       29.4       17.3     1013.1       28.8       17.6        0.0        0.0        0.0       0.00      164.0       0.02       0.73        0.0
13:58             173        0.0         51       28.8      267.6       28.8       29.6       17.7     1013.1       28.8       17.6        0.0        0.0        0.0       0.00      165.4       0.02       0.73        0.0
14:00             180        0.0         50       28.8      267.6       28.8       29.4       17.4     1013.0       28.8       17.6        0.0        0.0        0.0       0.00      166.5       0.02       0.73        0.0
14:02             178        0.0         51       28.8      267.6       28.8       29.6       17.7     1013.0       28.8       17.6        0.0        0.0        0.0       0.00      167.5       0.02       0.81        0.0
14:04             172        0.0         51       28.8      267.6       28.8       29.5       17.6     1013.0       28.8       17.6        0.0        0.0        0.0       0.00      168.7       0.02       0.81        0.0
14:06             188        0.0         51       28.8      267.6       28.8       29.6       17.7     1013.0       28.8       17.6        0.0        0.0        0.0       0.00      169.5       0.02       0.81        0.0
14:08             182        0.0         51       28.8      267.6       28.8       29.6       17.7     1013.0       28.9       17.6        0.0        0.0        0.0       0.00      170.2       0.02       0.81        0.0
14:10             169        0.0         51       28.9      267.6       28.9       29.6       17.7     1013.0       28.9       17.6        0.0        0.0        0.0       0.00      171.0       0.02       0.81        0.0
14:12             182        0.0         51       29.0      267.6       29.0       29.8       17.8     1012.9       29.0       17.6        0.0        0.0        0.0       0.00      171.8       0.02       0.81        0.0
14:14             221        0.0         50       29.0      267.6       29.0       29.7       17.5     1012.9       29.1       17.6        0.0        0.0        0.0       0.00      172.8       0.02       0.81        0.0
14:15             182        0.0         50       29.0      267.6       29.0       29.7       17.5     1012.9       29.1       17.6        0.0        0.0        0.0       0.00      173.7       0.02       0.88        0.0
14:18             182        0.0         50       28.9      267.6       28.9       29.6       17.5     1012.9       29.1       17.6        0.0        0.0        0.0       0.00      175.0       0.02       0.88        0.0
14:20             189        0.0         50       28.9      267.6       28.9       29.5       17.4     1012.8       29.1       17.6        0.0        0.0        0.0       0.00      176.0       0.02       0.88        0.0
14:22             189        0.0         50       28.9      267.6       28.9       29.5       17.4     1012.6       29.1       17.6        0.0        0.0        0.0       0.00      176.7       0.02       0.88        0.0
14:24             180        0.0         49       28.9      267.6       28.9       29.5       17.2     1012.7       29.1       17.6        0.0        0.0        0.0       0.00      178.1       0.02       0.88        0.0
14:26             207        0.0         50       29.0      267.6       29.0       29.7       17.5     1012.6       29.1       17.6        0.0        0.0        0.0       0.00      179.0       0.02       0.88        0.0
14:28             179        0.0         50       29.0      267.6       29.0       29.7       17.5     1012.6       29.1       17.6        0.0        0.0        0.0       0.00      180.4       0.02       0.88        0.0
14:30             173        0.0         50       29.0      267.6       29.0       29.7       17.5     1012.5       29.1       17.6        0.0        0.0        0.0       0.00      181.8       0.02       0.88        0.0
14:32             172        0.0         50       29.1      267.6       29.1       29.7       17.6     1012.5       29.1       17.6        0.0        0.0        0.0       0.00      183.0       0.02       0.95        0.0
14:34             175        0.0         49       29.2      267.6       29.2       29.8       17.4     1012.5       29.2       17.6        0.0        0.0        0.0       0.00      184.3       0.02       0.95        0.0
14:35             189        0.0         49       29.2      267.6       29.2       29.8       17.4     1012.5       29.2       17.6        0.0        0.0        0.0       0.00      185.8       0.02       0.95        0.0
14:38             190        0.0         49       29.2      267.6       29.2       29.8       17.4     1012.5       29.2       17.6        0.0        0.0        0.0       0.00      186.9       0.02       0.95        0.0
14:40             191        0.0         49       29.2      267.6       29.2       29.8       17.4     1012.4       29.2       17.6        0.0        0.0        0.0       0.00      188.1       0.02       0.95        0.0
14:42             186        0.0         49       29.2      267.6       29.2       29.8       17.4     1012.4       29.2       17.6        0.0        0.0        0.0       0.00      189.3       0.02       0.95        0.0
14:44             171        0.0         50       29.1      267.6       29.1       29.8       17.6     1012.4       29.2       17.6        0.0        0.0        0.0       0.00      190.5       0.02       0.95        0.0
14:46             174        0.0         50       29.1      267.6       29.1       29.8       17.6     1012.4       29.2       17.6        0.0        0.0        0.0       0.00      192.4       0.02       1.03        0.0
14:48             178        0.0         49       29.2      267.6       29.2       29.8       17.4     1012.4       29.2       17.6        0.0        0.0        0.0       0.00      193.3       0.02       1.03        0.0
14:49             170        0.0         49       29.2      267.6       29.2       29.8       17.4     1012.4       29.2       17.6        0.0        0.0        0.0       0.00      194.1       0.02       1.03        0.0
14:52             180        0.0         49       29.2      267.6       29.2       29.8       17.4     1012.4       29.2       17.6        0.0        0.0        0.0       0.00      195.7       0.02       1.03        0.0
14:54             201        0.0         49       29.2      267.6       29.2       29.8       17.4     1012.3       29.2       17.6        0.0        0.0        0.0       0.00      197.3       0.02       1.03        0.0
14:56             175        0.0         49       29.2      267.6       29.2       29.8       17.4     1012.4       29.2       17.6        0.0        0.0        0.0       0.00      198.4       0.02       1.03        0.0
14:58             184        0.0         49       29.2      267.6       29.2       29.8       17.4     1012.4       29.2       17.6        0.0        0.0        0.0       0.00      200.0       0.02       1.03        0.0
15:00             188        0.0         49       29.2      267.6       29.2       29.8       17.4     1012.2       29.2       17.6        0.0        0.0        0.0       0.00      200.9       0.02       1.03        0.0
15:01             182        0.0         50       29.2      267.6       29.2       29.9       17.7     1012.3       29.2       17.6        0.0        0.0        0.0       0.00      201.9       0.02       1.10        0.0
15:04             178        0.0         50       29.1      267.6       29.1       29.8       17.6     1012.3       29.2       17.6        0.0        0.0        0.0       0.00      202.9       0.02       1.10        0.0
15:06             161        0.0         50       29.2      267.6       29.2       29.9       17.7     1012.3       29.2       17.6        0.0        0.0        0.0       0.00      204.6       0.02       1.10        0.0
15:07             180        0.0         50       29.2      267.6       29.2       29.9       17.7     1012.1       29.2       17.6        0.0        0.0        0.0       0.00      205.6       0.02       1.10        0.0
15:10             171        0.0         50       29.2      267.6       29.2       30.0       17.7     1012.2       29.2       17.6        0.0        0.0        0.0       0.00      207.3       0.02       1.10        0.0
15:12             215        0.0         50       29.2      267.6       29.2       29.9       17.7     1012.3       29.2       17.6        0.0        0.0        0.0       0.00      208.9       0.02       1.10        0.0
15:14             178        0.0         50       29.1      267.6       29.1       29.8       17.6     1012.2       29.2       17.6        0.0        0.0        0.0       0.00      209.8       0.02       1.10        0.0
15:15             195        0.0         50       29.1      267.6       29.1       29.8       17.6     1012.2       29.2       17.6        0.0        0.0        0.0       0.00      211.0       0.02       1.18        0.0
15:18             178        0.0         50       29.1      267.6       29.1       29.8       17.6     1012.2       29.2       17.6        0.0        0.0        0.0       0.00      212.1       0.02       1.18        0.0
15:20             185        0.0         50       29.1      267.6       29.1       29.8       17.6     1012.1       29.2       17.6        0.0        0.0        0.0       0.00      213.2       0.02       1.18        0.0
15:22             166        0.0         50       29.1      267.6       29.1       29.8       17.6     1012.1       29.2       17.6        0.0        0.0        0.0       0.00      214.3       0.02       1.18        0.0
15:24             178        0.0         50       29.2      267.6       29.2       29.9       17.7     1012.1       29.2       17.6        0.0        0.0        0.0       0.00      215.7       0.02       1.18        0.0
15:26             180        0.0         50       29.2      267.6       29.2       30.0       17.7     1012.1       29.2       17.6        0.0        0.0        0.0       0.00      217.3       0.02       1.18        0.0
15:28             170        0.0         50       29.2      267.6       29.2       29.9       17.7     1012.0       29.2       17.6        0.0        0.0        0.0       0.00      219.2       0.02       1.18        0.0
15:30             200        0.0         50       29.1      267.6       29.1       29.8       17.6     1012.1       29.2       17.6        0.0        0.0        0.0       0.00      221.1       0.02       1.18        0.0
15:32             176        0.0         50       29.1      267.6       29.1       29.8       17.6     1012.2       29.2       17.6        0.0        0.0        0.0       0.00      222.6       0.02       1.25        0.0
15:33             195        0.0         50       29.0      267.6       29.0       29.7       17.5     1012.1       29.2       17.6        0.0        0.0        0.0       0.00      223.9       0.02       1.25        0.0
15:36             184        0.0         51       28.9      267.6       28.9       29.7       17.8     1012.1       29.2       17.6        0.0        0.0        0.0       0.00      225.1       0.02       1.25        0.0
15:38             182        0.0         51       28.9      267.6       28.9       29.7       17.8     1012.1       29.2       17.6        0.0        0.0        0.0       0.00      226.2       0.02       1.25        0.0
15:39             194        0.0         51       28.9      267.6       28.9       29.6       17.7     1012.1       29.2       17.6        0.0        0.0        0.0       0.00      227.3       0.02       1.25        0.0
15:42             190        0.0         51       28.9      267.6       28.9       29.6       17.7     1012.1       29.2       17.6        0.0        0.0        0.0       0.00      228.4       0.02       1.25        0.0
15:44             185        0.0         52       28.8      267.6       28.8       29.7       18.0     1012.2       29.2       17.6        0.0        0.0        0.0       0.00      230.1       0.02       1.25        0.0
15:45             180        0.0         52       28.8      267.6       28.8       29.6       18.0     1012.2       29.2       17.6        0.0        0.0        0.0       0.00      231.1       0.02       1.32        0.0
15:48             184        0.0         53       28.7      267.6       28.7       29.7       18.2     1012.1       29.2       17.6        0.0        0.0        0.0       0.00      232.5       0.02       1.32        0.0
15:50             165        0.0         53       28.7      267.6       28.7       29.7       18.2     1012.1       29.2       17.6        0.0        0.0        0.0       0.00      234.1       0.02       1.32        0.0
15:52             179        0.0         52       28.7      267.6       28.7       29.5       17.9     1012.0       29.2       17.6        0.0        0.0        0.0       0.00      235.5       0.02       1.32        0.0
15:54             171        0.0         52       28.8      267.6       28.8       29.6       18.0     1012.0       29.2       17.6        0.0        0.0        0.0       0.00      236.9       0.02       1.32        0.0
15:56             185        0.0         52       28.8      267.6       28.8       29.7       18.0     1012.0       29.2       17.6        0.0        0.0        0.0       0.00      238.4       0.02       1.32        0.0
15:58             178        0.0         52       28.9      267.6       28.9       29.8       18.1     1012.0       29.2       17.6        0.0        0.0        0.0       0.00      239.9       0.02       1.32        0.0
16:00             195        0.0         52       28.9      267.6       28.9       29.8       18.1     1012.0       29.2       17.6        0.0        0.0        0.0       0.00      240.8       0.02       1.32        0.0
16:02             186        0.0         52       29.1      267.6       29.1       30.0       18.2     1012.0       29.2       17.6        0.0        0.0        0.0       0.00      242.2       0.02       1.39        0.0
16:04             170        0.0         51       29.1      267.6       29.1       29.9       18.0     1012.1       29.2       17.6        0.0        0.0        0.0       0.00      243.5       0.02       1.39        0.0
16:06             178        0.0         51       29.1      267.6       29.1       29.9       18.0     1012.0       29.2       17.6        0.0        0.0        0.0       0.00      244.7       0.02       1.39        0.0
16:08             178        0.0         51       29.1      267.6       29.1       29.9       18.0     1012.1       29.2       17.6        0.0        0.0        0.0       0.00      246.6       0.02       1.39        0.0
16:10             189        0.0         51       29.1      267.6       29.1       29.9       18.0     1012.0       29.2       17.6        0.0        0.0        0.0       0.00      248.0       0.02       1.39        0.0
16:12             216        0.0         52       29.1      267.6       29.1       30.1       18.3     1012.0       29.2       17.6        0.0        0.0        0.0       0.00      249.3       0.02       1.39        0.0
16:14             184        0.0         52       29.1      267.6       29.1       30.0       18.2     1012.0       29.2       17.6        0.0        0.0        0.0       0.00      250.3       0.02       1.39        0.0
16:16             173        0.0         53       29.1      267.6       29.1       30.1       18.5     1012.0       29.2       17.6        0.0        0.0        0.0       0.00      251.7       0.02       1.47        0.0
16:18             193        0.0         53       29.0      267.6       29.0       30.0       18.5     1012.0       29.2       17.6        0.0        0.0        0.0       0.00      252.8       0.02       1.47        0.0
16:20             176        0.0         53       28.9      267.6       28.9       30.0       18.4     1012.0       29.2       17.6        0.0        0.0        0.0       0.00      254.2       0.02       1.47        0.0
16:22             197        0.0         53       28.9      267.6       28.9       29.9       18.4     1012.0       29.2       17.6        0.0        0.0        0.0       0.00      255.7       0.02       1.47        0.0
16:24             167        0.0         53       28.8      267.6       28.8       29.7       18.3     1012.0       29.2       17.6        0.0        0.0        0.0       0.00      257.3       0.02       1.47        0.0
16:26             175        0.0         53       28.7      267.6       28.7       29.7       18.2     1012.0       29.2       17.6        0.0        0.0        0.0       0.00      258.7       0.02       1.47        0.0
16:28             185        0.0         53       28.7      267.6       28.7       29.7       18.2     1012.0       29.2       17.6        0.0        0.0        0.0       0.00      260.1       0.02       1.47        0.0
16:30             182        0.0         53       28.7      267.6       28.7       29.7       18.2     1012.0       29.2       17.6        0.0        0.0        0.0       0.00      261.7       0.02       1.47        0.0
16:32             176        0.0         53       28.8      267.6       28.8       29.7       18.3     1012.0       29.2       17.6        0.0        0.0        0.0       0.00      262.9       0.02       1.54        0.0
16:34             183        0.0         53       28.8      267.6       28.8       29.7       18.3     1012.0       29.2       17.6        0.0        0.0        0.0       0.00      264.1       0.02       1.54        0.0
16:36             180        0.0         53       28.8      267.6       28.8       29.8       18.3     1012.0       29.2       17.6        0.0        0.0        0.0       0.00      265.0       0.02       1.54        0.0
16:38             186        0.0         53       28.9      267.6       28.9       29.9       18.4     1012.0       29.2       17.6        0.0        0.0        0.0       0.00      265.7       0.02       1.54        0.0
16:40             173        0.0         53       28.9      267.6       28.9       30.0       18.4     1012.0       29.2       17.6        0.0        0.0        0.0       0.00      267.3       0.02       1.54        0.0
16:41             189        0.0         52       29.0      267.6       29.0       29.9       18.2     1012.0       29.2       17.6        0.0        0.0        0.0       0.00      268.4       0.02       1.54        0.0
16:44             179        0.0         53       29.1      267.6       29.1       30.1       18.5     1012.0       29.2       17.6        0.0        0.0        0.0       0.00      269.7       0.02       1.54        0.0
16:46             185        0.0         53       29.1      267.6       29.1       30.2       18.6     1012.0       29.2       17.6        0.0        0.0        0.0       0.00      270.9       0.02       1.61        0.0
16:48             174        0.0         53       29.1      267.6       29.1       30.1       18.5     1012.0       29.2       17.6        0.0        0.0        0.0       0.00      272.1       0.02       1.61        0.0
16:50             182        0.0         53       29.0      267.6       29.0       30.0       18.5     1012.0       29.2       17.6        0.0        0.0        0.0       0.00      273.8       0.02       1.61        0.0
16:52             157        0.0         53       28.9      267.6       28.9       30.0       18.4     1012.0       29.2       17.6        0.0        0.0        0.0       0.00      275.2       0.02       1.61        0.0
16:54             169        0.0         53       28.8      267.6       28.8       29.8       18.3     1012.0       29.2       17.6        0.0        0.0        0.0       0.00      277.0       0.02       1.61        0.0
16:56             182        0.0         53       28.8      267.6       28.8       29.7       18.3     1012.0       29.2       17.6        0.0        0.0        0.0       0.00      278.3       0.02       1.61        0.0
16:57             219        0.0         54       28.7      267.6       28.7       29.8       18.5     1012.0       29.2       17.6        0.0        0.0        0.0       0.00      279.4       0.02       1.61        0.0
17:00             179        0.0         54       28.7      267.6       28.7       29.8       18.5     1012.0       29.2       17.6        0.0        0.0        0.0       0.00      281.3       0.02       1.61        0.0
17:02             184        0.0         54       28.7      267.6       28.7       29.7       18.5     1012.0       29.2       17.6        0.0        0.0        0.0       0.00      282.5       0.02       1.68        0.0
17:04             203        0.0         55       28.6      267.6       28.6       29.7       18.6     1011.9       29.2       17.6        0.0        0.0        0.0       0.00      283.8       0.02       1.68        0.0
17:06             199        0.0         54       28.5      267.6       28.5       29.5       18.3     1012.0       29.2       17.6        0.0        0.0        0.0       0.00      284.8       0.02       1.68        0.0
17:08             187        0.0         53       28.5      267.6       28.5       29.4       18.0     1012.0       29.2       17.6        0.0        0.0        0.0       0.00      286.0       0.02       1.68        0.0
17:10             205        0.0         53       28.4      267.6       28.4       29.3       17.9     1011.9       29.2       17.6        0.0        0.0        0.0       0.00      287.0       0.02       1.68        0.0
17:12             223        0.0         53       28.4      267.6       28.4       29.3       17.9     1012.0       29.2       17.6        0.0        0.0        0.0       0.00      288.0       0.02       1.68        0.0
17:14             194        0.0         53       28.5      267.6       28.5       29.4       18.0     1012.0       29.2       17.6        0.0        0.0        0.0       0.00      289.1       0.02       1.68        0.0
17:16             239        0.0         54       28.5      267.6       28.5       29.5       18.3     1012.0       29.2       17.6        0.0        0.0        0.0       0.00      290.0       0.02       1.75        0.0
17:18             223        0.0         54       28.5      267.6       28.5       29.5       18.3     1012.0       29.2       17.6        0.0        0.0        0.0       0.00      290.8       0.02       1.75        0.0
17:19             217        0.0         54       28.5      267.6       28.5       29.5       18.3     1012.0       29.2       17.6        0.0        0.0        0.0       0.00      292.0       0.02       1.75        0.0
17:22             210        0.0         54       28.4      267.6       28.4       29.4       18.2     1012.0       29.2       17.6        0.0        0.0        0.0       0.00      293.2       0.02       1.75        0.0
17:24             194        0.0         54       28.3      267.6       28.3       29.3       18.1     1012.0       29.2       17.6        0.0        0.0        0.0       0.00      294.2       0.02       1.75        0.0
17:25             199        0.0         54       28.3      267.6       28.3       29.2       18.1     1012.0       29.2       17.6        0.0        0.0        0.0       0.00      295.2       0.02       1.75        0.0
17:28             200        0.0         54       28.2      267.6       28.2       29.1       18.0     1012.0       29.2       17.6        0.0        0.0        0.0       0.00      296.5       0.02       1.75        0.0
17:30             211        0.0         54       28.2      267.6       28.2       29.1       18.0     1012.0       29.2       17.6        0.0        0.0        0.0       0.00      297.4       0.02       1.75        0.0
17:31             209        0.0         54       28.2      267.6       28.2       29.1       18.0     1012.0       29.2       17.6        0.0        0.0        0.0       0.00      298.6       0.02       1.81        0.0
17:34             215        0.0         54       28.2      267.6       28.2       29.1       18.0     1011.9       29.2       17.6        0.0        0.0        0.0       0.00      299.6       0.02       1.81        0.0
17:36             227        0.0         54       28.2      267.6       28.2       29.1       18.0     1012.0       29.2       17.6        0.0        0.0        0.0       0.00      300.3       0.02       1.81        0.0
17:38             198        0.0         54       28.2      267.6       28.2       29.1       18.0     1012.0       29.2       17.6        0.0        0.0        0.0       0.00      301.2       0.02       1.81        0.0
17:40             190        0.0         54       28.2      267.6       28.2       29.1       18.0     1011.9       29.2       17.6        0.0        0.0        0.0       0.00      302.1       0.02       1.81        0.0
17:42             220        0.0         54       28.2      267.6       28.2       29.0       18.0     1011.9       29.2       17.6        0.0        0.0        0.0       0.00      302.9       0.02       1.81        0.0
17:44             220        0.0         54       28.1      267.6       28.1       29.0       17.9     1011.9       29.2       17.6        0.0        0.0        0.0       0.00      304.0       0.02       1.81        0.0
17:46             196        0.0         54       28.1      267.6       28.1       28.9       17.9     1011.9       29.2       17.6        0.0        0.0        0.0       0.00      305.1       0.02       1.88        0.0
17:48             206        0.0         54       27.9      267.6       27.9       28.8       17.8     1011.9       29.2       17.6        0.0        0.0        0.0       0.00      306.0       0.02       1.88        0.0
17:50             221        0.0         54       27.9      267.6       27.9       28.7       17.7     1011.8       29.2       17.6        0.0        0.0        0.0       0.00      307.2       0.02       1.88        0.0
17:52             219        0.0         55       27.8      267.6       27.8       28.7       18.0     1012.0       29.2       17.6        0.0        0.0        0.0       0.00      308.2       0.02       1.88        0.0
17:54             198        0.0         55       27.7      267.6       27.7       28.6       17.9     1012.0       29.2       17.6        0.0        0.0        0.0       0.00      309.0       0.02       1.88        0.0
17:55             209        0.0         55       27.7      267.6       27.7       28.5       17.8     1012.0       29.2       17.6        0.0        0.0        0.0       0.00      310.1       0.02       1.88        0.0
17:58             215        0.0         55       27.6      267.6       27.6       28.4       17.8     1012.0       29.2       17.6        0.0        0.0        0.0       0.00      311.1       0.02       1.88        0.0
18:00             212        0.0         55       27.5      267.6       27.5       28.3       17.7     1012.0       29.2       17.6        0.0        0.0        0.0       0.00      312.1       0.02       1.88        0.0
18:02             194        0.0         56       27.4      267.6       27.4       28.3       17.9     1011.9       29.2       17.6        0.0        0.0        0.0       0.00      313.4       0.02       1.93        0.0
18:04             223        0.0         56       27.3      267.6       27.3       28.2       17.8     1012.0       29.2       17.6        0.0        0.0        0.0       0.00      314.4       0.02       1.93        0.0
18:05             189        0.0         56       27.3      267.6       27.3       28.2       17.8     1011.9       29.2       17.6        0.0        0.0        0.0       0.00      315.0       0.02       1.93        0.0
18:08             209        0.0         56       27.3      267.6       27.3       28.1       17.7     1011.9       29.2       17.6        0.0        0.0        0.0       0.00      315.6       0.02       1.93        0.0
18:09             196        0.0         56       27.2      267.6       27.2       28.1       17.7     1011.9       29.2       17.6        0.0        0.0        0.0       0.00      316.6       0.02       1.93        0.0
18:12             197        0.0         57       27.2      267.6       27.2       28.1       17.9     1012.0       29.2       17.6        0.0        0.0        0.0       0.00      317.7       0.02       1.93        0.0
18:14             198        0.0         57       27.1      267.6       27.1       27.9       17.8     1012.0       29.2       17.6        0.0        0.0        0.0       0.00      318.9       0.02       1.93        0.0
18:16             209        0.0         57       27.0      267.6       27.0       27.9       17.8     1012.0       29.2       17.6        0.0        0.0        0.0       0.00      319.9       0.02       1.98        0.0
18:18             201        0.0         57       26.9      267.6       26.9       27.7       17.7     1012.0       29.2       17.6        0.0        0.0        0.0       0.00      320.6       0.02       1.98        0.0
18:20             218        0.0         57       26.9      267.6       26.9       27.7       17.7     1012.0       29.2       17.6        0.0        0.0        0.0       0.00      321.4       0.02       1.98        0.0
18:22             217        0.0         57       26.9      267.6       26.9       27.7       17.7     1012.0       29.2       17.6        0.0        0.0        0.0       0.00      322.5       0.02       1.98        0.0
18:24             215        0.0         57       26.8      267.6       26.8       27.6       17.6     1012.0       29.2       17.6        0.0        0.0        0.0       0.00      323.5       0.02       1.98        0.0
18:26             218        0.0         58       26.7      267.6       26.7       27.6       17.8     1012.0       29.2       17.6        0.0        0.0        0.0       0.00      324.5       0.02       1.98        0.0
18:28             198        0.0         58       26.7      267.6       26.7       27.6       17.7     1012.0       29.2       17.6        0.0        0.0        0.0       0.00      325.4       0.02       1.98        0.0
18:29             208        0.0         58       26.6      267.6       26.6       27.5       17.7     1012.0       29.2       17.6        0.0        0.0        0.0       0.00      326.3       0.02       1.98        0.0
18:32             207        0.0         58       26.6      267.6       26.6       27.4       17.6     1012.1       29.2       17.6        0.0        0.0        0.0       0.00      327.1       0.02       2.03        0.0
18:34             190        0.0         58       26.5      267.6       26.5       27.4       17.6     1012.0       29.2       17.6        0.0        0.0        0.0       0.00      327.8       0.02       2.03        0.0
18:36             213        0.0         58       26.4      267.6       26.4       27.3       17.5     1012.0       29.2       17.6        0.0        0.0        0.0       0.00      328.8       0.02       2.03        0.0
18:38             199        0.0         58       26.3      267.6       26.3       27.2       17.4     1012.0       29.2       17.6        0.0        0.0        0.0       0.00      329.7       0.02       2.03        0.0
18:40             202        0.0         59       26.3      267.6       26.3       27.2       17.6     1012.0       29.2       17.6        0.0        0.0        0.0       0.00      330.2       0.02       2.03        0.0
18:42             215        0.0         59       26.2      267.6       26.2       27.2       17.6     1012.1       29.2       17.6        0.0        0.0        0.0       0.00      331.3       0.02       2.03        0.0
18:44             228        0.0         59       26.2      267.6       26.2       27.1       17.5     1012.0       29.2       17.6        0.0        0.0        0.0       0.00      332.1       0.02       2.03        0.0
18:46             219        0.0         59       26.1      267.6       26.1       27.1       17.5     1012.0       29.2       17.6        0.0        0.0        0.0       0.00      332.8       0.02       2.08        0.0
18:48             211        0.0         59       26.1      267.6       26.1       27.0       17.4     1012.0       29.2       17.6        0.0        0.0        0.0       0.00      333.6       0.02       2.08        0.0
18:50             203        0.0         59       26.0      267.6       26.0       26.9       17.4     1012.0       29.2       17.6        0.0        0.0        0.0       0.00      334.4       0.02       2.08        0.0
18:52             217        0.0         59       25.9      267.6       25.9       26.8       17.3     1012.1       29.2       17.6        0.0        0.0        0.0       0.00      335.2       0.02       2.08        0.0
18:54             185        0.0         59       25.8      267.6       25.8       26.8       17.2     1012.1       29.2       17.6        0.0        0.0        0.0       0.00      335.9       0.02       2.08        0.0
18:56             227        0.0         59       25.8      267.6       25.8       26.7       17.2     1012.1       29.2       17.6        0.0        0.0        0.0       0.00      336.6       0.02       2.08        0.0
18:58             192        0.0         59       25.7      267.6       25.7       26.7       17.1     1012.2       29.2       17.6        0.0        0.0        0.0       0.00      337.3       0.02       2.08        0.0
19:00             191        0.0         60       25.7      267.6       25.7       26.7       17.4     1012.2       29.2       17.6        0.0        0.0        0.0       0.00      337.9       0.02       2.08        0.0
19:02             201        0.0         60       25.7      267.6       25.7       26.7       17.3     1012.2       29.2       17.6        0.0        0.0        0.0       0.00      338.3       0.02       2.12        0.0
19:04             211        0.0         60       25.6      267.6       25.6       26.6       17.3     1012.1       29.2       17.6        0.0        0.0        0.0       0.00      339.0       0.02       2.12        0.0
19:05             200        0.0         60       25.6      267.6       25.6       26.6       17.2     1012.3       29.2       17.6        0.0        0.0        0.0       0.00      339.7       0.02       2.12        0.0
19:08             209        0.0         60       25.5      267.6       25.5       26.5       17.2     1012.2       29.2       17.6        0.0        0.0        0.0       0.00      340.4       0.02       2.12        0.0
19:10             215        0.0         60       25.4      267.6       25.4       26.4       17.1     1012.3       29.2       17.6        0.0        0.0        0.0       0.00      341.0       0.02       2.12        0.0
19:12             203        0.0         60       25.3      267.6       25.3       26.3       17.0     1012.4       29.2       17.6        0.0        0.0        0.0       0.00      341.9       0.02       2.12        0.0
19:14             229        0.0         60       25.3      267.6       25.3       26.3       17.0     1012.4       29.2       17.6        0.0        0.0        0.0       0.00      342.6       0.02       2.12        0.0
19:16             220        0.0         60       25.2      267.6       25.2       26.2       16.9     1012.4       29.2       17.6        0.0        0.0        0.0       0.00      343.2       0.02       2.15        0.0
19:17             218        0.0         61       25.2      267.6       25.2       26.2       17.1     1012.4       29.2       17.6        0.0        0.0        0.0       0.00      343.9       0.02       2.15        0.0
19:20             222        0.0         61       25.1      267.6       25.1       26.2       17.1     1012.4       29.2       17.6        0.0        0.0        0.0       0.00      344.7       0.02       2.15        0.0
19:22             212        0.0         61       25.1      267.6       25.1       26.1       17.0     1012.5       29.2       17.6        0.0        0.0        0.0       0.00      345.3       0.02       2.15        0.0
19:23             232        0.0         61       24.9      267.6       24.9       26.0       16.9     1012.6       29.2       17.6        0.0        0.0        0.0       0.00      345.9       0.02       2.15        0.0
19:26             227        0.0         61       24.9      267.6       24.9       26.0       16.9     1012.5       29.2       17.6        0.0        0.0        0.0       0.00      346.4       0.02       2.15        0.0
19:28             221        0.0         61       24.9      267.6       24.9       26.0       16.9     1012.5       29.2       17.6        0.0        0.0        0.0       0.00      346.9       0.02       2.15        0.0
19:30             235        0.0         62       24.8      267.6       24.8       26.0       17.1     1012.6       29.2       17.6        0.0        0.0        0.0       0.00      347.5       0.02       2.15        0.0
19:32             229        0.0         62       24.8      267.6       24.8       25.9       17.0     1012.7       29.2       17.6        0.0        0.0        0.0       0.00      348.1       0.02       2.18        0.0
19:34             224        0.0         62       24.7      267.6       24.7       25.8       17.0     1012.7       29.2       17.6        0.0        0.0        0.0       0.00      348.8       0.02       2.18        0.0
19:35             223        0.0         62       24.6      267.6       24.6       25.7       16.9     1012.8       29.2       17.6        0.0        0.0        0.0       0.00      349.7       0.02       2.18        0.0
19:38             223        0.0         63       24.6      267.6       24.6       25.7       17.1     1012.8       29.2       17.6        0.0        0.0        0.0       0.00      350.4       0.02       2.18        0.0
19:40             207        0.0         63       24.5      267.6       24.5       25.7       17.0     1012.8       29.2       17.6        0.0        0.0        0.0       0.00      350.9       0.02       2.18        0.0
19:41             209        0.0         63       24.4      267.6       24.4       25.6       16.9     1012.8       29.2       17.6        0.0        0.0        0.0       0.00      351.4       0.02       2.18        0.0
19:44             210        0.0         63       24.4      267.6       24.4       25.6       16.9     1012.8       29.2       17.6        0.0        0.0        0.0       0.00      351.9       0.02       2.18        0.0
19:46             212        0.0         63       24.4      267.6       24.4       25.6       16.9     1012.8       29.2       17.6        0.0        0.0        0.0       0.00      352.4       0.02       2.20        0.0
19:48             227        0.0         63       24.3      267.6       24.3       25.5       16.8     1012.9       29.2       17.6        0.0        0.0        0.0       0.00      353.1       0.02       2.20        0.0
19:50             222        0.0         63       24.3      267.6       24.3       25.5       16.8     1012.9       29.2       17.6        0.0        0.0        0.0       0.00      353.6       0.02       2.20        0.0
19:52             223        0.0         64       24.2      267.6       24.2       25.5       17.0     1012.9       29.2       17.6        0.0        0.0        0.0       0.00      354.2       0.02       2.20        0.0
19:54             225        0.0         64       24.2      267.6       24.2       25.4       16.9     1012.9       29.2       17.6        0.0        0.0        0.0       0.00      354.8       0.02       2.20        0.0
19:56             235        0.0         64       24.1      267.6       24.1       25.4       16.9     1012.9       29.2       17.6        0.0        0.0        0.0       0.00      355.6       0.02       2.20        0.0
19:58             232        0.0         64       24.0      267.6       24.0       25.3       16.8     1012.9       29.2       17.6        0.0        0.0        0.0       0.00      356.1       0.02       2.20        0.0
20:00             229        0.0         64       24.0      267.6       24.0       25.3       16.8     1012.9       29.2       17.6        0.0        0.0        0.0       0.00      356.7       0.02       2.20        0.0
20:02             227        0.0         65       23.9      267.6       23.9       25.3       17.0     1012.9       29.2       17.6        0.0        0.0        0.0       0.00      357.2       0.02       2.22        0.0
20:04             223        0.0         65       23.9      267.6       23.9       25.2       16.9     1012.9       29.2       17.6        0.0        0.0        0.0       0.00      357.7       0.02       2.22        0.0
20:06             223        0.0         65       23.9      267.6       23.9       25.2       16.9     1013.0       29.2       17.6        0.0        0.0        0.0       0.00      358.2       0.02       2.22        0.0
20:08             205        0.0         65       23.8      267.6       23.8       25.1       16.9     1013.0       29.2       17.6        0.0        0.0        0.0       0.00      358.8       0.02       2.22        0.0
20:10             220        0.0         65       23.8      267.6       23.8       25.1       16.8     1013.0       29.2       17.6        0.0        0.0        0.0       0.00      359.3       0.02       2.22        0.0
20:11             217        0.0         65       23.8      267.6       23.8       25.1       16.8     1013.1       29.2       17.6        0.0        0.0        0.0       0.00      359.9       0.02       2.22        0.0
20:13             217        0.0         65       23.7      267.6       23.7       25.0       16.8     1013.2       29.2       17.6        0.0        0.0        0.0       0.00      360.4       0.02       2.22        0.0
20:15             215        0.0         65       23.7      267.6       23.7       25.0       16.8     1013.1       29.2       17.6        0.0        0.0        0.0       0.00      361.0       0.02       2.24        0.0
20:18             219        0.0         65       23.7      267.6       23.7       25.0       16.7     1013.1       29.2       17.6        0.0        0.0        0.0       0.00      361.5       0.02       2.24        0.0
20:19             215        0.0         66       23.6      267.6       23.6       25.0       16.9     1013.2       29.2       17.6        0.0        0.0        0.0       0.00      362.1       0.02       2.24        0.0
20:22             216        0.0         66       23.6      267.6       23.6       24.9       16.8     1013.2       29.2       17.6        0.0        0.0        0.0       0.00      362.6       0.02       2.24        0.0
20:24             221        0.0         66       23.6      267.6       23.6       24.9       16.8     1013.2       29.2       17.6        0.0        0.0        0.0       0.00      363.0       0.02       2.24        0.0
20:26             220        0.0         66       23.5      267.6       23.5       24.9       16.8     1013.2       29.2       17.6        0.0        0.0        0.0       0.00      363.4       0.02       2.24        0.0
20:28             218        0.0         66       23.5      267.6       23.5       24.9       16.8     1013.4       29.2       17.6        0.0        0.0        0.0       0.00      363.9       0.02       2.24        0.0
20:30             218        0.0         66       23.4      267.6       23.4       24.8       16.7     1013.3       29.2       17.6        0.0        0.0        0.0       0.00      364.4       0.02       2.24        0.0
20:31             215        0.0         66       23.4      267.6       23.4       24.8       16.7     1013.5       29.2       17.6        0.0        0.0        0.0       0.00      364.8       0.02       2.26        0.0
20:34             217        0.0         67       23.4      267.6       23.4       24.8       16.9     1013.6       29.2       17.6        0.0        0.0        0.0       0.00      365.2       0.02       2.26        0.0
20:36             217        0.0         67       23.3      267.6       23.3       24.8       16.9     1013.5       29.2       17.6        0.0        0.0        0.0       0.00      365.7       0.02       2.26        0.0
20:38             217        0.0         67       23.3      267.6       23.3       24.8       16.9     1013.6       29.2       17.6        0.0        0.0        0.0       0.00      366.1       0.02       2.26        0.0
20:40             219        0.0         67       23.3      267.6       23.3       24.7       16.8     1013.6       29.2       17.6        0.0        0.0        0.0       0.00      366.6       0.02       2.26        0.0
20:42             219        0.0         67       23.2      267.6       23.2       24.7       16.8     1013.6       29.2       17.6        0.0        0.0        0.0       0.00      366.9       0.02       2.26        0.0
20:44             219        0.0         67       23.2      267.6       23.2       24.7       16.8     1013.6       29.2       17.6        0.0        0.0        0.0       0.00      367.2       0.02       2.26        0.0
20:45             219        0.0         67       23.2      267.6       23.2       24.7       16.8     1013.7       29.2       17.6        0.0        0.0        0.0       0.00      367.6       0.02       2.27        0.0
20:48             218        0.0         68       23.2      267.6       23.2       24.7       17.0     1013.7       29.2       17.6        0.0        0.0        0.0       0.00      367.9       0.02       2.27        0.0
20:50             219        0.0         68       23.2      267.6       23.2       24.7       16.9     1013.7       29.2       17.6        0.0        0.0        0.0       0.00      368.2       0.02       2.27        0.0
20:51             215        0.0         68       23.2      267.6       23.2       24.7       16.9     1013.7       29.2       17.6        0.0        0.0        0.0       0.00      368.6       0.02       2.27        0.0
20:54             216        0.0         68       23.1      267.6       23.1       24.6       16.9     1013.7       29.2       17.6        0.0        0.0        0.0       0.00      369.0       0.02       2.27        0.0
20:56             217        0.0         68       23.1      267.6       23.1       24.6       16.8     1013.9       29.2       17.6        0.0        0.0        0.0       0.00      369.5       0.02       2.27        0.0
20:57             217        0.0         68       23.1      267.6       23.1       24.6       16.8     1013.8       29.2       17.6        0.0        0.0        0.0       0.00      369.9       0.02       2.27        0.0
21:00             217        0.0         69       23.0      267.6       23.0       24.6       17.0     1013.9       29.2       17.6        0.0        0.0        0.0       0.00      370.2       0.02       2.27        0.0
21:02             217        0.0         69       22.9      267.6       22.9       24.5       17.0     1013.9       29.2       17.6        0.0        0.0        0.0       0.00      370.5       0.02       2.28        0.0
21:03             217        0.0         69       22.9      267.6       22.9       24.5       16.9     1013.9       29.2       17.6        0.0        0.0        0.0       0.00      371.0       0.02       2.28        0.0
21:06             217        0.0         69       22.8      267.6       22.8       24.4       16.9     1014.0       29.2       17.6        0.0        0.0        0.0       0.00      371.3       0.02       2.28        0.0
21:08             217        0.0         69       22.8      267.6       22.8       24.4       16.9     1014.0       29.2       17.6        0.0        0.0        0.0       0.00      371.7       0.02       2.28        0.0
21:09             217        0.0         69       22.8      267.6       22.8       24.4       16.8     1014.0       29.2       17.6        0.0        0.0        0.0       0.00      372.1       0.02       2.28        0.0
21:12             217        0.0         70       22.8      267.6       22.8       24.4       17.0     1014.0       29.2       17.6        0.0        0.0        0.0       0.00      372.5       0.02       2.28        0.0
21:14             217        0.0         70       22.7      267.6       22.7       24.4       17.0     1014.1       29.2       17.6        0.0        0.0        0.0       0.00      372.8       0.02       2.28        0.0
21:15             217        0.0         70       22.7      267.6       22.7       24.4       17.0     1014.1       29.2       17.6        0.0        0.0        0.0       0.00      373.2       0.02       2.29        0.0
21:18             217        0.0         71       22.7      267.6       22.7       24.4       17.1     1014.1       29.2       17.6        0.0        0.0        0.0       0.00      373.5       0.02       2.29        0.0
21:20             217        0.0         71       22.6      267.6       22.6       24.3       17.1     1014.2       29.2       17.6        0.0        0.0        0.0       0.00      373.8       0.02       2.29        0.0
21:22             217        0.0         71       22.6      267.6       22.6       24.3       17.1     1014.1       29.2       17.6        0.0        0.0        0.0       0.00      374.1       0.02       2.29        0.0
21:24             217        0.0         72       22.6      267.6       22.6       24.4       17.3     1014.2       29.2       17.6        0.0        0.0        0.0       0.00      374.5       0.02       2.29        0.0
21:26             217        0.0         72       22.6      267.6       22.6       24.3       17.3     1014.1       29.2       17.6        0.0        0.0        0.0       0.00      374.9       0.02       2.29        0.0
21:28             218        0.0         72       22.6      267.6       22.6       24.3       17.3     1014.2       29.2       17.6        0.0        0.0        0.0       0.00      375.3       0.02       2.29        0.0
21:30             218        0.0         72       22.5      267.6       22.5       24.3       17.2     1014.1       29.2       17.6        0.0        0.0        0.0       0.00      375.7       0.02       2.29        0.0
21:32             218        0.0         73       22.4      267.6       22.4       24.3       17.4     1014.2       29.2       17.6        0.0        0.0        0.0       0.00      376.1       0.02       2.29        0.0
21:34             217        0.0         73       22.4      267.6       22.4       24.2       17.3     1014.2       29.2       17.6        0.0        0.0        0.0       0.00      376.4       0.02       2.29        0.0
21:36             217        0.0         73       22.4      267.6       22.4       24.2       17.3     1014.2       29.2       17.6        0.0        0.0        0.0       0.00      376.7       0.02       2.29        0.0
21:38             217        0.0         73       22.3      267.6       22.3       24.2       17.3     1014.2       29.2       17.6        0.0        0.0        0.0       0.00      377.1       0.02       2.29        0.0
21:40             217        0.0         74       22.3      267.6       22.3       24.2       17.5     1014.2       29.2       17.6        0.0        0.0        0.0       0.00      377.4       0.02       2.29        0.0
21:41             217        0.0         74       22.3      267.6       22.3       24.2       17.4     1014.2       29.2       17.6        0.0        0.0        0.0       0.00      377.6       0.02       2.29        0.0
21:44             217        0.0         74       22.3      267.6       22.3       24.2       17.4     1014.2       29.2       17.6        0.0        0.0        0.0       0.00      377.9       0.02       2.29        0.0
21:46             217        0.0         74       22.2      267.6       22.2       24.1       17.4     1014.3       29.2       17.6        0.0        0.0        0.0       0.00      378.2       0.02       2.30        0.0
21:47             217        0.0         75       22.2      267.6       22.2       24.2       17.6     1014.3       29.2       17.6        0.0        0.0        0.0       0.00      378.5       0.02       2.30        0.0
21:50             217        0.0         75       22.2      267.6       22.2       24.2       17.6     1014.2       29.2       17.6        0.0        0.0        0.0       0.00      378.8       0.02       2.30        0.0
21:52             217        0.0         75       22.2      267.6       22.2       24.2       17.6     1014.2       29.2       17.6        0.0        0.0        0.0       0.00      379.1       0.02       2.30        0.0
21:53             217        0.0         75       22.2      267.6       22.2       24.2       17.5     1014.2       29.2       17.6        0.0        0.0        0.0       0.00      379.4       0.02       2.30        0.0
21:56             217        0.0         76       22.2      267.6       22.2       24.2       17.7     1014.3       29.2       17.6        0.0        0.0        0.0       0.00      379.9       0.02       2.30        0.0
21:58             217        0.0         76       22.2      267.6       22.2       24.2       17.7     1014.3       29.2       17.6        0.0        0.0        0.0       0.00      380.2       0.02       2.30        0.0
22:00             217        0.0         76       22.2      267.6       22.2       24.2       17.7     1014.2       29.2       17.6        0.0        0.0        0.0       0.00      380.5       0.02       2.30        0.0
22:02             217        0.0         76       22.1      267.6       22.1       24.2       17.7     1014.1       29.2       17.6        0.0        0.0        0.0       0.00      380.8       0.02       2.30        0.0
22:04             217        0.0         76       22.1      267.6       22.1       24.2       17.7     1014.2       29.2       17.6        0.0        0.0        0.0       0.00      381.0       0.02       2.30        0.0
22:05             217        0.0         76       22.1      267.6       22.1       24.2       17.7     1014.2       29.2       17.6        0.0        0.0        0.0       0.00      381.4       0.02       2.30        0.0
22:08             217        0.0         76       22.1      267.6       22.1       24.1       17.6     1014.2       29.2       17.6        0.0        0.0        0.0       0.00      381.8       0.02       2.30        0.0
22:10             217        0.0         76       22.1      267.6       22.1       24.1       17.6     1014.2       29.2       17.6        0.0        0.0        0.0       0.00      382.2       0.02       2.30        0.0
22:12             217        0.0         77       22.0      267.6       22.0       24.1       17.8     1014.2       29.2       17.6        0.0        0.0        0.0       0.00      382.4       0.02       2.30        0.0
22:14             217        0.0         77       22.0      267.6       22.0       24.1       17.8     1014.2       29.2       17.6        0.0        0.0        0.0       0.00      382.8       0.02       2.30        0.0
22:16             217        0.0         77       22.0      267.6       22.0       24.1       17.8     1014.1       29.2       17.6        0.0        0.0        0.0       0.00      383.2       0.02       2.30        0.0
22:18             217        0.0         77       21.9      267.6       21.9       24.1       17.7     1014.1       29.2       17.6        0.0        0.0        0.0       0.00      383.6       0.02       2.30        0.0
22:20             217        0.0         78       21.9      267.6       21.9       24.1       17.9     1014.2       29.2       17.6        0.0        0.0        0.0       0.00      383.9       0.02       2.30        0.0
22:22             217        0.0         78       21.9      267.6       21.9       24.1       17.9     1014.2       29.2       17.6        0.0        0.0        0.0       0.00      384.3       0.02       2.30        0.0
22:24             217        0.0         78       21.8      267.6       21.8       24.0       17.8     1014.1       29.2       17.6        0.0        0.0        0.0       0.00      384.6       0.02       2.30        0.0
22:26             217        0.0         79       21.8      267.6       21.8       24.1       18.0     1014.1       29.2       17.6        0.0        0.0        0.0       0.00      385.0       0.02       2.30        0.0
22:28             217        0.0         79       21.8      267.6       21.8       24.1       18.0     1014.1       29.2       17.6        0.0        0.0        0.0       0.00      385.3       0.02       2.30        0.0
22:30             217        0.0         79       21.8      267.6       21.8       24.1       18.0     1014.0       29.2       17.6        0.0        0.0        0.0       0.00      385.6       0.02       2.30        0.0
22:31             217        0.0         79       21.8      267.6       21.8       24.1       18.0     1014.1       29.2       17.6        0.0        0.0        0.0       0.00      385.9       0.02       2.30        0.0
22:34             217        0.0         79       21.8      267.6       21.8       24.1       18.0     1014.1       29.2       17.6        0.0        0.0        0.0       0.00      386.4       0.02       2.30        0.0
22:36             216        0.0         80       21.7      267.6       21.7       24.1       18.1     1014.0       29.2       17.6        0.0        0.0        0.0       0.00      386.8       0.02       2.30        0.0
22:37             217        0.0         80       21.7      267.6       21.7       24.1       18.1     1014.1       29.2       17.6        0.0        0.0        0.0       0.00      387.1       0.02       2.30        0.0
22:40             217        0.0         80       21.7      267.6       21.7       24.1       18.1     1014.0       29.2       17.6        0.0        0.0        0.0       0.00      387.5       0.02       2.30        0.0
22:42             217        0.0         80       21.7      267.6       21.7       24.0       18.1     1014.0       29.2       17.6        0.0        0.0        0.0       0.00      387.9       0.02       2.30        0.0
22:43             217        0.0         81       21.7      267.6       21.7       24.1       18.3     1014.0       29.2       17.6        0.0        0.0        0.0       0.00      388.2       0.02       2.30        0.0
22:46             216        0.0         81       21.7      267.6       21.7       24.1       18.3     1014.0       29.2       17.6        0.0        0.0        0.0       0.00      388.4       0.02       2.30        0.0
22:48             216        0.0         81       21.6      267.6       21.6       24.0       18.2     1014.1       29.2       17.6        0.0        0.0        0.0       0.00      388.7       0.02       2.30        0.0
22:49             217        0.0         81       21.6      267.6       21.6       24.0       18.2     1014.1       29.2       17.6        0.0        0.0        0.0       0.00      389.0       0.02       2.30        0.0
22:52             216        0.0         81       21.6      267.6       21.6       24.0       18.2     1014.1       29.2       17.6        0.0        0.0        0.0       0.00      389.3       0.02       2.30        0.0
22:54             216        0.0         82       21.6      267.6       21.6       24.1       18.4     1014.1       29.2       17.6        0.0        0.0        0.0       0.00      389.6       0.02       2.30        0.0
22:55             216        0.0         82       21.6      267.6       21.6       24.1       18.4     1014.1       29.2       17.6        0.0        0.0        0.0       0.00      389.9       0.02       2.30        0.0
22:58             216        0.0         82       21.6      267.6       21.6       24.1       18.4     1014.1       29.2       17.6        0.0        0.0        0.0       0.00      390.1       0.02       2.30        0.0
23:00             213        0.0         82       21.6      267.6       21.6       24.1       18.4     1014.2       29.2       17.6        0.0        0.0        0.0       0.00      390.5       0.02       2.30        0.0
23:02             212        0.0         82       21.6      267.6       21.6       24.1       18.4     1014.2       29.2       17.6        0.0        0.0        0.0       0.00      390.9       0.02       2.30        0.0
23:04             211        0.0         82       21.6      267.6       21.6       24.1       18.4     1014.2       29.2       17.6        0.0        0.0        0.0       0.00      391.3       0.02       2.30        0.0
23:06             211        0.0         83       21.5      267.6       21.5       24.1       18.5     1014.2       29.2       17.6        0.0        0.0        0.0       0.00      391.6       0.02       2.30        0.0
23:08             211        0.0         83       21.5      267.6       21.5       24.1       18.5     1014.1       29.2       17.6        0.0        0.0        0.0       0.00      391.9       0.02       2.30        0.0
23:10             211        0.0         83       21.5      267.6       21.5       24.1       18.5     1014.1       29.2       17.6        0.0        0.0        0.0       0.00      392.2       0.02       2.30        0.0
23:12             211        0.0         83       21.5      267.6       21.5       24.1       18.5     1014.1       29.2       17.6        0.0        0.0        0.0       0.00      392.5       0.02       2.30        0.0
23:14             211        0.0         83       21.5      267.6       21.5       24.1       18.5     1014.1       29.2       17.6        0.0        0.0        0.0       0.00      392.8       0.02       2.30        0.0
23:16             210        0.0         83       21.5      267.6       21.5       24.1       18.5     1014.2       29.2       17.6        0.0        0.0        0.0       0.00      393.2       0.02       2.30        0.0
23:18             210        0.0         83       21.5      267.6       21.5       24.1       18.5     1014.1       29.2       17.6        0.0        0.0        0.0       0.00      393.7       0.02       2.30        0.0
23:20             209        0.0         83       21.4      267.6       21.4       24.0       18.4     1014.1       29.2       17.6        0.0        0.0        0.0       0.00      394.1       0.02       2.30        0.0
23:21             209        0.0         83       21.4      267.6       21.4       24.0       18.4     1014.1       29.2       17.6        0.0        0.0        0.0       0.00      394.4       0.02       2.30        0.0
23:24             209        0.0         83       21.4      267.6       21.4       24.0       18.4     1014.0       29.2       17.6        0.0        0.0        0.0       0.00      394.9       0.02       2.30        0.0
23:25             209        0.0         83       21.3      267.6       21.3       23.9       18.3     1014.1       29.2       17.6        0.0        0.0        0.0       0.00      395.3       0.02       2.30        0.0
23:27             208        0.0         83       21.3      267.6       21.3       23.9       18.3     1014.1       29.2       17.6        0.0        0.0        0.0       0.00      395.7       0.02       2.30        0.0
23:29             206        0.0         83       21.3      267.6       21.3       23.9       18.3     1014.1       29.2       17.6        0.0        0.0        0.0       0.00      396.1       0.02       2.30        0.0
23:32             205        0.0         84       21.2      267.6       21.2       23.9       18.4     1014.1       29.2       17.6        0.0        0.0        0.0       0.00      396.6       0.02       2.30        0.0
23:33             201        0.0         84       21.2      267.6       21.2       23.8       18.4     1014.1       29.2       17.6        0.0        0.0        0.0       0.00      397.1       0.02       2.30        0.0
23:36             196        0.0         84       21.1      267.6       21.1       23.8       18.3     1014.1       29.2       17.6        0.0        0.0        0.0       0.00      397.5       0.02       2.30        0.0
23:38             194        0.0         84       21.1      267.6       21.1       23.7       18.3     1014.1       29.2       17.6        0.0        0.0        0.0       0.00      398.0       0.02       2.30        0.0
23:39             194        0.0         84       21.0      267.6       21.0       23.7       18.2     1014.1       29.2       17.6        0.0        0.0        0.0       0.00      398.4       0.02       2.30        0.0
23:42             192        0.0         84       20.9      267.6       20.9       23.6       18.1     1014.0       29.2       17.6        0.0        0.0        0.0       0.00      398.9       0.02       2.30        0.0
23:44             191        0.0         84       20.9      267.6       20.9       23.5       18.1     1014.2       29.2       17.6        0.0        0.0        0.0       0.00      399.3       0.02       2.30        0.0
23:45             191        0.0         84       20.9      267.6       20.9       23.5       18.1     1014.1       29.2       17.6        0.0        0.0        0.0       0.00      399.5       0.02       2.30        0.0
23:48             191        0.0         84       20.8      267.6       20.8       23.5       18.0     1014.1       29.2       17.6        0.0        0.0        0.0       0.00      399.8       0.02       2.30        0.0
23:50             191        0.0         84       20.8      267.6       20.8       23.5       18.0     1014.2       29.2       17.6        0.0        0.0        0.0       0.00      400.2       0.02       2.30        0.0
23:52             191        0.0         84       20.8      267.6       20.8       23.4       18.0     1014.1       29.2       17.6        0.0        0.0        0.0       0.00      400.4       0.02       2.30        0.0
23:54             191        0.0         84       20.8      267.6       20.8       23.4       18.0     1014.2       29.2       17.6        0.0        0.0        0.0       0.00      400.7       0.02       2.30        0.0
23:56             191        0.0         84       20.8      267.6       20.8       23.4       18.0     1014.2       29.2       17.6        0.0        0.0        0.0       0.00      401.1       0.02       2.30        0.0
23:58             191        0.0         84       20.8      267.6       20.8       23.4       18.0     1014.1       29.2       17.6        0.0        0.0        0.0       0.00      401.3       0.02       2.30        0.0